GFSMA_925_temp_003.txt.gz
Temp
17 17 17 17 17 17 17 17 16 16 16 16 16 15 15 15 15 15 15 16 16 16 15 16 16 16 16 16 17 17 16 16 16 16 16 16 15 15 15 15 15 15 15
17 17 17 17 17 16 16 16 16 15 15 15 15 15 14 14 14 14 14 15 15 15 15 14 14 14 15 15 16 16 15 15 15 15 15 15 15 15 15 15 15 15 15
17 17 17 17 16 15 15 15 15 15 14 14 14 14 14 13 13 14 14 14 14 14 14 13 13 13 14 14 14 15 14 14 14 15 15 14 14 14 14 15 15 15 15
17 17 17 16 15 15 15 15 14 13 13 12 13 13 13 13 13 13 13 13 13 13 13 13 13 12 12 12 13 13 13 13 14 14 13 13 14 14 13 13 14 14 14
16 17 16 15 15 15 14 13 13 12 11 11 12 13 12 12 12 13 12 12 11 11 11 11 11 11 10 10 11 12 12 12 12 12 12 12 12 12 12 12 13 13 13
16 16 15 14 14 13 13 12 12 11 10 10 11 12 12 11 11 12 11 11 11 10 10 10 10 10 9 9 9 10 10 11 11 11 11 11 12 12 12 12 12 12 13
15 15 14 13 12 12 11 10 10 10 10 9 9 10 12 11 10 11 10 10 10 9 9 9 9 9 8 9 9 8 9 10 10 10 11 11 10 11 11 11 12 12 12
14 14 13 13 12 11 10 9 9 9 8 8 7 6 5 8 10 12 10 9 9 9 9 8 8 8 8 8 8 8 7 8 8 9 9 10 9 9 10 10 10 11 11
13 13 12 12 11 10 9 8 8 7 7 7 7 6 4 4 4 8 9 8 8 7 7 6 6 7 7 7 7 7 7 7 7 8 8 8 8 8 9 9 10 10 11
12 12 11 10 10 9 8 8 7 7 6 5 7 6 6 5 3 3 6 6 6 5 5 5 6 6 6 6 6 6 6 6 7 7 7 7 7 7 8 8 8 9 10
11 11 10 10 9 8 8 7 7 6 6 5 4 4 4 4 5 1 2 3 4 4 4 4 5 5 5 5 5 5 5 5 5 6 6 6 6 6 7 7 7 8 8
10 10 9 9 8 8 7 7 6 6 5 5 4 4 3 2 2 1 1 2 2 3 3 3 4 4 5 5 5 4 4 4 4 4 4 5 5 5 6 6 6 7 7
10 9 8 8 7 7 6 6 5 5 4 4 3 3 3 2 2 1 1 1 1 1 2 2 3 3 4 4 4 4 3 3 3 3 3 4 4 4 4 4 5 5 6
9 9 8 7 7 6 6 5 5 4 4 3 3 2 2 2 1 0 -0 -1 -1 0 1 1 1 2 2 2 2 2 2 2 2 2 2 3 3 3 3 4 4 5 5
8 8 7 6 6 5 5 5 4 4 3 3 3 2 2 1 0 -0 -1 -1 -2 -2 -1 0 1 1 1 1 1 1 1 0 1 1 2 2 2 2 2 3 3 3 4
7 7 6 6 5 5 4 4 4 3 3 3 2 2 1 0 -0 -1 -1 -2 -2 -2 -2 -1 -0 -0 0 -0 -0 0 -0 -0 -0 -0 0 1 1 1 1 2 2 2 2
7 6 6 5 5 4 4 3 3 3 2 2 2 1 1 0 -1 -1 -2 -2 -2 -2 -2 -1 -1 -1 -1 -1 -1 -1 -1 -2 -2 -1 -1 -0 -0 0 1 1 1 1 2
6 5 5 4 4 4 3 3 2 2 2 1 1 1 0 -0 -1 -1 -2 -2 -2 -2 -2 -2 -1 -1 -1 -1 -2 -2 -3 -2 -2 -2 -2 -1 -1 -0 0 0 1 1 1
5 5 4 4 3 3 2 2 1 1 1 1 1 0 0 -1 -1 -1 -1 -2 -2 -2 -2 -2 -2 -2 -2 -2 -2 -3 -3 -3 -3 -3 -2 -2 -2 -1 -1 -0 -0 0 -0
4 4 3 3 2 2 2 1 1 1 1 0 -0 -0 -1 -1 -1 -1 -2 -1 -2 -2 -2 -2 -2 -2 -2 -3 -3 -3 -3 -3 -4 -4 -4 -4 -3 -2 -2 -2 -1 -1 -1
4 3 3 2 2 1 1 1 1 0 -1 -1 -1 -2 -2 -2 -2 -1 -1 -1 -2 -2 -2 -3 -2 -3 -3 -3 -3 -4 -4 -4 -4 -4 -4 -4 -4 -4 -4 -3 -3 -3 -2
3 2 2 1 1 0 0 0 0 -1 -2 -2 -3 -3 -2 -2 -2 -2 -2 -2 -1 -1 -2 -3 -4 -3 -4 -4 -4 -4 -5 -5 -5 -4 -4 -4 -4 -5 -4 -4 -4 -3 -2
2 2 1 0 0 -0 -1 -0 -1 -1 -2 -3 -3 -3 -3 -3 -3 -3 -3 -3 -3 -3 -3 -3 -4 -4 -4 -4 -5 -5 -5 -5 -5 -4 -5 -5 -5 -5 -5 -5 -4 -3 -3
1 1 0 -0 -1 -1 -2 -1 -1 -2 -2 -2 -2 -3 -3 -3 -3 -3 -3 -4 -4 -4 -4 -4 -4 -4 -4 -4 -4 -5 -5 -5 -5 -5 -5 -6 -5 -5 -5 -5 -5 -4 -3
0 0 -1 -1 -2 -2 -2 -2 -2 -2 -2 -2 -3 -3 -3 -3 -3 -2 -3 -3 -4 -5 -5 -4 -4 -4 -5 -5 -5 -5 -6 -6 -6 -5 -5 -6 -6 -6 -5 -5 -5 -4 -3
-0 -1 -1 -2 -2 -3 -3 -3 -2 -2 -2 -3 -3 -3 -3 -3 -3 -3 -3 -4 -6 -5 -5 -5 -6 -6 -6 -6 -5 -6 -6 -6 -6 -6 -5 -6 -6 -5 -5 -4 -4 -4 -4

GFSMA_925_temp_006.txt.gz
Temp
16 16 17 17 17 16 16 16 16 16 15 15 15 15 14 14 14 14 14 14 14 14 14 14 14 14 15 15 15 15 15 15 15 15 15 15 15 15 15 15 15 15 15
17 17 16 16 16 15 15 15 15 15 14 14 14 14 13 13 13 13 13 14 14 14 12 12 13 13 14 14 14 14 14 14 14 15 15 14 14 14 15 15 15 15 15
16 17 16 15 15 15 15 14 14 14 14 14 14 13 13 12 13 13 13 13 13 13 13 11 11 11 11 12 13 13 13 13 14 14 14 13 13 14 14 13 13 14 14
16 16 16 15 15 15 14 14 13 13 12 12 13 13 12 12 12 12 12 12 12 12 11 11 11 10 10 10 11 11 12 12 12 12 12 12 13 12 13 13 13 13 13
16 16 16 15 14 14 14 13 12 11 11 11 12 12 11 11 11 12 12 11 11 11 11 10 10 10 9 9 9 10 10 11 11 12 12 11 12 12 12 12 12 12 12
16 16 15 14 13 13 12 12 11 10 9 9 11 12 11 11 10 11 10 10 10 10 10 9 9 9 8 8 7 8 9 9 10 11 10 11 11 11 11 11 11 12 12
15 15 14 13 12 12 10 10 10 10 8 8 9 10 11 10 10 10 11 9 9 9 9 9 8 8 8 7 7 7 7 8 9 10 9 10 10 10 10 10 11 11 11
14 14 13 13 11 11 10 9 9 8 8 7 6 5 3 7 9 11 10 9 10 9 9 7 7 7 7 6 7 6 6 7 8 8 8 9 9 9 9 9 10 10 10
13 13 12 11 11 10 9 8 7 7 6 7 6 6 3 3 2 7 9 8 7 6 5 5 5 6 6 6 6 5 6 6 7 7 8 8 8 8 8 8 9 9 9
12 12 11 11 10 9 8 7 7 6 6 5 6 5 5 4 2 1 5 5 4 3 3 3 4 4 4 5 5 5 5 5 6 6 7 7 7 7 7 8 8 9 9
11 11 10 10 9 8 8 7 6 6 5 4 4 3 3 3 3 1 1 1 2 2 2 2 2 3 4 4 4 4 4 5 5 5 5 5 6 6 6 7 7 8 8
10 10 9 9 8 8 7 6 6 5 5 4 3 3 2 2 1 0 -1 0 0 1 1 1 2 2 3 3 3 3 3 3 4 4 4 4 5 5 6 6 6 7 7
9 9 8 8 7 7 6 6 5 5 4 4 3 3 2 2 1 1 -0 -1 -1 -0 0 0 1 1 1 2 2 2 2 2 2 2 3 3 4 4 4 4 5 5 5
9 8 8 7 6 6 5 5 5 4 4 3 3 2 2 2 1 0 -1 -2 -2 -2 -0 -0 -0 0 1 0 0 1 1 1 1 1 2 2 2 3 3 3 3 4 4
8 7 7 6 6 5 5 4 4 4 3 3 2 2 1 1 1 -0 -1 -1 -3 -3 -2 -1 -1 -1 -1 -1 -1 -0 -0 -1 0 1 1 1 1 1 1 2 2 2 2
7 7 6 6 5 4 4 4 4 3 3 2 2 1 1 1 0 -0 -1 -2 -2 -3 -3 -2 -2 -2 -2 -2 -2 -1 -1 -1 -1 -1 -0 0 0 1 0 1 1 1 2
6 6 5 5 4 4 3 3 3 2 2 2 1 1 1 1 0 -1 -1 -2 -2 -3 -4 -3 -2 -2 -2 -2 -2 -2 -2 -2 -2 -3 -1 -1 -1 -1 -0 0 0 1 1
6 5 5 4 4 3 3 3 2 2 1 1 1 0 -0 -0 -1 -1 -1 -2 -2 -2 -3 -3 -3 -2 -2 -2 -2 -3 -3 -3 -3 -3 -2 -2 -1 -1 -1 -1 -1 -0 -0
5 4 4 3 3 3 2 2 1 1 0 -0 -1 -1 -1 -2 -2 -2 -2 -3 -3 -3 -3 -3 -3 -2 -2 -3 -3 -3 -3 -3 -3 -3 -3 -3 -3 -2 -2 -2 -1 -1 -1
4 4 3 2 2 2 2 1 1 0 -0 -1 -2 -2 -2 -2 -3 -2 -2 -2 -2 -2 -3 -3 -3 -3 -3 -3 -3 -3 -4 -4 -4 -4 -4 -4 -3 -3 -3 -3 -2 -2 -2
3 3 2 2 2 1 1 0 0 -0 -1 -2 -2 -2 -3 -3 -3 -2 -2 -2 -2 -3 -3 -3 -3 -3 -3 -3 -4 -4 -4 -4 -4 -4 -4 -4 -4 -4 -4 -4 -4 -4 -4
2 2 2 1 1 0 -0 -0 0 -0 -1 -2 -3 -3 -3 -3 -3 -3 -3 -2 -2 -3 -4 -3 -4 -4 -4 -5 -5 -5 -5 -5 -5 -4 -4 -5 -5 -5 -5 -5 -5 -4 -3
2 1 1 0 0 -1 -1 -1 -1 -1 -2 -2 -2 -3 -3 -3 -3 -3 -3 -3 -4 -3 -3 -3 -4 -5 -5 -5 -5 -5 -5 -5 -5 -5 -5 -5 -5 -5 -5 -5 -5 -4 -3
1 1 0 -0 -1 -1 -2 -2 -2 -2 -2 -2 -2 -3 -3 -3 -3 -3 -3 -4 -4 -4 -4 -4 -4 -5 -5 -4 -5 -5 -5 -6 -5 -5 -5 -6 -5 -6 -5 -5 -5 -4 -4
0 -0 -1 -1 -2 -2 -3 -3 -2 -2 -2 -2 -2 -3 -3 -3 -3 -3 -3 -3 -4 -5 -5 -5 -4 -5 -5 -5 -5 -5 -6 -6 -6 -5 -5 -6 -6 -6 -6 -5 -5 -4 -3
-1 -1 -1 -2 -3 -3 -3 -3 -3 -3 -3 -3 -3 -3 -3 -3 -3 -3 -3 -4 -6 -5 -6 -6 -6 -6 -7 -7 -6 -6 -6 -7 -6 -6 -5 -6 -6 -6 -5 -4 -4 -5 -5

GFSMA_925_temp_009.txt.gz
Temp
16 16 17 16 16 16 16 16 15 15 15 14 14 14 14 14 14 14 13 14 13 13 13 13 13 14 14 14 14 14 14 14 14 15 15 15 15 15 15 15 15 15 15
16 16 16 16 16 15 15 15 14 14 14 13 13 13 13 13 13 13 13 13 13 12 11 11 11 12 12 12 13 13 13 13 14 14 14 14 14 14 14 14 14 14 14
16 16 16 16 15 15 14 14 13 13 13 13 13 12 12 12 12 12 12 12 12 12 11 10 10 10 10 11 11 11 12 12 12 12 13 13 13 13 13 13 13 13 13
16 16 16 15 14 14 14 13 13 12 12 12 12 12 11 11 11 11 11 11 11 11 11 11 10 10 9 9 10 10 11 11 11 11 12 12 12 12 12 13 12 13 13
16 16 15 14 14 14 13 12 12 11 11 11 12 10 11 10 10 10 10 11 10 10 10 10 10 10 9 8 8 9 9 10 10 10 11 11 11 11 12 12 12 12 12
16 16 15 14 13 13 13 12 11 10 9 10 11 10 10 10 10 10 10 10 9 9 9 9 8 8 9 8 7 7 8 8 9 9 11 10 10 11 11 11 11 11 12
15 15 14 13 13 13 11 11 10 9 7 9 8 10 9 10 9 10 10 9 8 8 8 7 7 6 6 7 7 6 7 7 8 8 10 9 9 10 10 10 10 11 11
14 14 14 13 12 11 10 10 9 8 6 7 7 6 9 10 9 9 8 8 8 7 8 7 7 6 5 5 5 5 5 6 7 8 8 9 9 9 10 10 10 10 10
13 13 12 12 11 10 9 9 8 8 6 5 6 7 9 8 6 7 8 6 6 5 5 4 4 4 4 4 4 4 4 4 5 7 7 8 8 8 9 9 9 9 10
12 12 12 11 10 9 8 7 7 7 6 5 5 4 4 5 6 7 6 6 4 4 3 3 3 3 3 3 3 3 3 4 5 6 6 7 7 7 8 8 8 9 9
11 11 10 10 9 9 8 7 6 6 5 4 4 3 3 3 3 4 5 5 4 3 3 2 2 2 2 2 2 2 3 3 4 5 5 5 6 6 7 7 8 8 8
10 9 9 9 8 8 7 7 6 5 5 4 3 3 2 3 4 3 3 4 3 3 2 1 2 2 2 2 1 1 1 2 2 3 4 4 5 5 5 5 5 6 6
9 8 8 8 7 7 6 6 5 5 4 4 3 2 2 2 1 1 1 2 2 2 2 2 1 1 1 0 1 0 0 1 1 1 2 3 3 4 4 4 4 4 4
9 8 8 7 7 6 6 5 5 4 4 3 3 2 2 1 1 1 1 0 2 3 3 2 1 0 -0 -0 -1 -1 -0 -0 0 0 1 2 2 2 2 2 2 2 2
8 7 7 7 6 5 5 5 4 4 3 3 2 2 1 1 1 -0 -0 -1 -0 1 1 1 0 -0 -1 -1 -1 -1 -1 -1 -1 -0 0 1 1 1 1 1 2 2 2
8 7 6 6 5 5 5 4 4 3 3 2 1 1 0 -0 -0 -1 -1 -1 -1 -1 0 0 -0 -1 -1 -1 -1 -1 -1 -1 -1 -1 -1 -0 -0 0 0 1 1 1 1
7 6 6 5 5 4 4 4 3 2 2 1 1 -0 -1 -1 -1 -1 -1 -1 -2 -2 -1 -1 -1 -1 -1 -1 -1 -1 -2 -2 -2 -2 -1 -1 -1 -1 -1 -1 -1 -0 -0
6 5 5 4 4 4 3 3 2 2 1 0 -0 -1 -2 -2 -2 -2 -2 -2 -2 -2 -2 -1 -2 -2 -1 -1 -2 -2 -2 -2 -2 -2 -2 -2 -2 -1 -1 -1 -2 -1 -1
5 4 4 4 3 3 3 2 1 1 0 -0 -1 -2 -2 -3 -3 -3 -3 -2 -2 -2 -2 -2 -2 -2 -2 -2 -3 -2 -2 -3 -3 -3 -3 -3 -3 -2 -2 -2 -2 -2 -1
4 4 3 3 3 2 2 1 0 0 -0 -1 -1 -2 -3 -3 -3 -3 -3 -2 -2 -2 -2 -2 -2 -3 -2 -2 -3 -3 -3 -3 -3 -3 -3 -3 -3 -3 -3 -3 -3 -2 -2
4 3 3 2 2 2 1 -0 0 -0 -1 -1 -2 -2 -3 -3 -3 -2 -2 -2 -2 -2 -2 -3 -3 -3 -3 -3 -3 -3 -3 -4 -4 -4 -4 -4 -3 -4 -4 -4 -4 -4 -3
3 2 2 2 1 1 -0 -0 -0 -1 -1 -2 -2 -3 -3 -3 -3 -3 -3 -3 -2 -2 -3 -3 -3 -3 -3 -3 -4 -4 -4 -4 -3 -3 -4 -4 -4 -4 -4 -4 -4 -4 -3
2 1 1 1 -0 -0 -2 -1 -1 -1 -2 -2 -3 -3 -3 -3 -3 -4 -3 -3 -3 -3 -3 -3 -3 -4 -4 -4 -5 -5 -4 -4 -4 -4 -4 -4 -4 -4 -4 -4 -4 -4 -4
1 1 0 -1 -1 -1 -2 -2 -2 -2 -3 -3 -2 -3 -3 -3 -4 -3 -3 -3 -4 -4 -4 -4 -4 -4 -4 -4 -4 -5 -5 -5 -5 -5 -4 -4 -4 -4 -4 -5 -4 -4 -4
0 -0 -1 -1 -2 -2 -3 -3 -3 -3 -3 -3 -3 -3 -3 -3 -3 -2 -3 -4 -3 -4 -4 -4 -4 -4 -5 -5 -5 -5 -5 -6 -5 -5 -5 -5 -4 -4 -5 -4 -4 -4 -3
-1 -1 -1 -2 -3 -3 -3 -4 -3 -3 -3 -3 -3 -3 -4 -3 -3 -3 -3 -3 -4 -5 -5 -5 -5 -6 -6 -6 -6 -6 -6 -7 -6 -6 -4 -5 -5 -5 -4 -3 -3 -4 -4

GFSMA_925_temp_012.txt.gz
Temp
18 17 16 16 16 16 16 16 16 15 15 15 15 14 14 14 15 14 13 13 12 12 12 12 13 12 13 13 13 13 13 13 13 14 14 14 14 14 15 15 15 15 15
17 16 17 16 15 15 15 15 15 14 14 14 14 14 14 13 14 13 13 11 12 11 11 11 11 11 11 12 12 12 12 12 12 12 13 13 13 13 14 14 14 14 14
17 16 16 15 14 14 14 14 14 13 14 14 14 13 13 13 13 13 13 12 12 11 11 11 10 10 10 10 11 11 11 11 11 11 11 12 12 13 13 13 13 13 13
16 16 15 14 14 13 13 13 13 13 13 13 13 13 13 12 12 12 12 12 11 11 10 11 11 11 11 10 10 10 10 10 10 10 10 11 12 12 12 12 13 13 13
16 16 14 14 13 13 12 12 12 12 12 12 12 13 12 12 12 12 12 11 10 10 10 9 9 9 9 9 8 9 9 9 9 9 10 10 11 11 11 12 12 12 12
15 14 13 13 12 12 12 12 11 11 10 11 12 12 12 12 11 11 11 11 10 9 9 9 9 9 7 7 7 7 7 8 8 8 9 9 11 11 10 11 11 12 12
14 14 13 12 12 12 11 11 10 10 10 10 12 13 12 11 11 11 11 11 10 9 9 9 8 8 8 7 7 6 6 7 7 7 8 9 10 10 10 10 11 11 11
14 13 13 12 11 11 10 10 10 10 10 9 10 11 14 14 12 11 11 10 10 9 9 8 7 7 7 7 6 5 5 5 6 6 7 8 9 9 9 10 10 11 11
13 12 12 11 10 10 9 9 9 9 10 9 8 10 13 13 11 11 11 10 10 9 8 7 6 6 6 6 5 5 4 4 5 5 6 7 8 8 9 9 9 10 10
11 11 11 10 10 9 8 8 8 8 8 9 8 7 7 8 10 11 10 10 8 7 7 6 6 6 5 5 5 4 3 3 3 4 5 6 7 7 8 8 9 9 9
10 10 9 9 9 8 8 7 7 7 7 7 7 7 7 7 7 8 9 10 8 8 7 6 5 5 5 4 4 4 2 2 2 3 4 5 5 6 7 7 7 8 8
9 8 8 8 8 7 7 6 6 6 6 6 6 5 6 7 7 7 7 8 7 7 6 5 5 4 4 4 3 2 1 1 1 2 3 3 4 5 5 6 6 6 6
9 8 8 8 7 6 6 6 6 5 5 5 5 5 5 5 5 5 5 6 6 6 6 5 5 4 3 3 2 1 1 1 1 1 2 2 3 3 3 4 4 4 5
9 8 7 7 6 6 5 5 5 5 5 5 4 4 4 4 4 4 4 4 5 6 6 6 5 4 3 2 1 1 1 1 1 1 1 1 2 2 2 2 3 2 2
8 7 7 6 6 5 5 5 5 5 4 4 4 4 3 3 3 3 3 3 3 4 4 5 4 3 2 1 1 1 1 1 0 0 0 0 1 1 1 1 1 1 2
7 7 6 6 5 5 5 4 5 4 4 4 3 3 3 3 2 2 2 2 2 2 3 3 3 2 1 1 1 1 1 0 0 -0 -0 -0 0 0 0 0 1 1 1
7 6 6 5 5 5 4 4 4 4 3 3 3 2 1 1 1 1 1 1 1 1 2 2 1 1 1 1 1 1 0 -0 -1 -0 -0 -1 -1 -1 -1 -1 -0 -0 0
6 5 5 5 4 4 4 4 4 3 3 3 2 1 1 1 0 1 0 0 0 0 0 1 0 0 0 0 0 -0 -0 -0 -0 -1 -1 -1 -1 -1 -1 -1 -1 -1 -1
5 4 4 4 4 3 3 3 3 3 2 2 1 1 0 0 0 0 -0 -0 -0 0 -0 -0 0 0 0 -1 -1 -1 -1 -1 -1 -1 -1 -1 -1 -1 -1 -1 -1 -1 -1
4 4 4 3 2 2 2 2 2 2 2 1 1 0 -0 -1 -1 -1 -1 -0 0 -0 -0 -0 -0 -1 -1 -1 -1 -0 -1 -1 -1 -2 -2 -2 -2 -2 -1 -1 -1 -1 -2
3 3 3 2 2 2 2 1 2 2 2 1 1 0 -0 -1 -2 -2 -1 -1 -1 -1 -1 -1 -1 -1 -1 -0 -1 -1 -2 -2 -2 -2 -2 -2 -1 -2 -2 -2 -2 -2 -2
2 2 2 1 1 1 0 -1 -0 1 1 1 0 -0 -0 -1 -1 -2 -2 -2 -2 -3 -2 -2 -2 -1 -1 -1 -2 -2 -3 -3 -2 -2 -2 -2 -2 -2 -2 -2 -2 -2 -2
2 2 1 1 1 0 -1 -1 -1 -0 0 -0 -1 -1 -1 -1 -1 -2 -2 -2 -2 -2 -2 -2 -2 -2 -2 -2 -3 -4 -3 -3 -3 -3 -3 -3 -2 -2 -2 -2 -2 -2 -2
2 1 1 0 -0 -1 -2 -2 -2 -1 -0 -1 -1 -1 -1 -1 -2 -2 -2 -3 -3 -2 -2 -2 -3 -3 -4 -4 -4 -4 -4 -4 -4 -3 -3 -2 -3 -2 -2 -3 -3 -2 -2
1 0 -0 -0 -1 -0 -3 -3 -2 -1 -1 -1 -1 -1 -1 -2 -2 -2 -3 -3 -2 -2 -2 -3 -3 -3 -3 -4 -4 -4 -5 -4 -3 -3 -4 -3 -2 -3 -3 -3 -2 -1 -1
-0 -0 -1 -1 -2 -2 -2 -3 -3 -2 -1 -1 -1 -1 -2 -2 -2 -3 -3 -3 -3 -3 -4 -4 -3 -4 -4 -4 -4 -4 -5 -5 -5 -4 -3 -4 -4 -4 -3 -2 -1 -2 -2

GFSMA_925_temp_015.txt.gz
Temp
19 19 19 18 18 17 17 17 17 17 17 16 16 16 16 16 16 16 14 13 12 12 12 12 12 12 12 12 12 12 12 12 12 12 12 13 13 13 14 14 14 14 14
19 18 17 17 17 17 16 16 16 16 16 16 16 16 15 15 15 15 15 13 12 12 11 11 11 11 11 11 12 12 11 11 11 12 12 12 12 13 13 13 13 13 14
18 16 16 16 16 16 16 15 15 15 15 15 15 15 15 14 14 14 14 13 12 12 12 12 12 11 11 10 11 11 11 11 11 11 11 11 11 12 12 13 13 13 13
17 16 16 16 16 15 15 14 14 14 14 14 14 15 14 14 14 14 13 13 12 12 12 11 11 11 11 10 9 10 10 10 10 10 10 10 10 11 12 12 12 12 13
17 17 16 15 15 14 14 14 13 13 13 13 13 14 13 13 14 13 13 12 11 11 10 10 10 10 9 8 8 8 9 8 9 9 9 9 10 10 11 12 11 12 12
16 16 15 15 14 14 13 13 13 12 11 12 13 14 13 13 13 13 13 12 12 10 10 10 9 9 9 8 8 8 7 7 8 8 8 8 9 9 11 11 11 11 11
15 15 14 14 14 13 13 13 12 12 11 11 13 14 14 13 13 13 13 12 12 11 10 10 9 8 8 8 8 7 6 7 7 7 7 8 8 9 10 10 10 11 11
14 14 14 13 13 12 12 11 11 12 11 10 11 13 14 14 13 13 13 12 11 10 10 9 8 8 7 7 7 6 6 5 5 6 6 7 7 8 9 9 10 10 10
14 13 13 12 12 11 11 10 10 10 11 10 9 11 13 14 11 13 12 11 11 10 9 9 8 7 7 6 6 6 5 4 4 5 5 6 7 7 8 8 9 9 10
13 12 12 11 11 10 10 9 9 9 10 10 10 9 9 9 10 10 12 11 11 9 9 8 7 7 6 6 6 5 5 4 3 4 4 5 5 6 7 7 8 9 9
12 11 11 11 10 10 9 9 9 9 8 9 8 8 9 9 9 9 8 10 9 9 8 8 7 6 6 6 5 4 4 3 3 3 3 4 5 5 6 6 7 7 8
11 11 10 10 9 9 8 8 8 7 7 7 7 7 7 8 8 8 8 8 8 8 8 7 7 6 6 5 4 4 3 2 2 2 3 3 4 4 5 5 5 5 6
10 10 10 9 9 8 8 7 7 7 7 7 7 7 6 6 6 6 6 6 6 6 6 7 7 7 6 5 4 3 2 2 2 2 2 3 3 3 3 3 4 4 4
10 9 9 9 8 8 7 7 7 7 6 6 6 5 5 5 5 5 5 5 4 5 6 6 6 6 5 4 3 3 2 2 2 2 2 2 2 2 2 2 2 2 3
10 9 9 8 8 7 7 7 7 7 6 6 5 5 5 5 4 4 4 3 4 3 4 5 5 5 4 3 3 2 1 1 2 2 1 1 1 1 1 2 2 2 2
9 9 8 8 7 7 7 6 6 6 5 6 5 4 4 4 4 3 3 3 3 3 2 3 3 3 3 2 2 1 1 1 1 1 1 1 1 1 1 1 1 1 1
9 8 8 7 7 7 6 6 6 6 5 5 5 4 3 3 2 2 2 2 2 2 2 2 2 2 1 1 1 1 1 0 0 1 0 0 0 0 0 0 0 0 0
8 8 7 7 6 6 5 6 6 5 5 4 4 3 3 3 2 2 2 2 1 1 1 1 1 1 1 1 1 -0 -0 0 -0 0 0 0 0 0 0 0 0 -0 0
7 7 6 6 6 5 5 5 4 4 4 4 3 3 2 2 1 1 1 1 1 1 1 1 1 0 0 0 -1 -0 -0 0 -0 -0 -1 -1 -1 -1 -0 -0 0 0 0
6 6 5 5 4 4 3 3 3 4 4 3 3 2 2 1 1 0 -1 -1 -0 -0 -0 -0 -1 -1 -1 -1 -0 -0 -0 -1 -1 -1 -2 -1 -1 -1 -1 -0 -1 -1 -1
5 5 4 4 3 3 3 2 2 2 3 3 2 2 2 1 -0 -1 -1 -1 -1 -1 -1 -2 -2 -1 -1 -1 -1 -1 -1 -2 -2 -2 -2 -2 -1 -2 -2 -2 -1 -1 -1
4 4 3 3 3 2 1 0 -0 0 1 2 2 1 1 0 0 -0 -1 -1 -1 -1 -2 -2 -2 -1 -1 -1 -2 -2 -3 -3 -3 -3 -2 -3 -3 -2 -2 -2 -1 -1 -1
4 3 3 2 2 2 1 -1 -1 -1 0 1 1 0 -0 0 -0 -1 -1 -1 -2 -2 -2 -2 -1 -1 -2 -2 -3 -3 -3 -3 -3 -3 -3 -3 -3 -3 -2 -2 -2 -1 -1
3 3 2 2 1 1 0 -1 -2 -1 0 0 0 0 -0 -0 -1 -1 -2 -2 -3 -3 -2 -1 -2 -2 -3 -3 -4 -4 -4 -4 -4 -4 -3 -4 -3 -3 -3 -2 -3 -2 -2
2 2 1 1 1 1 -0 -2 -2 -1 -0 -0 0 -0 -0 -1 -1 -1 -2 -3 -3 -2 -2 -2 -3 -3 -3 -2 -3 -3 -4 -4 -4 -3 -4 -4 -4 -3 -4 -4 -3 -1 -0
1 1 1 1 0 -0 -1 -2 -2 -2 -1 -1 -1 -1 -1 -1 -1 -1 -2 -3 -3 -3 -3 -4 -4 -3 -3 -3 -3 -3 -3 -5 -5 -5 -4 -4 -5 -5 -4 -3 -2 -3 -3

GFSMA_925_temp_018.txt.gz
Temp
18 19 18 18 17 18 17 17 17 17 16 16 16 16 15 15 15 15 14 14 12 12 12 12 12 12 12 12 12 12 12 12 12 12 12 12 12 12 13 13 13 13 14
19 18 18 17 17 17 17 16 16 16 15 15 15 15 15 15 15 14 14 14 13 12 12 11 11 11 11 11 11 11 11 11 11 11 11 11 11 11 12 12 13 13 13
19 18 18 17 17 16 16 16 15 15 15 15 15 15 15 14 14 14 13 13 13 12 12 12 11 10 10 10 10 10 10 10 10 10 10 10 10 11 11 11 12 12 12
19 18 17 16 16 16 15 15 15 14 14 13 14 14 14 14 14 14 13 12 12 11 11 11 10 10 9 9 9 10 10 9 9 9 9 10 10 10 10 11 12 12 12
18 17 16 16 15 15 15 14 14 13 13 13 13 14 13 13 14 13 13 12 12 11 11 10 10 9 9 9 9 9 9 8 8 8 8 9 9 9 10 10 11 11 11
17 16 16 15 15 15 14 13 13 12 12 12 13 13 13 13 13 13 13 12 12 11 10 10 9 9 9 8 8 8 8 8 8 7 8 8 8 8 9 10 10 11 11
16 15 15 15 14 14 13 13 12 12 12 12 13 13 13 13 13 13 13 12 12 11 10 10 9 8 8 7 7 7 7 7 6 7 7 7 7 8 8 9 9 10 10
15 15 15 14 14 14 13 13 12 12 11 11 10 11 9 11 12 13 13 12 11 11 10 9 9 8 8 7 7 6 6 6 6 6 6 6 6 7 7 8 9 9 10
15 15 14 14 14 13 12 12 12 11 11 10 10 10 7 8 8 12 12 11 11 10 10 9 9 8 8 7 6 6 5 5 5 5 5 5 6 6 7 7 8 8 9
14 14 14 13 13 13 12 11 11 11 10 10 9 9 9 9 6 5 10 11 10 9 9 9 8 8 7 7 6 6 5 5 5 5 5 5 5 6 6 7 7 8 8
14 13 13 12 12 12 11 11 10 10 9 9 9 8 8 9 9 6 4 6 8 8 8 7 7 7 7 7 6 5 5 4 4 4 4 4 5 5 6 6 6 6 6
12 12 12 11 11 11 11 10 9 9 8 8 8 7 7 7 6 6 3 4 4 6 6 6 6 7 7 6 6 4 4 4 3 3 3 4 4 5 5 5 5 5 5
11 11 11 10 10 10 10 9 8 8 7 7 7 7 6 6 6 6 5 3 2 4 4 5 6 6 6 6 5 4 3 3 3 3 3 3 4 4 3 4 4 4 4
11 10 10 10 9 10 9 8 8 7 7 6 6 6 5 5 5 5 4 3 2 2 3 4 4 4 4 4 3 3 2 2 2 2 2 3 3 2 2 2 3 3 3
10 10 10 9 9 9 8 8 7 7 6 6 6 5 5 5 5 4 4 3 2 1 1 3 3 3 3 2 2 2 2 1 1 1 2 2 2 2 2 2 2 2 2
10 9 9 8 8 8 7 7 7 6 6 6 6 5 4 4 4 3 3 2 2 2 -0 2 1 1 1 1 1 1 1 1 1 1 1 1 1 1 1 1 1 1 1
10 9 8 8 8 7 7 6 6 6 5 5 5 4 4 3 3 2 2 2 2 1 -0 0 0 1 1 1 1 0 0 -0 -0 -0 0 0 1 1 1 1 1 1 1
9 8 8 7 7 7 6 6 6 5 5 5 4 4 3 3 2 2 1 1 1 1 0 -1 -0 -0 -0 -0 -1 -1 -1 -1 -1 -0 -0 0 -0 -0 -0 0 0 0 0
8 7 7 7 6 6 5 5 5 4 4 4 4 3 3 2 2 1 1 0 -1 -1 -1 -1 -2 -1 -2 -2 -2 -1 -1 -1 -1 -1 -1 -1 -1 -1 -1 -0 0 0 0
7 7 6 6 5 5 4 4 3 3 3 3 3 3 2 2 1 1 -0 -0 -1 -1 -1 -2 -2 -3 -3 -2 -2 -2 -2 -2 -2 -3 -3 -3 -2 -2 -2 -1 -1 -1 -1
6 6 5 5 4 4 3 3 3 2 2 2 2 2 2 1 1 0 0 -0 -0 -1 -2 -3 -2 -2 -3 -2 -2 -2 -3 -3 -3 -3 -3 -3 -3 -3 -3 -3 -3 -2 -2
5 5 4 4 3 3 3 2 0 1 0 0 1 1 1 0 -0 0 -0 -0 -0 -1 -2 -2 -3 -3 -2 -2 -3 -3 -4 -4 -4 -3 -3 -4 -4 -4 -4 -4 -3 -2 -2
4 4 3 3 2 2 2 1 -1 -1 -0 -0 0 0 0 -0 -0 -1 -1 -1 -1 -2 -2 -2 -3 -3 -3 -3 -3 -4 -4 -4 -4 -4 -4 -4 -4 -4 -4 -4 -3 -3 -2
3 3 3 2 2 1 1 0 -1 -1 -1 -1 -0 -0 -0 -0 -0 -1 -1 -1 -2 -3 -3 -3 -3 -3 -3 -3 -4 -4 -3 -4 -4 -4 -4 -4 -4 -4 -4 -4 -4 -3 -3
3 2 2 2 1 1 -0 -1 -2 -2 -2 -1 -1 -1 -1 -1 -1 -1 -1 -2 -3 -3 -4 -3 -3 -3 -3 -3 -3 -3 -4 -4 -4 -4 -4 -5 -5 -5 -5 -5 -4 -3 -3
2 2 1 1 1 0 -0 -1 -2 -3 -3 -2 -2 -2 -2 -2 -2 -1 -1 -2 -3 -4 -4 -4 -4 -4 -4 -4 -4 -4 -4 -6 -6 -5 -4 -5 -5 -6 -5 -4 -3 -4 -4

GFSMA_925_temp_021.txt.gz
Temp
18 18 18 17 17 17 17 17 17 17 16 16 16 15 15 15 15 14 14 14 13 12 12 12 12 12 12 12 12 12 12 11 11 11 11 11 11 11 12 12 13 13 13
18 18 17 17 17 17 17 17 17 16 16 15 15 15 15 15 14 14 13 13 13 12 11 11 11 11 11 11 11 11 11 11 10 10 10 11 11 10 11 11 12 12 12
18 18 18 17 17 17 17 16 16 15 15 15 15 14 14 14 14 13 13 13 12 12 11 11 10 10 10 10 10 10 10 10 9 9 10 10 10 10 10 10 11 12 12
18 18 18 17 17 16 16 16 16 15 14 14 14 14 14 14 14 13 13 12 12 12 11 11 10 10 10 10 10 10 9 9 9 9 9 9 9 9 10 10 10 11 12
18 18 18 17 16 16 16 15 15 14 14 14 14 14 13 13 13 13 13 12 12 12 11 10 10 10 10 9 9 9 9 8 8 8 8 8 8 8 9 9 10 10 11
19 18 17 16 16 16 15 15 14 13 13 13 13 13 13 13 13 13 12 12 12 11 11 10 10 10 9 8 8 8 8 8 8 7 7 7 7 8 8 9 9 9 10
19 17 16 16 15 16 15 14 13 13 13 13 13 13 13 13 13 13 12 12 11 11 10 10 10 9 9 8 8 7 7 7 7 7 7 7 7 7 7 8 8 9 9
18 17 16 16 15 15 14 14 13 12 11 12 12 10 8 11 12 12 12 12 11 11 10 9 9 8 8 8 7 7 6 6 6 6 6 6 6 7 7 8 8 8 9
16 16 16 15 15 15 14 13 13 13 11 10 11 10 8 8 7 11 11 10 10 9 9 9 8 8 8 7 7 7 6 5 6 6 6 6 6 6 7 7 8 8 8
15 15 15 15 14 14 14 13 12 12 11 10 10 10 9 9 6 6 9 10 9 9 9 8 8 7 7 7 7 6 6 5 5 5 5 5 6 6 7 7 7 7 7
14 15 14 14 13 13 13 13 12 11 11 10 9 9 8 8 8 5 4 6 8 8 7 7 6 6 6 6 6 6 5 5 5 5 5 5 5 6 6 7 7 6 6
13 14 14 13 13 12 13 12 11 10 10 9 8 8 8 7 6 5 2 2 3 5 5 6 5 5 5 5 5 4 4 4 4 4 4 4 4 5 5 5 5 5 5
12 13 13 13 12 12 11 11 10 10 9 8 8 7 7 6 6 5 4 3 1 4 4 4 4 4 4 3 3 3 2 2 3 3 3 3 4 4 4 4 4 4 4
11 12 12 11 11 11 10 10 9 9 8 8 7 6 6 6 5 5 4 3 -0 1 3 3 3 3 3 3 2 2 1 1 1 2 2 2 2 2 2 2 3 3 3
11 11 11 10 10 10 9 9 8 8 7 7 6 6 5 5 4 4 3 3 1 -1 0 1 2 2 1 1 1 1 1 0 1 1 1 1 1 1 1 2 2 2 2
10 11 10 10 9 9 8 8 7 7 7 6 6 5 5 4 4 3 3 2 2 1 -2 1 0 0 0 -0 -0 -0 -0 -1 -1 -0 0 0 1 1 1 1 1 2 1
10 10 9 8 8 8 7 7 7 6 6 6 5 5 4 4 3 3 2 2 1 1 -2 -1 -1 -1 -1 -1 -1 -1 -1 -1 -1 -1 -1 -0 0 0 0 1 1 1 1
9 9 8 8 8 7 7 7 6 6 5 5 4 4 4 3 3 2 1 1 0 0 -1 -2 -2 -2 -2 -2 -2 -2 -2 -2 -2 -2 -1 -1 -1 -1 -1 -0 0 0 1
8 7 8 7 7 6 6 6 5 5 4 4 4 3 3 2 2 2 1 0 -0 -0 -1 -1 -2 -2 -3 -3 -3 -3 -3 -3 -2 -2 -2 -2 -2 -2 -1 -1 -1 -1 -0
8 8 7 7 7 6 5 5 4 4 3 3 2 2 2 2 1 1 0 0 -0 -1 -1 -2 -3 -3 -3 -3 -3 -3 -3 -3 -3 -3 -3 -3 -3 -2 -2 -2 -2 -2 -2
7 7 6 6 5 5 4 4 3 3 2 2 2 1 1 1 1 0 0 0 -0 -1 -1 -2 -4 -3 -3 -3 -3 -3 -4 -3 -4 -4 -4 -3 -3 -4 -4 -4 -4 -3 -3
6 6 5 5 4 4 3 2 2 1 1 1 0 0 0 0 0 -0 -0 -0 -0 -1 -1 -2 -3 -3 -3 -4 -3 -4 -4 -4 -4 -3 -3 -4 -4 -4 -4 -4 -4 -3 -2
5 4 4 4 3 3 2 1 0 0 0 -0 -1 -1 -0 -0 -0 -1 -1 -1 -1 -1 -2 -2 -3 -4 -4 -4 -4 -4 -5 -4 -4 -4 -4 -5 -4 -5 -4 -4 -4 -4 -3
2 2 3 2 2 1 1 -0 -1 -1 -1 -1 -1 -1 -2 -1 -1 -1 -1 -1 -2 -2 -3 -3 -3 -3 -3 -4 -4 -4 -4 -4 -5 -5 -4 -5 -4 -4 -4 -5 -5 -4 -3
2 2 2 1 1 0 -0 -1 -1 -1 -2 -2 -2 -2 -2 -2 -2 -2 -1 -1 -2 -3 -3 -4 -3 -3 -3 -4 -4 -4 -5 -6 -6 -5 -5 -5 -5 -5 -5 -5 -4 -3 -3
2 2 1 1 1 0 -0 -1 -1 -2 -2 -2 -2 -2 -3 -3 -2 -2 -2 -2 -3 -3 -3 -3 -4 -4 -4 -5 -5 -5 -5 -6 -6 -6 -4 -5 -6 -6 -5 -4 -4 -4 -4

GFSMA_925_temp_024.txt.gz
Temp
18 17 17 17 17 16 17 17 17 16 16 16 16 15 15 15 14 14 13 13 13 12 12 12 12 12 12 12 12 11 11 11 11 11 11 11 11 11 11 11 11 12 13
18 17 17 17 16 16 17 17 17 16 16 15 15 15 15 14 14 13 13 13 13 12 11 11 11 11 11 11 11 11 10 10 10 10 10 10 10 10 10 11 11 11 12
18 18 17 16 16 17 17 17 16 16 15 15 15 14 14 14 13 13 13 13 12 12 11 11 10 10 10 10 11 10 10 9 9 9 9 9 9 9 10 10 10 11 11
18 18 17 17 17 17 17 16 16 15 15 15 14 14 14 13 13 13 12 12 12 12 11 11 10 10 10 10 10 10 9 9 9 8 8 8 8 9 9 9 9 10 10
18 18 17 17 17 17 16 16 16 15 15 14 14 14 13 13 13 13 12 12 12 11 11 11 10 10 10 9 9 9 9 9 8 8 8 8 8 8 8 9 9 9 10
18 18 17 17 17 16 16 15 15 14 14 13 13 13 13 13 13 12 12 12 11 11 11 10 10 10 9 9 8 8 8 8 8 8 7 7 7 8 8 8 8 9 9
19 18 17 17 16 16 16 15 14 14 13 13 13 12 12 12 12 12 12 12 11 11 10 9 9 9 8 8 8 7 7 7 7 7 7 7 7 7 7 8 8 9 9
19 18 18 17 16 16 15 15 15 13 12 12 12 10 8 11 12 11 11 11 10 10 9 9 8 8 7 7 7 7 7 7 7 7 7 7 7 7 7 8 8 9 9
19 18 18 17 16 15 15 15 14 14 12 11 11 11 6 8 7 10 10 10 10 9 9 8 8 7 7 6 6 6 6 6 6 6 6 7 7 7 7 7 8 8 9
18 18 17 17 16 15 15 15 14 14 13 11 10 10 10 9 6 7 9 9 9 9 8 8 7 7 6 6 6 6 5 5 6 6 6 6 6 6 7 7 7 8 8
17 17 16 16 15 15 14 14 14 13 13 12 11 9 9 8 8 5 5 6 8 8 8 7 6 5 5 5 5 4 4 4 5 5 5 5 5 6 6 6 7 7 7
15 15 15 15 14 14 14 13 12 12 12 11 10 10 9 7 6 5 2 2 3 5 6 6 5 4 4 3 3 3 2 3 3 3 4 4 5 5 5 5 6 5 6
13 13 14 14 13 13 12 12 11 11 11 10 9 8 8 7 7 6 4 3 1 3 4 4 4 4 3 3 3 2 1 1 2 2 3 3 3 3 4 4 4 4 5
12 12 12 13 12 12 11 11 10 10 9 9 8 7 7 6 6 5 4 3 -0 -0 2 3 3 3 2 2 1 0 0 0 0 1 1 2 2 2 2 2 2 3 3
11 11 12 12 11 10 10 10 10 9 8 8 7 7 6 5 5 4 4 3 2 -1 -2 1 2 2 1 -0 -1 -1 -1 -1 -1 -0 0 0 1 1 1 1 2 2 2
10 11 11 11 10 9 9 9 8 8 8 7 6 6 5 5 4 4 3 2 2 1 -2 0 1 0 -0 -1 -1 -1 -2 -2 -2 -1 -1 -0 -0 0 1 1 1 1 2
10 10 10 9 9 8 8 8 8 7 7 6 6 5 5 4 4 3 3 2 1 1 -3 -1 -1 -1 -1 -1 -2 -2 -2 -2 -2 -2 -2 -1 -1 -0 -0 0 0 0 1
9 9 9 9 8 8 7 6 6 6 6 5 5 4 4 4 3 2 2 1 1 1 -1 -3 -2 -1 -2 -2 -2 -2 -2 -2 -3 -3 -2 -2 -1 -1 -1 -1 -0 0 0
8 9 9 8 7 6 6 6 6 5 5 4 4 4 3 3 2 2 1 1 0 0 -1 -2 -3 -2 -2 -2 -3 -3 -3 -4 -3 -3 -3 -3 -2 -2 -2 -1 -1 -1 -1
7 7 7 6 5 4 5 5 5 4 4 3 3 2 2 2 1 1 0 0 -0 -1 -1 -1 -2 -3 -3 -3 -3 -4 -4 -4 -4 -4 -4 -4 -3 -3 -2 -2 -2 -2 -2
5 5 3 3 3 4 4 4 4 3 3 3 2 1 1 1 0 0 0 0 -0 -1 -1 -1 -3 -3 -4 -3 -4 -4 -5 -4 -4 -4 -3 -4 -3 -4 -4 -4 -4 -3 -3
3 3 4 3 3 3 3 3 3 2 2 1 1 0 0 -0 -0 -1 -0 -0 -0 -1 -1 -2 -3 -4 -4 -4 -4 -5 -5 -5 -4 -3 -4 -4 -4 -5 -4 -4 -4 -4 -3
3 3 2 3 2 2 1 1 1 1 0 -0 -1 -1 -1 -1 -1 -1 -1 -1 -1 -1 -1 -2 -3 -4 -4 -4 -4 -5 -5 -5 -5 -5 -5 -5 -5 -5 -5 -4 -4 -4 -3
1 1 1 1 0 -0 -0 -0 0 -0 -1 -1 -2 -2 -2 -2 -2 -2 -2 -2 -2 -2 -2 -3 -3 -3 -3 -4 -4 -4 -4 -5 -5 -5 -5 -6 -5 -5 -5 -5 -5 -4 -4
0 0 -0 -0 0 0 0 -0 -1 -1 -1 -2 -2 -2 -3 -3 -3 -2 -2 -2 -3 -3 -3 -3 -3 -3 -3 -3 -4 -4 -5 -6 -6 -6 -6 -6 -6 -5 -5 -5 -4 -3 -4
-0 0 1 1 1 0 -1 -1 -1 -2 -2 -2 -3 -3 -3 -3 -3 -2 -2 -2 -3 -3 -3 -4 -4 -4 -4 -4 -5 -5 -6 -7 -7 -6 -5 -6 -6 -6 -5 -4 -4 -4 -5

GFSMA_925_temp_027.txt.gz
Temp
17 17 16 16 16 16 16 16 16 16 16 16 16 15 15 14 14 14 14 13 13 12 12 12 12 12 12 12 11 11 11 10 10 10 10 10 10 10 11 11 11 11 12
17 17 16 16 16 16 16 16 16 16 16 15 15 15 15 14 13 13 13 13 12 12 11 11 11 11 11 11 11 11 10 10 10 10 10 10 10 10 10 10 10 11 11
17 17 17 16 16 16 16 16 16 16 15 15 15 14 14 14 13 13 13 13 12 12 11 11 11 10 11 10 11 10 10 9 9 9 9 9 9 9 9 9 10 10 10
18 17 17 16 16 16 16 16 16 15 15 14 14 14 13 13 13 13 12 12 12 12 11 11 11 10 10 10 10 10 10 9 9 8 8 8 8 8 9 9 9 9 10
18 17 17 17 16 16 16 16 16 15 14 14 13 13 13 13 13 12 12 12 12 11 11 11 10 10 10 9 9 9 9 9 8 8 8 8 8 8 8 8 9 9 9
18 17 17 17 16 16 16 16 16 15 14 14 13 13 12 12 12 12 12 11 11 11 10 10 10 9 9 8 8 8 8 8 8 8 8 7 8 8 8 8 8 9 9
18 18 17 17 17 16 16 16 15 14 13 13 12 12 11 11 11 11 11 11 10 10 10 9 9 9 8 8 7 7 7 8 8 8 8 7 7 8 8 8 8 9 9
19 18 18 18 17 16 15 15 15 13 13 12 12 10 8 10 11 10 10 10 10 10 9 9 8 8 7 7 7 7 6 7 7 7 7 7 7 7 8 8 8 9 9
19 19 18 18 18 17 16 16 15 15 13 11 12 11 6 7 7 9 9 9 9 9 8 8 8 7 7 6 6 6 6 5 6 7 7 7 7 7 7 8 8 8 8
17 19 19 18 17 16 16 16 15 15 14 12 10 11 11 10 6 7 8 8 8 8 8 8 7 6 6 5 5 5 4 4 5 6 6 6 6 7 7 7 7 8 8
16 18 18 17 17 16 16 15 15 13 14 13 12 10 9 8 8 6 6 6 7 8 7 7 6 5 5 4 4 4 3 3 4 4 5 5 5 6 6 6 7 7 7
16 16 16 16 16 16 15 14 14 13 13 13 12 11 11 8 6 6 3 3 3 7 7 6 5 5 4 3 3 3 2 2 2 3 3 4 4 5 5 5 5 6 6
14 15 15 14 14 15 14 13 13 12 12 12 11 10 10 9 8 7 5 3 2 3 5 5 5 4 3 3 2 2 1 0 1 1 2 3 3 3 3 3 4 5 5
15 15 13 13 13 13 13 12 11 12 11 10 10 9 9 8 7 7 6 4 0 -0 1 4 3 3 2 2 1 0 -0 -1 -1 0 1 1 1 1 2 2 3 3 3
13 14 12 12 12 12 11 11 10 10 9 9 9 8 7 7 6 5 5 4 3 -0 -1 2 2 2 2 1 -0 -1 -1 -1 -1 -1 -1 -0 0 0 1 1 1 2 2
12 11 11 11 11 11 10 10 9 8 8 8 7 7 7 6 5 4 4 3 2 1 -2 1 1 1 1 -0 -1 -1 -2 -2 -2 -2 -1 -1 -1 -0 0 1 1 1 1
11 11 10 10 10 10 9 8 8 7 7 6 6 6 6 5 4 4 3 2 2 1 -2 -1 -0 -0 -1 -1 -1 -2 -2 -2 -2 -3 -2 -2 -1 -1 -0 -0 0 0 1
10 10 9 8 8 8 7 7 5 5 5 5 5 4 5 4 3 3 2 2 1 1 -1 -2 -1 -1 -1 -1 -2 -2 -2 -3 -3 -3 -3 -2 -2 -1 -1 -1 -1 -1 -0
8 7 7 6 6 6 6 5 5 4 4 4 4 4 4 3 3 2 2 1 1 0 -0 -2 -3 -2 -2 -2 -2 -3 -3 -4 -4 -4 -3 -3 -3 -2 -2 -1 -1 -1 -1
6 6 5 5 6 5 4 3 2 4 3 4 4 3 3 2 2 1 1 0 0 -0 -1 -1 -2 -2 -2 -3 -3 -4 -4 -4 -4 -4 -4 -4 -3 -3 -3 -3 -3 -2 -2
4 4 5 5 4 3 3 2 3 3 3 3 2 2 1 1 0 -0 0 0 -0 -1 -1 -1 -3 -3 -3 -4 -4 -4 -5 -5 -5 -4 -4 -4 -3 -5 -4 -4 -3 -4 -4
3 5 4 4 3 2 1 1 1 2 2 1 1 1 -0 -0 -0 -0 -1 -1 -1 -1 -1 -2 -2 -4 -4 -4 -4 -5 -5 -6 -5 -4 -4 -5 -5 -5 -4 -4 -4 -4 -3
3 2 1 1 0 -0 -0 1 1 1 1 0 -0 -1 -1 -1 -2 -2 -2 -2 -2 -2 -2 -2 -3 -3 -4 -4 -4 -5 -5 -6 -5 -5 -5 -5 -5 -5 -5 -4 -4 -4 -3
1 1 1 -0 -0 -0 -1 -1 -0 -0 -1 -1 -2 -2 -2 -3 -3 -2 -2 -2 -2 -2 -2 -3 -3 -3 -3 -3 -4 -4 -4 -5 -5 -6 -5 -6 -5 -5 -5 -5 -5 -4 -4
-0 -1 0 -0 -1 -1 -2 -2 -1 -1 -1 -2 -2 -3 -3 -3 -3 -2 -2 -2 -3 -3 -3 -3 -3 -4 -4 -4 -4 -4 -5 -6 -6 -6 -6 -6 -6 -5 -5 -5 -4 -3 -4
-0 -0 -1 -1 -2 -2 -1 -1 -1 -1 -2 -2 -3 -3 -3 -4 -3 -2 -2 -3 -4 -4 -3 -4 -4 -4 -4 -4 -5 -5 -6 -7 -7 -7 -5 -6 -6 -7 -6 -4 -4 -4 -5

GFSMA_925_temp_030.txt.gz
Temp
17 16 16 16 16 16 16 16 16 16 16 16 16 15 15 14 14 14 14 13 13 12 12 12 12 12 12 12 11 11 10 10 10 10 10 10 10 10 10 11 11 11 11
17 17 16 16 16 16 16 16 16 16 16 16 15 15 14 14 13 13 13 12 12 12 12 11 11 11 11 11 11 10 10 10 10 9 9 9 9 9 10 10 10 10 11
17 17 17 16 16 16 16 16 16 16 15 15 15 14 14 14 13 13 13 12 12 12 11 11 11 11 11 11 11 10 10 9 9 9 9 9 9 9 9 9 9 10 10
17 17 16 16 16 16 16 16 16 15 15 15 14 14 13 13 13 12 12 12 12 12 11 10 10 10 10 10 10 10 10 9 9 8 8 8 8 8 9 9 9 9 9
17 17 17 17 16 16 15 16 16 15 14 14 13 13 13 13 12 12 12 12 11 11 11 10 10 10 10 9 9 9 9 9 9 8 8 8 8 8 8 9 9 9 9
18 17 17 17 16 15 15 16 15 14 14 13 12 12 12 12 12 12 11 11 11 11 10 10 10 9 9 9 8 8 8 8 8 8 8 8 8 8 8 8 9 9 9
18 17 17 16 16 15 16 16 14 14 13 12 12 11 11 11 11 11 11 11 10 10 10 10 9 9 9 9 8 8 7 8 8 8 8 8 8 8 8 8 9 9 9
18 17 17 17 16 16 15 15 15 13 13 12 12 10 8 9 10 10 10 10 10 10 9 9 8 8 8 8 8 7 7 6 7 7 7 8 8 8 8 8 9 9 9
18 18 18 18 17 17 17 16 15 15 13 11 12 11 6 7 7 8 9 9 9 9 9 8 8 8 7 7 6 6 6 5 6 6 7 7 7 7 8 8 8 9 9
17 18 18 17 17 17 17 16 16 15 15 13 11 11 11 11 6 6 7 8 8 8 8 8 7 7 6 6 5 5 4 4 4 5 6 6 6 7 7 7 8 8 8
17 17 17 16 17 17 17 17 15 15 15 14 13 9 9 9 9 6 5 6 7 7 7 7 6 6 5 5 4 4 3 3 3 4 4 5 5 6 6 6 7 7 7
16 16 17 16 16 16 16 16 15 14 14 14 13 12 12 9 7 6 4 4 5 7 7 6 6 5 4 4 3 3 3 2 2 2 3 4 4 5 5 5 5 5 5
14 15 15 15 15 15 15 14 14 13 13 13 12 11 11 11 11 9 7 3 3 5 6 6 5 4 4 3 3 2 2 1 0 1 1 2 3 3 3 3 3 4 4
16 16 15 14 14 14 13 13 13 12 11 11 11 10 10 10 10 9 8 5 1 0 2 5 4 4 3 2 2 1 0 -0 -1 -0 0 1 1 1 1 2 2 2 3
14 15 14 13 11 12 12 12 12 11 10 10 8 8 9 8 7 7 7 7 5 1 -1 3 3 3 2 2 1 -0 -1 -1 -1 -1 -1 -1 -0 -0 0 1 1 2 2
13 13 12 11 10 9 11 11 10 9 9 8 7 7 7 7 6 5 5 5 4 3 -1 2 2 2 1 1 0 -1 -1 -2 -2 -2 -2 -2 -1 -1 -0 0 1 1 1
12 11 10 9 9 9 9 9 9 8 7 6 6 6 6 5 5 4 4 3 3 2 -1 0 0 1 0 -0 -1 -1 -1 -2 -2 -2 -3 -2 -2 -1 -1 -0 -0 0 1
10 10 9 8 8 8 8 8 7 6 5 4 5 3 3 4 4 4 3 2 2 1 -0 -2 -1 -1 -1 -1 -1 -2 -2 -2 -3 -3 -3 -3 -2 -2 -2 -1 -1 -0 -0
9 8 7 7 7 6 7 7 6 5 4 3 3 3 2 2 3 3 2 2 1 1 -0 -2 -2 -2 -2 -2 -2 -2 -3 -3 -3 -3 -3 -4 -3 -3 -2 -2 -1 -1 -1
7 6 6 5 5 5 6 5 4 4 2 2 1 1 1 2 2 1 1 1 0 -0 -0 -1 -2 -2 -2 -2 -3 -3 -4 -4 -4 -4 -3 -3 -4 -3 -3 -3 -3 -3 -2
5 5 3 3 4 4 4 4 2 1 1 0 -0 -1 0 0 1 0 0 0 -0 -1 -1 -1 -3 -3 -3 -3 -4 -4 -5 -5 -5 -4 -4 -4 -4 -4 -3 -3 -4 -4 -4
3 3 3 3 3 2 2 1 1 0 -0 -1 -0 -1 0 0 0 -0 -1 -1 -1 -1 -1 -2 -2 -3 -4 -3 -4 -5 -5 -5 -4 -4 -4 -5 -5 -5 -4 -4 -3 -4 -3
1 1 1 2 1 0 -1 1 1 -0 -1 -1 -2 -0 -1 -1 -1 -1 -2 -2 -2 -2 -2 -2 -3 -3 -4 -4 -4 -4 -5 -5 -5 -5 -5 -6 -5 -5 -4 -4 -4 -4 -3
0 1 0 0 0 -1 -1 -1 -1 -2 -2 -1 -2 -2 -2 -2 -2 -3 -2 -2 -2 -2 -3 -3 -3 -3 -3 -3 -4 -4 -4 -5 -6 -6 -6 -6 -5 -5 -4 -4 -5 -4 -3
-0 -0 -0 -0 -0 -1 -1 -3 -1 -1 -1 -2 -2 -3 -3 -3 -3 -3 -2 -2 -3 -3 -3 -4 -4 -4 -4 -4 -4 -5 -5 -6 -7 -6 -6 -6 -6 -5 -6 -5 -3 -3 -4
-1 -1 -1 -1 -1 -2 -2 -2 -1 -1 -2 -2 -3 -3 -3 -4 -3 -3 -2 -4 -4 -4 -4 -4 -5 -4 -4 -4 -5 -5 -6 -7 -8 -7 -5 -6 -6 -7 -6 -4 -4 -4 -5

GFSMA_925_temp_033.txt.gz
Temp
17 17 16 16 16 16 16 16 16 16 16 16 16 16 15 15 14 14 13 14 13 13 13 12 12 12 12 12 11 11 10 10 10 10 10 10 10 10 10 10 10 11 11
17 17 16 16 16 16 16 16 16 16 16 16 16 15 15 14 14 13 13 12 13 12 12 12 12 12 12 11 11 10 10 10 10 10 10 9 9 9 10 10 10 10 10
17 17 16 16 16 16 16 15 16 16 16 15 15 15 14 14 13 13 13 12 12 12 11 11 11 11 11 11 11 10 10 10 9 9 9 9 9 9 9 9 9 10 10
17 17 16 16 16 16 16 15 15 15 15 15 15 14 14 13 13 12 12 12 12 11 11 10 10 10 10 10 10 10 10 9 9 9 9 8 8 9 9 9 9 9 10
17 16 17 17 16 16 15 15 15 15 15 14 14 13 13 13 12 12 12 12 11 11 11 11 11 11 10 9 9 9 9 9 9 9 9 8 8 8 9 9 9 9 9
17 17 16 16 16 15 15 15 15 15 14 14 13 12 12 12 12 11 11 11 11 11 11 11 10 10 10 10 10 9 8 9 9 9 8 8 8 8 8 9 9 9 9
18 17 17 16 16 15 15 15 14 14 13 13 12 10 10 11 11 11 11 11 11 11 10 10 10 10 9 9 9 9 8 7 8 8 8 8 8 8 8 9 9 9 9
18 18 17 17 16 15 15 15 15 13 13 13 12 10 12 10 9 10 10 10 10 10 10 9 9 9 9 9 8 8 8 7 7 7 8 8 8 8 8 9 9 9 9
18 18 17 17 16 16 16 16 15 15 13 12 13 13 11 14 10 8 9 9 9 9 9 9 9 8 8 8 7 7 5 6 6 6 7 7 7 8 8 8 8 9 9
16 17 17 17 16 16 16 17 16 15 15 13 11 12 11 11 13 11 7 8 8 8 8 8 8 7 7 7 6 5 5 5 4 5 6 6 6 7 7 7 8 8 8
15 16 17 17 16 16 16 16 16 14 15 14 13 9 9 9 10 11 11 8 6 7 7 7 7 6 6 5 5 4 4 3 3 4 4 5 5 6 6 7 7 7 7
15 14 15 16 16 16 16 16 15 14 14 14 14 13 12 10 9 9 9 7 9 6 6 6 6 6 5 5 4 3 3 3 2 2 3 3 4 4 5 5 5 5 6
13 14 14 14 15 15 15 14 14 13 13 13 13 13 12 13 12 10 8 6 7 5 5 5 5 5 4 4 3 2 2 2 1 1 2 2 3 2 3 3 3 4 4
16 14 14 13 13 13 13 12 12 12 12 12 12 12 12 11 11 11 10 6 6 5 3 5 4 4 3 3 2 2 2 1 0 -0 0 1 1 1 1 1 2 2 3
14 14 14 12 12 11 10 10 10 10 11 11 11 11 10 9 9 8 9 8 7 7 6 2 3 3 3 3 2 0 -0 -0 -1 -1 -1 -1 -1 -0 -0 0 1 2 2
13 13 12 11 10 9 9 9 9 9 9 9 9 9 8 7 6 6 7 6 6 5 5 3 3 3 2 1 1 -0 -1 -1 -1 -2 -2 -1 -1 -1 -0 0 1 1 2
12 12 11 10 9 8 7 8 8 8 9 8 7 7 6 5 5 4 4 4 3 3 3 2 2 2 1 1 0 -0 -1 -2 -2 -2 -2 -2 -2 -1 -1 -0 -0 0 1
11 11 10 9 8 7 8 7 6 5 7 6 5 4 3 3 3 2 2 1 1 1 0 1 -0 -0 0 -0 -1 -1 -2 -2 -2 -3 -3 -3 -2 -2 -2 -1 -1 -0 0
9 9 9 8 7 6 6 5 5 5 5 5 4 3 2 1 0 0 -1 -1 -2 -2 0 -2 -0 -1 -2 -1 -2 -2 -3 -3 -3 -3 -3 -3 -3 -3 -2 -2 -1 -1 -1
7 6 6 6 5 5 4 5 5 5 4 3 2 2 1 -0 -0 -1 -1 -1 -2 -0 -1 -3 -2 -2 -2 -2 -3 -3 -3 -3 -3 -3 -4 -3 -3 -3 -3 -3 -2 -2 -2
5 5 4 4 4 4 3 3 3 3 2 1 -0 -0 -0 -1 -1 -1 -2 -2 -2 -2 -2 -2 -2 -2 -2 -2 -2 -2 -3 -3 -4 -4 -4 -4 -4 -4 -3 -3 -3 -2 -2
3 2 2 2 2 2 2 3 3 1 1 0 -1 -2 -2 -2 -2 -2 -2 -2 -2 -2 -2 -3 -2 -2 -2 -3 -3 -3 -4 -4 -3 -3 -4 -3 -4 -4 -3 -3 -3 -3 -3
1 1 1 1 1 0 2 2 1 0 -1 -1 -1 -2 -3 -3 -2 -2 -2 -3 -2 -2 -2 -2 -2 -3 -3 -3 -4 -4 -4 -4 -4 -4 -4 -4 -4 -4 -3 -4 -4 -4 -3
0 0 0 0 -0 -0 -1 -1 -0 -1 -1 -3 -2 -2 -2 -2 -2 -3 -3 -2 -2 -2 -2 -3 -3 -3 -4 -4 -4 -5 -4 -4 -4 -4 -5 -5 -3 -3 -3 -4 -4 -4 -4
-0 -0 -0 -0 -1 -1 -1 -0 -1 -2 -2 -2 -3 -3 -3 -3 -3 -3 -2 -2 -3 -3 -3 -4 -4 -4 -4 -4 -4 -4 -5 -5 -5 -4 -5 -5 -4 -4 -4 -4 -4 -3 -4
-1 -0 -1 -1 -2 -3 -3 -1 -1 -1 -2 -3 -3 -3 -3 -3 -3 -3 -2 -4 -4 -4 -4 -4 -5 -5 -4 -4 -5 -6 -6 -7 -6 -6 -5 -5 -4 -5 -5 -4 -3 -4 -5

GFSMA_925_temp_036.txt.gz
Temp
18 18 18 18 17 18 17 17 17 17 17 16 16 16 16 16 16 16 16 14 14 13 13 13 13 12 12 12 11 11 11 11 10 10 10 10 10 10 11 11 11 11 11
18 18 18 17 17 17 17 17 17 17 17 16 16 16 16 15 16 15 15 13 13 13 13 12 12 12 12 12 11 11 10 10 10 10 10 10 10 10 10 10 10 10 10
18 18 18 17 17 17 17 16 16 16 16 15 16 15 15 15 15 14 14 14 12 12 12 12 12 11 11 11 11 11 10 10 9 9 9 9 9 9 9 9 10 10 10
18 18 18 17 17 17 16 16 16 16 16 15 15 15 15 14 14 14 13 13 13 13 11 11 11 11 11 11 10 10 10 10 9 9 9 9 9 9 9 9 9 10 10
18 18 18 18 17 17 16 16 15 16 15 15 15 14 14 14 14 13 13 12 12 12 12 11 11 11 10 10 9 10 10 9 9 9 9 9 9 9 9 9 9 9 10
18 17 18 17 17 16 15 15 15 15 15 15 14 14 13 13 13 13 13 12 12 11 11 10 10 10 11 10 10 10 9 9 9 9 9 9 9 9 9 9 9 10 10
17 17 17 17 17 16 16 15 15 14 13 14 13 13 12 12 12 13 13 12 11 11 10 10 10 10 9 10 10 10 9 8 8 9 8 9 9 9 9 9 9 9 10
17 17 17 17 17 16 16 15 14 13 13 12 15 15 15 13 12 12 12 12 12 11 10 10 9 9 8 8 9 9 9 8 7 8 8 8 8 8 9 9 9 9 10
17 17 16 16 17 16 15 15 13 13 13 12 14 16 16 17 14 11 11 11 11 10 10 9 9 8 8 8 8 7 7 7 6 6 7 7 7 7 8 8 9 9 9
16 16 16 16 15 15 15 14 14 15 14 12 11 12 12 14 15 13 11 10 10 10 10 9 8 7 7 7 7 6 6 6 5 5 6 6 6 7 7 8 8 8 9
15 15 15 15 14 14 15 14 14 13 14 14 12 10 10 10 11 15 15 11 9 9 9 9 8 7 6 6 5 5 5 5 4 4 5 5 5 6 6 7 7 7 7
15 15 15 14 14 14 14 15 14 13 13 14 12 13 11 11 11 12 14 13 11 10 8 8 7 7 6 5 5 4 4 4 4 3 4 4 4 5 5 5 5 6 6
15 14 14 14 14 14 13 13 13 13 11 11 11 12 12 12 13 12 13 11 11 8 7 7 7 6 5 4 4 3 2 3 3 2 2 3 3 3 3 3 3 4 4
17 14 14 14 14 14 13 12 11 10 10 10 10 11 12 12 12 11 11 8 7 8 8 8 6 5 4 3 3 3 3 2 2 1 1 1 1 1 1 1 2 2 3
16 16 14 14 13 13 13 12 11 10 9 9 9 9 12 11 10 10 9 9 9 7 7 7 5 4 3 3 2 2 2 1 0 0 0 0 -0 -0 0 0 1 1 2
15 13 14 13 12 12 11 10 9 9 9 8 7 8 9 8 7 7 8 7 6 6 6 4 3 2 2 2 2 1 2 0 -0 -0 -1 -1 -1 -1 -0 -0 1 1 2
11 12 12 12 11 10 9 9 8 8 7 6 6 7 6 5 5 5 5 5 5 4 2 1 1 1 1 1 0 1 1 0 0 0 -0 -1 -1 -1 -1 -0 0 0 1
10 10 11 10 9 9 8 7 7 7 6 5 5 4 3 4 3 3 2 1 0 -0 -0 -1 -1 -1 -1 -1 -2 -1 -0 -0 -0 -0 -1 -2 -2 -1 -1 -1 -1 -0 0
8 9 8 7 7 7 6 6 5 5 4 4 3 3 2 2 1 1 1 0 -0 -0 -1 -2 -2 -2 -3 -3 -3 -2 -1 -0 -0 -1 -1 -1 -2 -2 -1 -1 -1 -1 -0
7 6 6 6 5 5 5 4 4 3 2 2 2 3 2 1 1 0 0 -0 -1 -2 -2 -3 -2 -2 -2 -2 -2 -1 -0 -0 -0 -1 -1 -2 -2 -2 -2 -2 -2 -2 -2
4 4 4 4 3 3 2 2 2 2 2 2 1 1 1 1 0 -0 -1 -2 -2 -3 -2 -2 -1 -2 -2 -1 0 0 -1 -1 -1 -1 -1 -1 -1 -1 -1 -1 -1 -1 -2
2 4 4 2 2 2 1 2 2 2 2 1 0 -0 -1 -1 -1 -2 -2 -2 -2 -2 -2 -2 -2 -1 0 0 -0 -1 -1 -2 -2 -2 -1 -1 -1 -1 -1 -1 -1 -1 -2
2 1 1 1 1 1 1 1 2 1 1 -0 -0 -1 -2 -2 -3 -3 -3 -3 -3 -2 -2 -1 -1 -0 -0 -1 -2 -3 -3 -3 -3 -2 -2 -2 -2 -1 -1 -1 -1 -1 -2
0 0 0 1 0 0 -0 -0 0 -0 -1 -2 -2 -2 -3 -4 -3 -3 -3 -3 -3 -2 -2 -2 -2 -2 -2 -2 -2 -3 -3 -3 -2 -2 -2 -2 -2 -1 -1 -1 -1 -2 -2
-0 -0 -0 -1 -1 -2 -1 -1 -1 -2 -3 -2 -4 -4 -3 -3 -3 -3 -2 -2 -2 -2 -2 -3 -4 -4 -4 -3 -3 -3 -3 -3 -3 -2 -2 -2 -2 -2 -2 -2 -2 -2 -2
-1 -1 -2 -2 -2 -3 -3 -2 -2 -2 -3 -2 -3 -3 -3 -3 -3 -2 -2 -2 -2 -2 -3 -3 -3 -3 -4 -4 -4 -4 -4 -4 -4 -4 -2 -4 -3 -3 -3 -2 -2 -2 -2

GFSMA_925_temp_042.txt.gz
Temp
20 20 19 19 19 18 18 18 18 18 18 18 18 18 18 18 18 17 16 15 14 14 14 13 13 13 12 12 11 11 11 11 11 10 10 10 10 10 10 10 11 11 11
20 20 20 20 19 19 19 19 19 19 18 18 18 18 18 18 18 17 16 15 14 14 14 13 13 13 12 12 11 11 11 10 10 10 10 10 10 10 10 10 10 10 10
21 20 20 20 20 19 19 19 19 19 18 18 18 18 17 17 17 17 16 15 14 13 13 13 13 13 12 12 11 11 10 10 10 10 10 9 9 9 10 10 10 10 10
20 20 20 20 19 19 19 19 19 19 18 18 18 17 17 17 17 17 16 15 15 13 13 13 13 12 12 12 11 11 10 10 10 10 9 9 9 9 9 9 10 10 10
20 20 20 20 19 19 19 19 19 18 18 18 17 17 17 17 16 16 16 15 14 14 13 12 12 12 11 11 11 11 10 10 10 10 9 9 9 9 9 9 9 10 10
20 20 20 20 20 19 18 18 18 18 18 17 17 17 16 16 16 16 16 15 14 14 13 13 12 12 11 11 10 10 10 10 10 9 9 9 9 9 9 9 9 10 10
21 20 20 19 20 19 18 18 18 17 17 17 17 16 15 15 15 15 15 15 14 14 13 12 13 12 11 11 11 11 11 10 9 9 9 9 9 9 9 9 10 10 10
20 20 19 19 19 19 18 18 18 17 17 17 16 14 11 13 14 15 14 14 14 14 13 12 12 12 11 11 11 11 11 10 10 9 9 8 8 8 8 9 9 9 10
17 18 19 19 19 19 19 19 18 17 16 16 16 15 11 11 11 13 14 14 14 13 13 12 12 11 11 10 10 10 10 10 9 8 8 8 8 8 8 8 8 9 9
18 18 19 18 18 18 18 18 17 17 16 15 15 16 16 15 11 10 13 13 13 13 13 12 12 11 11 10 9 9 9 9 9 8 7 7 7 7 8 8 8 8 8
18 18 18 19 18 17 18 17 17 16 16 14 14 14 14 14 14 10 8 11 12 13 12 12 11 11 10 10 9 9 8 8 8 7 6 6 7 7 7 7 7 7 7
20 19 18 18 18 17 17 17 16 16 15 14 13 13 15 13 11 10 9 8 10 11 12 12 11 10 10 9 8 8 7 7 6 6 5 6 6 6 6 5 5 5 5
20 19 18 18 17 17 16 16 16 16 15 14 13 12 13 13 13 12 12 9 8 10 10 11 10 10 9 8 8 7 6 6 6 5 4 5 5 4 4 4 4 4 4
18 18 17 17 17 16 16 16 15 15 14 14 13 13 12 12 12 12 12 10 6 5 7 7 8 8 8 7 7 6 5 5 4 3 3 3 3 3 3 2 3 3 3
15 16 16 15 16 16 15 15 15 14 13 13 12 12 12 11 10 11 10 10 9 5 4 4 5 5 6 5 5 4 3 3 3 3 3 2 2 2 2 2 2 2 2
14 14 13 13 14 13 13 14 14 13 13 13 12 11 10 9 9 9 9 8 8 6 4 2 2 3 2 2 2 3 3 3 3 3 1 2 2 2 1 1 1 1 1
10 10 11 11 13 13 12 12 12 12 11 11 10 10 9 9 7 6 6 6 6 7 3 0 0 1 1 2 2 2 2 2 2 1 1 1 1 1 1 1 1 1 1
9 10 10 10 10 10 10 11 10 9 9 9 9 8 7 6 5 4 4 4 4 4 3 0 0 -0 1 1 1 1 0 0 1 1 0 0 0 0 1 1 1 0 1
7 7 7 7 7 8 8 8 8 8 7 7 6 6 5 4 3 2 2 3 2 3 3 2 -0 -0 -0 0 -0 -0 0 0 0 0 -0 0 1 1 0 0 0 0 0
6 5 5 5 5 5 5 5 5 5 5 4 4 3 3 3 3 2 2 2 1 1 1 1 -0 -1 -1 -1 -1 -1 -1 -0 -0 -0 -0 -0 -0 -0 -0 0 0 0 -0
4 4 4 4 4 4 3 3 3 3 3 2 2 1 1 2 1 1 1 0 0 -0 -1 -1 -1 -1 -2 -2 -2 -0 -1 -1 -0 -0 -1 -1 -1 -1 -1 -1 -1 -1 -1
2 2 2 2 2 1 1 1 1 0 0 0 -0 -0 -0 -0 -0 -0 0 -0 -0 -1 -1 -1 -1 -1 -1 -0 -0 -1 -1 -1 -3 -1 -2 -2 -2 -2 -2 -1 -1 -1 -0
1 1 1 1 1 1 0 -0 1 0 -0 -1 -1 -1 -1 -1 -1 -1 -1 -1 -1 -1 -1 -1 -1 -1 -1 -1 -1 -1 -1 -2 -2 -2 -3 -3 -3 -2 -2 -2 -1 -1 -1
0 0 -0 -0 -0 -0 -1 -0 1 -0 -1 -1 -1 -2 -2 -3 -2 -3 -2 -2 -2 -1 -1 -1 -2 -2 -2 -2 -2 -2 -2 -3 -3 -3 -3 -3 -2 -2 -1 -1 -1 -1 -1
-1 -1 -1 -2 -1 -1 -2 -1 -0 -1 -2 -2 -3 -3 -2 -2 -2 -2 -2 -2 -2 -2 -1 -2 -2 -2 -2 -3 -3 -3 -3 -3 -4 -4 -3 -3 -3 -3 -2 -1 -1 -1 -1
-2 -2 -2 -3 -2 -2 -2 -1 -1 -1 -1 -2 -2 -2 -2 -2 -2 -2 -2 -2 -2 -2 -2 -2 -3 -3 -3 -3 -3 -3 -3 -4 -4 -4 -3 -4 -4 -4 -4 -3 -3 -3 -3

GFSMA_925_temp_045.txt.gz
Temp
19 18 19 19 18 18 18 18 18 18 18 18 18 18 18 18 18 17 17 16 16 15 14 14 13 13 12 12 12 11 11 11 11 11 11 10 11 11 11 11 11 11 11
20 19 19 19 19 19 18 18 18 18 18 18 18 18 18 18 18 16 16 16 15 15 14 14 13 13 12 12 11 11 11 11 10 10 10 10 10 10 10 10 10 10 11
20 19 19 19 19 19 19 18 18 18 18 18 18 18 18 18 17 17 16 16 15 14 14 14 13 13 12 12 11 11 11 10 10 10 10 10 9 10 10 10 10 10 10
20 20 20 20 19 19 19 19 18 18 18 18 18 18 17 17 17 17 16 15 15 15 14 13 13 13 13 12 12 11 11 10 10 10 10 9 9 9 9 10 10 10 10
20 20 20 20 19 19 19 19 19 18 18 18 18 18 17 17 17 17 16 15 15 15 14 13 13 12 12 12 12 12 11 10 10 10 10 9 9 9 9 9 9 10 10
21 20 20 20 20 19 19 19 19 19 18 18 18 17 17 17 17 16 16 16 15 14 14 14 13 12 12 12 12 12 11 10 10 10 10 9 9 9 9 9 9 10 10
20 20 20 20 19 19 19 18 18 18 18 18 17 16 16 16 16 16 16 15 15 14 14 14 13 13 12 11 11 11 11 10 10 10 10 9 9 9 9 9 10 10 10
21 20 19 20 19 19 19 18 18 17 17 17 16 13 11 13 15 15 15 15 15 14 14 13 13 13 12 12 11 10 10 10 10 10 10 9 9 9 9 9 9 9 9
19 20 20 19 19 19 19 19 18 17 16 16 16 15 9 10 10 14 15 15 15 14 14 14 13 12 12 12 11 11 11 10 9 9 9 9 8 8 8 8 9 9 9
19 19 19 19 19 18 18 18 18 17 16 14 14 16 16 15 10 11 13 13 14 14 14 13 13 12 12 12 11 11 10 9 9 9 9 8 8 8 8 8 8 8 8
19 19 19 18 19 18 18 17 18 15 15 15 14 14 13 13 13 10 9 10 12 13 13 13 13 12 11 11 11 10 10 9 7 8 8 8 8 8 8 8 8 7 7
17 19 19 19 18 18 17 17 17 16 15 15 14 14 14 13 12 10 8 7 9 11 12 12 12 12 11 11 10 10 9 8 7 7 7 7 7 7 7 7 6 6 6
17 16 17 18 18 18 17 17 17 16 15 14 14 13 13 13 13 12 11 9 8 9 9 10 11 11 11 10 9 8 8 7 6 5 6 6 6 6 5 5 5 5 5
14 14 15 16 17 16 16 16 16 16 15 14 13 12 12 11 12 12 11 10 7 6 6 7 8 8 8 9 8 7 7 6 5 4 3 3 4 4 3 4 4 4 4
13 13 13 14 15 15 15 15 15 15 14 14 14 12 12 11 11 11 10 10 10 9 5 4 5 6 6 5 4 5 4 3 3 2 2 2 2 2 2 2 2 3 3
11 12 12 12 12 13 13 13 13 13 13 13 12 12 11 11 10 9 9 8 8 8 6 4 3 3 4 4 3 3 3 2 2 1 1 1 2 1 2 2 2 2 2
9 10 10 10 10 10 11 12 12 12 12 11 11 11 10 10 9 8 7 7 6 6 6 1 2 2 2 2 1 1 1 1 1 -0 1 1 1 2 2 2 1 1 1
8 8 9 9 10 9 9 10 10 10 9 9 9 9 9 9 8 6 5 5 4 5 5 1 1 1 1 1 1 1 -0 -0 -0 0 1 -0 1 1 1 1 1 1 1
7 7 7 7 7 8 8 8 8 8 8 7 6 5 5 4 4 4 4 3 3 3 3 2 -0 -0 -0 -0 -1 -1 -0 0 -0 -0 -1 -0 1 1 1 1 1 1 1
6 5 5 6 6 6 6 5 5 5 4 4 4 4 3 3 2 2 2 2 2 2 1 1 0 -1 -1 -1 -1 -1 -1 -1 -0 -0 -0 -0 -0 -1 -1 -1 -0 -0 -0
3 3 4 4 3 3 2 3 2 2 2 2 2 1 1 1 1 1 1 1 1 1 0 -0 -1 -1 -1 -2 -2 -1 -1 -1 -0 -0 -1 -0 -1 -1 -1 -1 -1 -1 -1
2 2 2 1 1 1 1 2 2 2 1 1 0 0 0 0 0 0 -0 -0 -0 -1 -1 -1 -1 -1 -2 -1 -1 -1 -1 -2 -2 -1 -2 -2 -2 -2 -1 -1 -1 -1 -1
1 1 1 1 1 0 0 1 1 0 -0 -1 -1 -1 -1 -1 -1 -1 -1 -1 -1 -1 -1 -1 -1 -1 -1 -1 -1 -1 -2 -2 -2 -2 -3 -3 -2 -2 -1 -1 -1 -2 -1
-0 -0 -0 -0 -0 -0 -1 -0 0 0 -0 -1 -1 -1 -1 -2 -2 -1 -2 -2 -2 -1 -1 -2 -1 -2 -2 -2 -2 -2 -3 -3 -3 -3 -3 -4 -3 -3 -2 -1 -1 -2 -2
-2 -2 -2 -1 -1 -1 -1 -1 -0 -1 -1 -1 -2 -2 -2 -2 -2 -2 -2 -2 -2 -2 -2 -2 -2 -2 -2 -2 -2 -3 -3 -3 -4 -4 -4 -4 -4 -4 -3 -2 -1 -2 -2
-2 -2 -2 -2 -1 -1 -1 -1 -1 -1 -2 -2 -2 -2 -2 -2 -2 -2 -2 -3 -3 -3 -3 -2 -2 -3 -3 -3 -3 -3 -3 -3 -4 -5 -4 -4 -4 -5 -5 -3 -2 -2 -2

GFSMA_925_temp_048.txt.gz
Temp
18 18 18 18 18 18 18 18 17 17 17 18 18 18 18 18 18 17 17 16 16 15 14 14 13 13 12 12 12 12 11 11 11 11 11 11 11 11 11 11 11 11 11
18 18 18 18 18 18 18 18 18 18 18 18 18 18 18 18 18 17 16 16 16 15 15 14 14 13 13 12 12 11 11 11 11 11 11 10 10 10 10 11 11 11 11
19 19 19 18 18 19 19 18 18 18 17 17 18 18 18 18 18 17 16 16 15 15 15 14 14 13 13 12 12 11 11 11 11 10 10 10 10 10 10 10 10 10 11
20 19 19 19 19 19 18 18 18 18 17 17 18 18 18 18 17 17 16 16 15 15 14 14 14 13 13 12 12 12 11 11 10 10 10 10 10 10 10 10 10 10 10
20 20 20 20 19 19 19 18 18 18 18 17 17 18 18 18 17 17 17 16 15 15 15 14 14 13 13 13 12 12 11 11 10 10 10 10 10 10 10 10 10 10 10
20 20 20 20 20 19 19 18 18 18 18 18 18 18 17 17 17 17 17 16 15 15 15 14 14 13 13 12 13 12 12 11 10 10 10 10 10 10 10 10 10 10 10
20 19 20 20 20 19 19 19 19 18 18 18 17 16 17 17 17 17 16 16 16 15 14 14 14 13 13 13 12 12 12 11 11 10 10 10 10 10 10 10 10 10 10
20 20 20 19 19 19 19 19 18 17 17 17 16 13 13 15 16 16 16 16 16 15 14 14 14 13 13 12 12 12 12 11 11 11 10 10 10 10 9 9 9 9 10
19 20 20 19 18 18 18 19 18 17 16 15 15 15 9 11 11 15 15 16 15 15 15 14 13 13 13 12 12 11 11 11 11 11 10 10 10 9 9 9 9 9 9
18 18 18 18 18 18 17 17 18 17 16 14 14 14 14 13 10 11 13 13 14 14 14 13 13 13 12 12 12 12 11 10 10 10 10 10 9 9 9 9 9 9 9
18 18 18 18 18 19 19 17 16 16 16 15 14 14 12 12 11 10 10 11 12 13 13 13 13 13 12 12 12 11 11 10 9 9 10 10 9 9 9 9 9 8 8
17 17 17 17 17 17 18 18 17 16 15 15 14 13 13 12 12 10 7 8 9 12 13 13 12 12 12 11 11 10 11 10 8 9 9 9 8 7 7 7 7 7 7
15 15 16 17 16 17 17 17 17 16 16 14 14 13 13 13 13 12 10 10 7 9 10 11 11 10 10 10 8 8 9 8 7 7 7 7 7 6 5 5 5 6 6
13 13 14 15 16 15 15 16 16 15 15 15 14 13 13 12 12 11 11 9 7 6 6 8 9 9 9 9 8 7 7 5 6 6 5 5 5 5 4 4 3 4 4
11 11 12 13 14 14 14 14 14 14 14 14 14 13 12 12 11 11 10 10 10 9 6 7 8 7 7 7 7 6 6 5 4 4 3 3 3 3 3 2 3 3 3
10 10 10 11 11 12 12 13 12 12 12 12 12 11 12 11 11 10 9 9 8 8 7 7 5 6 4 4 5 5 5 4 2 2 2 2 2 2 2 2 2 3 3
9 9 9 9 10 10 10 10 10 10 10 9 9 10 10 10 9 9 8 8 7 7 6 5 4 4 3 3 3 3 2 2 2 2 1 1 1 1 2 2 2 2 2
8 8 8 8 8 9 9 9 9 9 9 9 8 8 7 7 7 6 6 5 4 4 5 3 2 2 2 1 1 1 2 1 1 1 1 0 1 1 1 1 1 2 2
6 7 7 7 7 7 7 7 8 8 7 7 6 6 5 5 4 4 4 3 3 2 3 3 1 0 -0 0 -0 0 0 -0 -0 -1 -1 -1 -0 0 1 1 1 1 1
5 5 5 4 4 4 4 5 5 5 5 4 4 3 3 3 3 2 2 1 1 1 1 1 0 -0 -0 -0 -1 -1 -1 -1 -1 -1 -2 -1 -0 -0 -0 -0 -0 -0 -0
3 2 3 3 2 1 2 3 3 3 2 1 1 1 1 1 1 1 1 0 1 0 0 -0 -1 -1 -1 -1 -1 -1 -1 -2 -2 -1 -1 -0 -1 -1 -1 -1 -1 -1 -1
2 2 1 1 1 1 1 1 2 1 -0 -0 0 0 0 0 0 0 -0 -0 -0 -0 -1 -1 -1 -1 -2 -2 -2 -2 -2 -2 -2 -2 -2 -1 -2 -1 -1 -1 -1 -1 -2
1 1 1 1 1 1 0 1 1 1 0 -0 -0 -0 -0 -1 -1 -1 -1 -1 -1 -1 -1 -2 -2 -2 -2 -2 -2 -2 -2 -2 -2 -2 -3 -3 -2 -2 -1 -1 -1 -2 -2
-0 -0 0 0 -0 -0 -1 0 0 -0 -1 -1 -1 -1 -1 -1 -2 -2 -2 -2 -2 -2 -2 -2 -2 -2 -2 -2 -2 -2 -3 -3 -3 -3 -3 -4 -3 -3 -2 -1 -1 -2 -2
-1 -1 -1 -1 -1 -1 -1 -1 -1 -1 -1 -2 -2 -2 -2 -2 -2 -2 -2 -2 -2 -2 -2 -2 -3 -3 -2 -2 -2 -3 -3 -4 -4 -4 -4 -4 -4 -4 -3 -2 -2 -2 -2
-2 -2 -2 -2 -1 -1 -1 -1 -1 -1 -1 -2 -2 -2 -2 -2 -2 -2 -3 -3 -3 -3 -3 -3 -3 -3 -3 -3 -3 -3 -3 -4 -4 -5 -4 -4 -4 -5 -6 -3 -3 -3 -2

GFSMA_925_temp_051.txt.gz
Temp
18 18 18 18 18 17 18 18 18 17 17 18 18 18 18 18 18 18 17 16 16 16 15 14 14 13 13 13 12 12 12 11 11 11 11 11 11 11 11 11 11 12 12
18 18 18 18 18 18 18 18 18 18 17 17 18 18 18 18 18 18 17 16 16 16 15 14 14 13 13 13 12 12 12 11 11 11 11 11 11 11 11 11 11 11 11
18 18 18 18 18 18 18 18 18 18 17 17 17 17 18 18 18 18 17 16 16 15 15 14 14 14 13 13 13 12 12 11 11 11 11 10 10 10 10 10 11 11 11
19 19 18 18 19 19 18 18 18 18 17 17 17 17 17 18 18 18 17 17 16 15 15 15 14 14 13 13 13 12 12 11 11 11 10 10 10 10 10 10 10 10 10
19 19 19 19 19 19 18 18 18 18 18 17 17 18 17 17 18 18 18 17 16 15 15 15 14 14 13 13 13 13 12 11 11 11 10 10 10 10 10 10 10 10 10
20 19 19 19 19 18 18 18 18 18 18 18 17 17 17 17 17 17 17 17 17 16 15 15 14 14 13 13 13 13 13 12 11 11 10 10 10 10 10 10 10 10 10
19 19 19 19 19 19 19 18 18 17 17 17 15 16 16 17 17 17 17 17 17 16 16 15 14 14 14 13 13 13 13 12 12 11 11 10 10 10 10 10 10 10 10
19 18 19 19 19 19 19 18 18 16 17 16 15 13 13 15 17 17 17 17 16 16 16 15 14 14 14 13 13 13 12 13 12 11 11 11 10 10 10 10 10 10 10
18 18 18 18 18 18 18 18 17 16 15 15 15 14 11 12 11 16 17 16 16 15 15 15 14 14 13 13 13 13 12 12 12 12 11 11 11 10 10 10 10 10 9
18 17 17 17 17 17 17 17 17 17 15 14 13 14 14 14 12 12 15 15 15 14 15 14 14 14 13 13 13 12 12 11 11 11 11 11 11 10 10 10 9 9 9
17 17 17 18 17 17 17 17 17 17 16 15 14 13 12 11 11 9 12 12 14 14 14 14 14 14 13 13 12 12 11 10 10 10 11 11 11 10 10 9 9 9 9
16 16 16 16 17 17 17 17 17 16 16 15 14 14 13 12 10 9 9 12 11 12 13 13 13 12 12 12 11 11 10 9 8 7 8 10 10 10 9 8 7 7 7
14 14 14 15 15 16 15 15 15 15 15 15 14 13 13 13 12 12 10 11 9 10 11 11 12 11 11 9 8 8 8 8 7 6 8 8 8 7 7 7 7 7 6
12 12 13 13 13 14 14 14 14 14 14 14 14 13 13 13 13 12 10 9 8 7 8 11 11 10 10 9 7 6 7 7 7 6 6 6 7 6 7 5 5 4 4
11 11 11 12 12 12 13 13 13 13 13 13 13 12 12 12 12 11 11 10 9 9 7 9 9 9 8 7 6 6 5 6 5 5 5 5 6 5 4 4 4 4 3
9 10 10 10 10 11 11 11 11 11 11 11 10 10 10 10 10 9 9 9 8 8 8 7 7 7 7 6 5 4 4 5 5 4 4 5 4 3 3 3 3 3 3
8 8 8 8 9 9 9 9 9 9 9 8 8 8 8 8 8 8 7 7 6 6 6 6 5 5 4 4 3 3 3 4 4 3 3 3 3 3 2 2 2 3 3
7 7 7 7 7 7 8 8 8 8 8 7 8 8 7 7 6 6 5 5 5 4 4 4 3 3 2 2 2 2 2 2 2 2 2 2 2 1 1 2 2 2 2
5 6 6 6 6 6 6 6 6 6 7 7 6 5 4 5 5 4 4 4 3 3 3 2 2 1 1 0 1 1 1 0 0 0 0 0 0 1 1 1 1 2 2
4 4 4 3 3 4 4 4 4 4 3 3 2 2 2 2 2 2 2 1 1 1 1 1 0 -0 -0 -1 -1 -1 -1 -1 -0 -1 -1 -0 -0 -0 -0 0 0 0 -0
2 2 2 1 1 1 1 2 2 2 1 0 0 1 1 1 1 1 1 1 1 0 0 0 -0 -1 -1 -1 -1 -1 -1 -1 -1 -1 -1 -1 -1 -1 -0 -0 -0 -1 -1
2 1 1 1 1 1 0 1 1 -0 0 0 1 0 0 0 0 0 0 0 -0 -0 -1 -1 -1 -1 -2 -2 -2 -2 -2 -2 -2 -2 -2 -1 -1 -1 -1 -1 -1 -1 -2
1 1 1 1 0 1 0 1 1 1 0 -0 -0 -1 -1 -1 -1 -1 -1 -1 -1 -1 -1 -1 -2 -2 -2 -2 -2 -2 -2 -2 -2 -2 -3 -3 -2 -2 -2 -2 -2 -2 -2
0 0 0 0 -0 -1 -1 0 0 0 -0 -1 -1 -1 -1 -1 -2 -2 -1 -1 -2 -2 -2 -2 -2 -2 -2 -2 -2 -3 -3 -3 -3 -3 -4 -5 -3 -3 -2 -2 -2 -1 -2
-0 -0 -0 -1 -1 -1 -1 -0 -0 -1 -1 -1 -2 -2 -2 -2 -2 -3 -2 -3 -3 -3 -3 -3 -3 -3 -3 -3 -3 -3 -3 -4 -4 -4 -4 -4 -5 -4 -3 -3 -3 -2 -2
-2 -1 -1 -1 -1 -1 -1 -2 -1 -1 -1 -1 -2 -2 -2 -2 -3 -3 -3 -4 -4 -4 -4 -3 -3 -3 -3 -3 -4 -4 -4 -4 -4 -5 -5 -5 -5 -5 -6 -4 -4 -3 -3

GFSMA_925_temp_054.txt.gz
Temp
18 18 18 18 18 17 17 17 17 17 17 17 18 18 18 18 18 18 18 17 17 16 15 15 14 14 13 13 13 12 12 11 11 11 11 11 11 11 12 12 12 12 12
18 18 18 18 18 18 18 17 17 17 17 17 17 17 18 18 18 18 18 17 17 16 15 15 14 14 14 13 13 12 12 11 11 11 11 11 11 11 11 11 11 12 12
18 18 18 18 18 18 18 17 17 17 17 17 17 17 17 18 18 18 17 17 17 16 16 15 14 14 14 14 13 13 12 12 11 11 11 11 11 11 11 11 11 11 11
18 18 18 18 18 18 18 18 18 18 17 17 17 17 17 17 17 17 17 17 17 17 16 16 15 14 14 14 14 13 13 12 11 11 11 11 10 10 10 10 10 11 11
19 19 18 18 18 18 18 18 18 17 18 17 17 17 17 17 17 17 17 17 17 17 16 16 15 15 14 14 14 14 13 12 12 11 11 10 10 10 10 10 10 10 10
19 19 19 19 18 18 18 18 18 18 17 17 17 16 17 17 17 17 17 17 17 17 17 16 15 15 14 14 13 14 14 13 12 11 11 11 10 10 10 10 10 10 10
19 19 18 18 18 18 19 18 18 17 17 16 15 15 16 16 16 17 17 17 17 17 17 16 15 15 14 14 13 13 14 14 13 12 11 11 10 10 10 10 10 10 10
18 18 18 18 18 17 17 18 17 16 16 16 15 13 13 15 17 17 17 17 17 16 16 16 15 15 14 14 13 13 13 13 13 13 12 11 11 11 10 10 10 10 10
17 17 17 17 17 17 17 17 17 16 15 15 15 14 12 13 12 17 17 17 17 16 15 14 14 14 14 14 13 13 13 13 13 13 12 12 11 11 11 11 10 10 10
17 17 16 16 16 16 16 17 17 16 15 14 14 14 14 13 12 12 15 16 16 16 16 16 15 14 14 14 13 13 13 12 12 12 12 11 11 11 11 11 11 10 10
16 16 16 16 17 16 16 16 16 15 16 14 14 14 13 11 11 10 12 13 14 15 15 14 15 15 14 13 12 12 12 11 10 10 10 10 9 9 10 11 10 10 10
15 15 15 15 15 15 14 15 15 15 15 15 14 13 14 12 10 9 9 9 11 12 13 13 13 13 13 12 11 11 11 11 9 9 9 9 8 8 9 10 9 8 8
13 13 14 14 14 14 13 13 13 14 14 14 14 13 13 13 12 12 11 10 10 10 11 12 12 12 12 11 11 10 10 9 9 8 9 8 8 8 8 8 7 7 8
12 11 12 12 12 13 13 13 13 13 13 14 12 12 12 13 13 12 11 10 9 8 8 11 11 10 10 9 9 8 9 8 7 7 8 8 8 7 7 6 6 7 7
10 10 10 10 11 11 12 12 12 12 12 12 12 12 12 11 11 11 10 10 9 9 8 8 8 8 9 8 8 8 7 7 5 6 7 7 7 6 6 6 5 6 5
9 9 9 9 9 9 10 10 10 10 11 11 10 10 10 9 9 9 9 9 8 8 8 7 7 7 7 7 7 6 6 5 5 5 6 6 6 6 5 5 5 4 4
8 8 8 8 8 8 8 8 8 8 8 7 7 7 8 8 7 8 8 7 7 7 6 6 5 5 5 5 4 3 4 4 4 5 6 5 5 4 4 4 3 3 3
7 7 7 7 7 7 7 7 7 6 7 6 6 7 6 5 6 6 5 6 5 4 4 4 3 3 3 2 2 2 2 3 4 4 4 3 3 3 3 3 2 2 2
5 5 5 5 5 5 5 5 5 5 5 4 4 4 3 4 3 3 3 3 3 3 2 2 2 1 1 1 1 1 1 1 2 2 2 2 2 1 1 2 2 2 2
4 4 3 3 3 3 4 3 4 3 2 1 1 1 1 2 1 1 1 1 1 2 1 1 1 0 0 -0 -0 -1 -0 -0 -0 0 0 0 0 0 -0 0 0 -0 -0
2 1 1 1 1 1 1 1 1 1 1 1 1 1 1 1 1 1 1 1 1 1 0 0 -0 -0 -1 -1 -1 -1 -1 -1 -1 -1 -1 -1 -1 -1 -1 -1 -0 0 0
1 1 1 1 1 0 -0 -0 -0 -0 -0 1 0 -0 -0 0 0 -0 -0 -0 -0 -1 -1 -1 -1 -2 -2 -2 -2 -2 -2 -2 -2 -2 -2 -1 -1 -1 -1 -1 -1 -1 -1
1 1 0 0 0 -0 -0 1 1 0 0 -0 -0 -1 -1 -1 -1 -1 -1 -1 -1 -2 -2 -2 -2 -2 -2 -2 -2 -2 -3 -3 -3 -3 -3 -3 -2 -2 -2 -2 -2 -2 -3
1 0 -0 -0 -1 -1 -1 -0 -0 -0 -0 -1 -1 -1 -1 -2 -2 -2 -2 -2 -2 -2 -2 -3 -3 -3 -3 -3 -3 -3 -3 -3 -3 -3 -4 -5 -4 -3 -2 -2 -2 -2 -1
0 0 -0 -1 -1 -1 -1 -0 -1 -1 -1 -1 -2 -2 -2 -2 -2 -3 -3 -3 -3 -3 -3 -3 -3 -3 -3 -3 -3 -4 -3 -4 -4 -4 -5 -5 -5 -4 -3 -3 -3 -4 -3
-0 -1 -1 -1 -1 -1 -2 -1 -1 -1 -1 -2 -2 -2 -2 -3 -3 -3 -3 -4 -3 -4 -4 -3 -3 -3 -3 -3 -4 -4 -4 -4 -5 -5 -5 -5 -5 -5 -5 -4 -4 -4 -4

GFSMA_925_temp_057.txt.gz
Temp
18 18 18 18 18 17 17 17 17 17 17 17 17 17 17 18 18 18 18 18 18 17 16 16 15 14 14 13 13 12 12 12 12 11 11 11 11 12 12 12 12 12 12
18 18 18 18 18 18 18 17 17 17 17 17 17 17 17 17 18 18 18 18 18 17 16 15 15 14 14 14 13 13 12 12 11 11 11 11 11 11 11 11 12 12 12
18 18 18 18 18 18 17 17 17 17 17 17 17 17 17 17 17 17 17 17 17 17 17 16 15 15 14 14 14 13 12 12 12 11 11 11 11 11 11 11 11 11 11
18 18 18 18 18 17 17 17 17 17 17 17 17 18 18 17 17 17 17 17 17 17 17 16 16 15 15 14 14 14 13 12 12 11 11 11 11 11 11 11 11 11 11
18 18 18 18 18 18 18 18 17 17 17 17 18 18 17 17 17 17 17 17 17 17 17 17 16 16 15 14 14 15 14 13 12 12 11 11 11 10 10 10 10 10 11
19 18 18 18 18 18 18 18 17 17 17 17 16 16 17 17 17 17 17 17 17 17 17 17 16 15 15 14 14 14 14 14 13 12 12 11 11 10 10 11 10 10 10
19 18 18 18 18 18 18 18 17 17 16 17 14 15 17 17 17 17 17 17 17 16 16 16 16 15 15 14 14 13 14 14 14 12 12 11 11 11 11 10 11 10 10
17 17 17 17 17 17 17 17 17 15 15 16 15 13 16 17 17 17 18 18 17 16 16 16 15 15 15 14 14 14 13 14 14 14 12 11 11 11 11 11 11 11 11
17 17 16 16 16 16 16 16 16 15 14 15 15 15 14 16 14 17 17 17 17 17 17 16 16 15 15 14 14 14 13 13 13 14 14 12 12 11 11 11 11 11 11
17 16 16 16 16 15 16 16 16 15 15 14 14 14 14 14 13 13 15 16 16 16 15 15 15 15 15 14 13 13 13 13 13 13 13 12 11 10 11 11 10 10 10
16 16 15 15 15 15 15 14 14 15 15 14 14 14 13 12 11 11 12 14 14 15 14 14 14 14 14 14 13 13 12 12 12 12 12 12 11 10 11 9 10 9 10
14 14 14 14 14 14 13 13 13 13 13 14 14 14 14 13 12 9 10 10 11 12 13 13 12 12 12 12 11 11 11 11 11 11 11 11 11 10 10 9 9 9 9
13 13 13 13 13 13 13 12 12 13 13 13 13 13 13 13 12 12 11 11 10 10 11 12 11 11 11 11 10 10 9 9 9 9 10 11 11 10 9 9 9 9 9
11 11 11 12 12 12 12 12 12 13 13 13 13 12 12 12 12 12 11 10 10 9 9 10 10 10 10 10 10 9 9 9 8 7 8 9 10 10 9 8 9 8 7
10 10 10 10 10 11 11 11 11 12 12 12 12 12 12 11 11 11 10 10 10 10 9 9 9 9 9 9 9 9 8 8 7 6 6 7 8 8 8 8 7 7 6
9 9 9 9 9 9 10 9 9 10 11 11 10 10 10 9 9 9 9 9 8 8 8 7 7 7 7 6 6 6 6 6 5 5 5 6 7 7 8 6 6 5 5
8 8 8 8 8 8 8 8 8 8 8 9 8 8 8 8 8 8 8 8 7 6 7 5 5 4 4 5 4 4 4 4 4 4 5 5 5 5 5 5 5 4 5
7 7 6 7 7 7 7 7 7 7 7 7 6 7 7 7 6 6 6 6 5 5 5 4 3 3 3 2 2 2 3 3 3 3 3 4 4 4 4 4 4 4 3
5 5 5 5 5 5 5 5 5 5 5 4 4 5 4 4 4 4 3 3 3 3 2 2 1 1 1 1 1 1 1 2 2 2 3 3 3 3 3 3 2 2 2
4 3 3 2 3 3 3 3 3 2 2 2 2 2 2 2 2 1 2 2 2 2 2 1 1 0 -0 -0 -0 -1 -0 1 1 1 1 2 1 1 1 1 1 1 1
2 2 2 1 1 0 1 1 1 1 1 1 1 1 1 1 1 1 1 1 1 1 0 0 0 0 -0 -0 -1 -2 -1 -1 -1 -1 -1 -1 -0 -0 -0 -0 -0 -0 0
2 2 1 1 0 0 0 0 1 0 1 1 0 -0 0 -0 -0 -0 -0 -0 -0 -1 -1 -1 -1 -1 -2 -2 -2 -2 -2 -1 -0 -2 -2 -1 -1 -1 -1 -0 -0 -0 -0
1 1 1 0 -0 -0 -0 1 1 1 1 0 -0 -1 -1 -1 -1 -1 -1 -1 -1 -2 -2 -2 -2 -2 -2 -3 -2 -3 -3 -3 -2 -3 -3 -2 -3 -3 -2 -2 -2 -1 -2
1 0 -0 -0 -0 -1 -1 0 0 0 -0 -1 -1 -1 -1 -2 -2 -2 -1 -2 -2 -2 -3 -3 -3 -3 -3 -3 -3 -3 -3 -3 -3 -4 -4 -3 -4 -3 -3 -3 -2 -2 -2
0 0 -0 -1 -1 -1 -0 -0 -0 -1 -1 -1 -2 -2 -2 -2 -2 -3 -2 -2 -3 -3 -3 -3 -3 -3 -3 -3 -4 -4 -4 -4 -3 -4 -5 -5 -4 -4 -4 -4 -3 -4 -3
0 -0 -1 -1 -1 -1 -2 -1 -1 -1 -1 -2 -2 -2 -3 -2 -2 -3 -3 -3 -3 -4 -4 -3 -3 -3 -3 -4 -4 -4 -4 -5 -5 -4 -5 -5 -5 -5 -3 -4 -4 -3 -3

GFSMA_925_temp_060.txt.gz
Temp
18 18 18 18 18 18 18 18 18 18 18 18 18 18 18 18 18 18 18 18 18 18 17 16 15 15 14 13 13 13 12 12 12 12 12 12 12 12 12 12 12 12 12
18 18 18 18 18 18 18 18 18 18 18 18 18 18 18 18 18 18 18 18 18 18 18 17 15 15 15 14 14 13 13 12 12 12 12 11 11 11 11 12 12 12 12
18 18 18 18 18 18 18 18 18 18 18 18 18 18 18 18 18 18 17 17 17 17 18 17 16 15 15 15 14 14 13 13 12 12 12 11 11 11 11 11 11 11 12
18 18 18 18 18 18 18 18 18 18 18 18 19 19 19 18 18 18 18 17 17 17 17 17 17 16 15 15 15 14 14 13 13 12 12 11 11 11 11 11 11 11 11
18 18 18 18 18 18 18 18 18 18 19 19 19 18 18 18 18 18 18 18 17 16 17 17 16 16 16 15 15 15 14 14 13 12 12 12 11 11 11 11 11 11 11
18 18 18 18 18 18 18 18 18 18 18 18 18 18 18 18 18 18 18 18 18 16 16 16 16 16 16 15 15 15 15 15 13 13 12 12 11 11 11 11 11 11 11
18 18 18 18 18 18 18 18 18 18 18 18 17 18 18 18 18 18 18 18 17 16 15 15 15 15 16 15 15 14 14 14 14 13 13 12 12 11 11 11 11 11 11
18 17 17 18 18 17 18 18 18 17 17 17 17 17 18 20 19 18 17 17 17 16 15 15 15 15 15 15 15 14 14 14 14 14 13 13 12 12 11 11 11 11 11
16 16 16 16 16 16 16 17 16 16 15 16 15 16 17 19 18 18 17 16 16 16 15 14 14 14 14 14 14 13 14 13 13 13 14 14 12 12 12 11 11 11 11
16 16 15 15 15 15 15 15 15 15 15 15 14 14 14 14 15 16 16 16 15 15 14 15 15 13 13 14 13 13 13 13 13 12 13 13 14 12 11 11 11 11 11
16 16 15 15 14 14 14 13 13 13 13 14 14 14 14 13 13 13 14 15 14 14 14 13 13 13 12 11 11 12 12 12 12 11 12 13 13 12 11 11 11 11 11
13 14 14 14 13 13 13 13 12 13 12 13 13 14 13 13 13 12 12 13 13 14 14 14 13 11 10 11 11 11 12 11 11 9 10 12 12 12 11 11 10 10 10
12 11 13 12 12 12 12 12 12 12 12 13 13 13 13 13 13 12 11 12 12 13 13 12 11 10 9 9 9 10 10 10 10 10 9 10 11 11 11 11 11 11 10
11 11 11 11 11 11 11 11 11 12 12 13 13 13 13 13 12 12 12 12 12 13 12 13 9 9 8 9 9 10 9 10 9 9 8 7 8 9 9 10 10 10 9
9 10 10 10 10 10 10 10 11 11 11 12 12 12 12 11 11 11 11 11 11 11 13 11 10 8 7 8 8 8 8 7 8 7 7 9 9 8 8 9 9 8 9
9 9 9 9 9 9 9 8 9 10 10 10 10 10 10 10 9 9 9 9 9 9 10 9 6 7 7 6 6 6 6 5 5 4 6 7 7 7 7 8 7 6 6
8 8 8 8 8 8 7 7 8 9 9 9 9 9 8 7 7 7 7 8 7 7 8 6 6 5 4 4 3 4 3 4 4 4 4 5 5 5 6 6 5 6 6
7 6 6 6 6 6 6 6 6 6 6 6 6 6 6 6 5 5 6 6 6 5 6 7 3 3 3 3 2 2 2 3 3 3 3 4 4 4 4 4 4 5 5
4 4 4 4 4 5 4 4 4 4 4 4 4 4 4 4 4 4 4 4 3 3 3 4 3 2 2 2 1 1 1 2 2 2 2 3 3 3 3 3 3 4 4
4 4 3 2 3 3 3 3 2 2 2 2 2 2 2 3 2 2 2 2 2 2 2 3 2 2 1 -0 -0 -0 2 1 1 1 1 2 2 2 2 2 2 2 2
3 2 2 2 1 1 1 2 2 2 2 1 1 1 1 1 1 1 1 1 1 2 2 2 2 2 2 1 0 0 2 2 1 -0 1 1 1 1 1 0 0 1 1
2 2 1 1 1 1 1 1 1 1 1 1 0 1 1 1 0 0 -0 -0 0 1 -0 0 2 3 1 1 1 0 1 1 2 -1 -0 1 0 0 0 0 -1 0 0
1 1 1 1 1 0 0 0 1 1 1 0 -0 0 0 -0 -0 -0 -1 -1 -1 -1 -1 0 1 1 1 -0 -2 -1 -1 -1 0 -0 -2 0 -0 -0 -0 -1 -2 -1 -1
1 1 1 0 0 0 -1 1 1 1 0 0 0 -0 -1 -1 -1 -1 -2 -2 -2 -1 -2 -2 -1 -1 -2 -2 -2 -3 -2 -2 -1 -1 -3 -1 -1 -1 -1 -1 -2 -2 -3
0 0 0 -0 -1 -1 0 0 1 0 -0 -0 -1 -1 -1 -1 -2 -2 -2 -2 -2 -2 -3 -3 -3 -3 -3 -3 -3 -2 -2 -2 -1 -1 -2 -3 -1 -2 -1 -1 -2 -2 -2
0 -0 -0 -1 -1 -1 -1 -0 -0 -1 -1 -1 -2 -2 -2 -2 -2 -3 -2 -2 -1 -2 -3 -3 -3 -3 -4 -4 -3 -4 -3 -3 -2 -2 -3 -3 -3 -3 -2 -1 -2 -2 -2

GFSMA_925_temp_063.txt.gz
Temp
20 20 20 20 20 20 20 20 20 20 20 20 20 20 20 20 20 20 19 19 18 18 18 16 16 15 15 14 13 13 13 13 12 12 12 12 12 12 12 12 12 12 12
20 20 20 20 20 20 20 20 20 20 20 20 20 20 20 20 19 19 19 19 18 18 18 18 16 16 15 15 15 14 13 13 12 12 12 12 12 12 12 12 12 12 12
20 20 20 20 20 20 20 20 20 20 20 20 20 20 20 20 20 19 19 18 18 18 18 18 18 16 16 15 15 15 15 14 13 12 12 12 11 11 11 11 11 12 12
20 20 20 20 20 20 20 20 20 20 20 20 20 21 21 20 20 19 19 19 18 18 18 17 17 17 16 15 15 15 14 14 14 14 13 12 11 11 11 11 11 11 12
20 20 20 20 20 20 20 20 20 20 20 20 20 20 20 20 20 20 19 19 19 18 17 17 17 17 17 16 15 15 15 14 13 13 13 13 12 11 11 11 11 11 11
20 20 20 20 20 20 20 20 20 20 19 19 19 19 19 19 19 19 19 19 19 19 18 17 16 16 16 16 16 15 15 15 14 13 13 12 12 12 11 11 11 11 11
20 20 19 20 19 19 19 20 20 19 19 19 18 18 18 19 19 19 19 19 19 18 17 16 16 16 16 16 16 15 14 15 14 14 14 13 12 12 12 11 11 11 11
19 19 19 19 19 19 19 19 19 19 18 18 17 17 17 19 20 20 19 18 18 18 17 16 16 16 16 15 15 15 14 14 14 14 14 13 13 12 12 12 11 11 11
18 18 18 17 17 17 17 17 17 17 16 17 17 16 17 19 19 19 18 18 17 17 17 15 15 15 14 14 14 14 13 13 13 13 13 13 13 13 12 12 12 12 11
16 16 16 15 15 16 16 16 15 15 15 15 15 16 16 15 15 16 18 17 17 16 16 15 14 14 14 13 13 13 13 13 13 13 12 13 13 13 13 12 12 12 12
16 16 16 15 15 15 14 14 14 14 14 14 15 15 14 14 14 14 15 15 16 15 14 14 14 13 13 12 11 11 12 12 12 12 11 12 12 13 13 12 12 11 12
14 14 14 14 13 13 13 13 13 13 13 13 13 13 14 14 13 12 12 14 14 14 15 15 13 12 11 10 10 10 10 11 11 11 10 10 11 11 11 12 12 11 12
15 13 12 12 12 12 12 12 12 12 12 12 13 13 14 14 14 13 13 12 12 13 13 14 12 10 9 9 9 9 9 10 10 10 10 9 9 9 10 11 11 11 12
14 12 11 11 11 11 11 11 11 12 12 12 13 13 13 13 13 13 12 12 11 12 12 13 10 9 8 8 9 9 7 9 10 9 9 10 10 10 10 10 11 11 11
11 10 10 10 10 10 10 10 11 12 11 11 11 12 12 12 12 11 11 11 12 11 12 12 10 8 7 7 7 7 6 6 6 5 6 8 9 9 9 8 9 9 10
9 9 9 9 9 9 9 9 9 9 10 10 10 10 10 10 10 10 10 10 10 10 11 9 7 6 6 5 5 5 5 4 4 4 4 5 6 7 7 7 8 8 8
8 8 8 8 8 8 8 8 8 8 9 9 9 9 9 8 8 8 8 8 8 8 9 7 7 5 5 5 4 3 3 3 3 3 4 4 5 5 5 5 6 6 6
7 7 7 7 7 7 7 8 7 7 8 8 7 7 7 7 7 6 7 7 7 6 7 8 5 4 3 3 2 2 2 2 2 3 3 4 4 4 4 5 5 5 5
7 6 6 6 6 5 5 6 6 6 6 6 6 5 5 6 5 5 5 5 4 4 4 4 3 3 2 3 1 1 1 2 1 2 2 2 3 4 4 4 4 4 4
6 6 5 4 4 3 3 3 3 4 3 3 3 3 3 3 3 3 3 3 3 3 3 4 3 2 1 1 0 0 3 3 2 1 2 2 2 2 2 2 2 2 2
5 4 3 3 2 2 2 2 3 2 2 2 2 2 2 2 2 2 2 2 2 2 2 2 3 3 2 2 1 1 2 2 3 1 1 2 1 1 1 1 1 0 1
3 3 2 2 2 2 2 2 2 2 2 1 1 1 1 1 0 0 -0 -0 0 1 -0 1 2 3 3 2 2 1 1 0 2 0 -0 0 1 0 1 0 0 -0 0
2 2 2 2 1 1 1 1 1 1 1 1 1 1 0 0 0 -0 0 0 -0 1 0 1 2 2 1 -0 -1 -1 -1 -1 0 -0 -1 -0 1 -0 0 -0 -1 -1 -1
1 1 1 1 1 0 0 0 1 1 1 0 0 0 0 -0 -1 -1 -1 -1 -1 -1 -1 -1 -1 -1 -1 -1 -2 -2 -2 -2 -1 -0 -1 -1 0 -1 -1 -1 -1 -1 -1
1 1 1 0 0 -0 -1 0 1 0 0 0 -0 -1 -0 -0 -1 -1 -1 -1 -1 -1 -2 -2 -2 -2 -2 -2 -2 -2 -2 -2 -1 -0 -2 -2 -1 -1 -1 -1 -1 -1 -1
1 0 0 0 -1 -1 -1 0 0 -0 -0 -1 -1 -1 -0 -1 -2 -2 -1 -1 -1 -1 -2 -2 -2 -2 -3 -3 -3 -3 -3 -3 -2 -2 -2 -3 -3 -3 -3 -0 -1 -1 -1

GFSMA_925_temp_066.txt.gz
Temp
20 20 20 20 20 20 20 20 20 20 20 20 20 20 19 19 19 20 20 19 19 19 18 17 16 16 15 15 14 13 13 13 13 13 13 13 13 12 12 12 12 12 12
20 20 20 20 20 20 20 20 20 20 20 20 20 20 20 20 19 19 19 19 19 18 18 18 17 16 15 15 15 15 14 13 13 12 12 12 12 12 12 12 12 12 12
20 20 20 20 20 20 20 20 20 20 20 20 20 20 20 20 20 20 19 19 18 18 18 18 18 17 16 16 15 15 15 15 14 14 14 13 12 12 12 12 12 12 12
20 20 20 20 20 20 20 19 19 19 19 20 20 20 20 20 20 20 19 19 19 18 18 18 17 17 17 16 16 16 15 14 14 14 14 13 13 12 11 11 11 11 12
20 20 20 20 20 20 20 19 19 19 20 20 20 20 20 20 20 20 19 19 19 19 19 18 17 17 17 16 15 16 15 15 14 14 13 13 12 12 11 11 11 11 11
20 20 20 20 20 20 20 19 19 19 19 19 19 19 19 19 19 19 19 19 19 19 19 18 17 17 16 16 16 16 15 15 14 14 13 13 12 12 12 11 11 11 11
20 20 20 20 20 20 19 19 19 19 19 19 19 18 18 18 19 19 19 19 19 19 18 18 17 16 16 16 16 15 15 14 15 14 14 13 13 13 13 12 12 11 11
20 20 19 19 19 19 19 19 18 18 19 19 18 17 16 18 19 19 19 18 18 18 17 17 16 16 16 15 15 15 14 14 14 14 14 14 14 13 13 12 12 12 11
19 19 19 18 18 18 18 18 18 17 17 17 17 17 15 15 16 18 18 18 18 17 17 16 16 15 15 14 14 14 14 14 14 14 13 13 13 13 13 13 12 12 12
18 18 17 17 17 17 17 16 16 16 15 15 15 16 16 16 15 15 17 17 17 16 16 15 15 14 14 13 13 13 13 13 13 13 12 12 12 13 13 13 13 12 12
17 17 17 16 16 15 15 15 15 14 14 14 15 15 15 16 16 14 14 15 16 16 15 15 14 13 12 12 12 12 11 12 12 12 11 11 12 12 12 12 12 12 12
16 16 15 15 14 14 14 14 13 13 13 13 13 13 14 14 13 14 12 13 13 14 14 14 13 13 12 12 10 10 10 10 10 10 10 10 10 10 10 11 12 12 12
15 14 14 14 13 13 12 13 13 12 12 12 12 12 13 13 14 14 12 12 12 13 13 12 12 11 10 10 9 9 9 10 9 8 8 8 10 11 11 11 11 10 11
14 13 13 12 12 11 12 11 11 11 12 12 12 12 12 12 13 13 13 13 11 11 12 11 9 9 10 9 9 8 8 8 8 6 7 9 10 10 10 10 10 10 11
13 12 12 11 11 11 10 10 10 10 11 11 11 10 11 12 12 12 12 12 11 11 10 10 8 8 8 8 8 7 7 5 5 5 5 6 7 8 8 9 9 9 9
11 11 10 10 10 10 10 9 9 9 10 10 10 9 10 10 10 10 10 10 10 11 10 9 7 6 6 5 5 5 4 3 4 4 4 5 6 7 7 7 7 8 7
10 9 9 9 9 9 8 8 8 8 8 9 9 9 9 8 8 9 9 9 9 9 9 7 6 5 4 4 4 3 3 3 3 3 3 4 4 5 5 6 6 6 6
8 8 8 8 7 7 7 8 8 7 8 8 7 7 7 7 8 8 7 7 7 7 7 7 5 4 3 2 2 2 2 2 2 2 3 3 4 4 4 4 5 5 5
7 7 7 6 6 6 6 6 6 6 6 6 6 6 6 6 6 5 5 5 5 5 5 5 4 3 2 3 1 1 1 2 2 2 2 2 3 3 3 3 3 4 4
6 6 6 5 5 4 4 5 5 5 5 4 4 4 4 4 3 3 3 3 3 3 3 4 3 3 2 1 0 1 2 2 2 2 2 2 2 2 2 2 2 2 2
5 5 5 4 3 3 2 3 3 3 3 3 2 2 2 2 2 2 2 2 2 3 3 3 4 3 3 2 1 1 1 1 1 1 2 1 1 1 1 1 1 1 1
4 4 4 3 3 2 2 2 2 2 2 2 2 1 1 1 0 0 1 1 1 1 1 2 3 2 2 2 1 1 0 -0 -0 0 0 1 1 1 0 0 0 0 0
3 3 3 2 2 2 2 2 2 2 2 1 1 1 1 1 1 0 0 -0 1 0 0 0 1 1 0 0 -0 -1 -1 -1 -1 -0 -1 -0 0 0 -0 -0 -1 -1 -1
2 2 2 1 1 1 1 1 1 1 0 0 1 1 0 0 -0 -0 -0 -0 -1 -1 -0 -0 -0 -1 -1 -1 -1 -2 -2 -2 -1 -1 -1 -2 -1 -1 -0 -1 -1 -1 -1
2 1 1 1 1 0 -1 -1 1 0 1 0 0 -0 -0 -1 -1 -1 -1 -1 -1 -1 -1 -1 -1 -1 -1 -1 -2 -2 -2 -2 -2 -1 -2 -2 -2 -2 -1 -1 -1 -1 -1
1 1 1 1 0 -0 -1 0 0 0 0 -0 -0 -0 -0 -1 -1 -1 -1 -1 -1 -1 -2 -2 -2 -2 -2 -2 -2 -2 -3 -3 -3 -3 -3 -2 -3 -3 -3 -1 -1 -1 -1

GFSMA_925_temp_069.txt.gz
Temp
20 19 19 19 19 19 19 19 19 19 19 19 19 19 19 19 19 19 19 19 19 19 18 18 16 16 15 15 15 15 14 14 14 13 13 13 13 12 12 12 12 12 12
20 20 20 20 20 20 20 20 20 20 20 20 19 19 19 19 19 19 19 19 19 19 18 18 18 16 16 15 15 14 14 15 15 14 14 13 13 13 12 12 12 12 12
20 20 20 20 20 20 20 20 20 20 19 19 19 19 19 19 20 19 19 19 19 19 18 18 18 17 16 16 15 15 15 14 14 14 14 13 12 13 12 12 12 12 12
20 20 20 20 20 19 19 19 19 19 19 19 19 19 20 20 20 20 20 19 19 19 19 18 18 17 17 16 16 15 15 15 14 14 14 13 13 12 12 12 11 11 12
20 20 20 19 20 19 19 19 19 19 19 19 20 20 20 19 20 19 19 19 19 19 19 19 18 17 17 16 16 15 15 15 15 14 14 13 13 13 12 11 11 11 11
20 20 19 19 19 20 20 19 19 20 19 20 19 20 19 19 19 19 19 19 19 18 19 18 18 17 16 16 16 16 15 15 15 14 14 13 13 13 12 12 11 11 11
20 20 19 19 20 20 20 20 19 19 19 19 19 19 19 19 19 19 19 19 18 18 18 17 17 17 16 16 15 15 15 15 14 14 14 14 13 13 13 13 12 12 11
20 20 20 19 20 19 19 19 19 19 19 19 19 18 15 17 19 19 19 19 18 18 17 17 16 16 15 15 15 15 15 15 15 14 14 14 14 13 13 13 13 12 12
20 20 19 19 19 19 19 19 18 18 18 18 18 17 15 15 15 18 18 18 17 17 17 16 16 15 15 15 14 14 14 13 13 13 12 13 13 13 13 13 13 13 12
19 19 19 18 18 18 18 17 17 17 16 15 15 16 16 15 14 14 16 17 16 16 16 16 15 15 14 14 14 13 13 13 12 12 11 12 12 12 13 13 13 13 12
18 18 17 17 16 16 16 16 15 15 14 14 14 14 14 15 15 14 13 14 16 15 14 14 14 14 13 13 12 12 12 12 11 11 10 11 11 11 11 12 11 12 13
17 17 17 16 16 15 14 14 14 13 13 13 13 13 13 13 13 13 12 13 13 15 14 13 12 12 12 11 11 11 11 11 10 9 9 10 9 9 10 10 10 11 11
16 16 15 15 14 14 13 13 13 13 13 12 12 12 12 13 13 13 13 12 12 13 12 11 10 11 10 10 10 9 10 10 9 8 8 8 8 10 10 11 11 11 11
15 15 14 14 13 13 13 12 12 12 12 11 11 11 12 12 12 12 12 12 10 11 11 9 8 9 9 8 8 8 8 8 7 6 6 6 8 9 9 10 10 10 11
14 14 13 13 12 12 12 11 11 11 10 11 11 11 11 11 11 12 12 12 11 11 11 8 7 6 7 7 7 7 7 6 5 5 5 5 6 7 8 9 9 9 9
13 13 12 11 11 11 10 10 10 9 9 9 10 10 10 10 10 10 10 10 11 11 10 8 6 5 5 6 5 6 5 3 4 4 4 4 6 7 7 7 7 8 8
12 11 10 10 9 9 9 9 9 9 9 9 9 9 9 9 9 9 9 9 9 9 9 6 6 5 5 5 5 4 3 3 3 2 3 3 4 5 5 6 6 6 6
10 10 9 9 8 8 8 8 8 8 8 8 8 8 8 8 8 8 8 8 8 8 8 6 4 4 4 4 3 2 2 2 2 2 2 2 3 4 5 5 5 5 5
9 8 8 7 7 7 7 7 7 7 7 7 7 7 8 7 7 7 6 6 6 5 6 6 4 3 3 3 2 1 1 2 2 2 2 2 3 3 3 3 4 4 4
7 7 6 6 6 6 5 5 5 5 5 5 5 5 5 5 5 4 4 4 3 4 4 4 4 3 3 1 1 1 1 1 1 2 2 2 2 2 2 2 2 2 2
6 6 6 5 5 4 3 3 3 4 4 4 3 3 3 3 3 3 3 3 3 3 3 3 3 3 3 2 1 1 1 1 1 1 1 1 1 1 1 1 1 1 1
5 5 5 4 4 4 3 2 2 3 3 3 2 2 2 2 1 1 2 2 2 2 2 3 3 3 1 1 1 0 0 -0 -0 -0 0 1 0 0 0 0 0 0 0
4 4 4 3 3 3 2 2 2 2 2 2 1 1 1 1 1 1 -0 0 0 1 1 1 1 1 1 1 0 -0 -1 -1 -1 -1 -1 -0 -0 -0 -0 -1 -1 -0 -0
3 3 3 2 2 2 2 2 1 2 1 1 1 1 1 1 0 0 0 0 -0 -0 0 0 0 0 -0 -0 -1 -1 -1 -2 -2 -1 -1 -1 -1 -1 -1 -1 -1 -1 -1
2 2 2 2 1 1 1 0 1 1 0 0 0 0 0 -0 -0 -1 -0 -0 -1 -1 -1 -1 -1 -1 -1 -2 -2 -2 -2 -2 -2 -2 -2 -2 -2 -2 -1 -1 -1 -1 -1
2 2 1 1 1 1 0 -0 0 0 0 -0 -0 -0 -0 -0 -1 -1 -1 -1 -1 -1 -2 -1 -2 -2 -2 -2 -2 -2 -2 -3 -3 -3 -3 -3 -3 -3 -2 -1 -1 -1 -1

GFSMA_925_temp_072.txt.gz
Temp
19 19 19 19 19 19 19 19 19 19 19 19 19 19 19 19 19 19 19 19 19 19 18 18 16 16 15 15 15 15 15 15 14 14 14 13 13 13 12 12 12 12 13
19 19 19 19 19 19 19 19 19 19 19 19 19 19 19 19 19 19 19 19 19 19 18 18 18 17 16 15 15 14 15 15 14 14 14 13 13 13 12 12 12 12 12
20 19 19 19 19 19 19 19 19 19 19 19 19 19 19 19 19 19 19 19 19 19 18 18 18 18 18 17 15 15 15 14 14 14 14 13 13 13 13 12 12 12 12
20 19 19 19 19 19 19 19 19 19 19 19 19 19 19 19 20 20 20 19 19 19 19 18 18 18 18 17 16 16 15 15 14 14 14 14 13 13 13 12 12 12 12
20 19 19 19 19 19 19 19 19 19 19 19 19 20 20 20 19 19 19 19 19 18 18 18 18 18 17 17 16 15 15 15 15 14 14 14 14 13 13 12 11 11 12
20 20 19 19 19 19 19 19 19 19 19 19 19 19 20 19 19 19 19 19 19 18 18 18 18 17 16 16 16 16 15 15 15 14 14 14 13 13 14 13 12 12 11
20 20 19 19 19 19 20 20 19 19 19 19 19 19 19 19 19 19 19 19 18 18 18 18 17 17 16 16 16 16 16 15 15 15 15 14 14 13 13 13 12 12 12
21 20 19 19 19 19 20 19 19 18 18 19 19 18 14 17 18 18 18 18 18 17 17 17 17 17 16 16 16 15 15 15 15 14 13 13 13 14 13 13 13 12 12
20 20 20 19 19 19 19 19 19 18 18 18 18 17 15 14 14 18 17 17 17 16 16 17 16 16 16 15 15 14 14 14 14 13 12 12 12 13 13 14 13 13 13
20 20 19 19 19 19 18 18 18 17 16 16 16 15 15 15 14 14 16 16 16 16 16 15 15 15 14 14 14 14 13 13 12 11 11 12 12 12 13 12 12 13 13
19 18 19 19 18 18 18 17 16 16 15 14 14 14 14 14 14 13 14 14 15 15 14 14 13 13 13 13 12 13 12 12 11 10 10 11 11 11 11 12 11 11 12
18 17 17 17 17 17 17 16 16 15 14 14 13 13 13 12 12 12 11 11 12 13 13 13 12 12 12 11 11 11 11 10 10 9 9 9 9 9 9 9 10 10 11
16 16 16 17 17 17 16 16 14 14 13 13 13 12 12 12 12 12 12 11 11 13 11 10 10 10 10 10 10 10 10 10 10 9 7 8 8 10 10 10 10 9 10
17 16 16 16 16 14 14 14 13 13 12 12 12 11 11 12 12 12 11 11 11 11 10 9 8 9 8 9 9 9 9 9 9 6 6 6 7 8 9 9 9 9 10
15 14 15 15 14 13 12 12 12 12 11 11 11 11 11 11 11 11 11 11 11 11 10 7 7 7 7 7 7 7 7 7 6 5 5 5 6 8 8 9 8 9 9
15 14 13 12 12 12 12 11 11 11 10 10 10 10 10 10 10 9 9 10 10 11 10 8 6 5 5 5 6 5 6 6 4 4 4 4 5 6 7 7 8 8 8
13 12 11 11 10 10 10 9 10 9 9 9 9 9 9 9 9 9 9 9 9 9 9 5 5 5 4 4 4 4 5 3 3 3 3 3 4 5 6 6 7 7 7
11 11 10 9 9 9 9 8 8 8 8 8 8 8 8 8 8 8 8 8 8 7 8 6 4 4 4 3 4 4 3 2 2 2 2 2 2 3 4 5 5 6 6
10 9 9 8 8 8 8 7 7 7 7 7 7 8 7 7 7 7 7 7 7 7 6 6 4 3 3 3 3 2 1 2 2 2 2 2 2 2 2 2 4 4 4
9 8 8 8 7 7 6 6 6 6 6 6 6 6 6 6 6 6 5 5 5 5 4 4 3 3 3 2 2 1 1 1 1 1 2 2 2 2 1 1 2 2 3
8 7 7 6 6 5 5 4 4 4 4 4 4 4 4 4 3 3 3 3 4 3 3 4 3 3 2 1 1 1 1 1 1 1 1 1 1 1 1 1 1 1 2
7 6 5 5 5 4 5 4 3 3 3 3 3 3 2 2 2 2 2 3 3 3 3 3 3 3 2 2 1 1 0 0 -0 -0 0 1 0 0 0 0 -0 -0 -0
5 5 4 4 4 4 3 3 3 2 2 2 2 2 2 1 1 1 0 1 1 1 1 2 2 2 1 1 1 0 -0 -0 -0 -1 -1 -1 -0 -0 -0 -0 -1 -1 -1
4 4 4 3 3 3 2 2 2 2 2 2 1 1 1 1 1 1 0 1 0 0 1 1 1 1 1 0 -0 -0 -1 -1 -2 -2 -1 -1 -1 -1 -1 -1 -1 -1 -1
3 3 3 3 2 2 2 1 1 1 1 1 1 1 1 1 0 -0 -0 -0 -1 -1 -1 -0 -1 -1 -1 -1 -1 -1 -2 -2 -2 -2 -2 -2 -2 -2 -1 -1 -1 -1 -2
2 2 2 2 2 2 1 1 0 1 0 0 0 0 -0 0 -1 -1 -0 -0 -1 -1 -1 -1 -1 -2 -2 -2 -2 -2 -2 -2 -3 -3 -3 -2 -3 -2 -2 -2 -2 -1 -1

GFSMA_925_temp_075.txt.gz
Temp
18 18 18 18 18 18 18 18 18 18 18 18 18 18 19 19 19 19 19 19 19 19 18 18 17 16 15 16 15 15 15 15 15 15 14 14 14 13 12 12 12 12 13
19 19 19 19 19 18 18 18 18 18 18 18 19 18 19 19 19 19 19 19 19 19 18 18 18 17 17 16 15 15 15 15 15 14 14 14 14 13 13 13 12 12 12
19 19 19 19 19 19 19 19 19 19 19 18 18 18 18 19 19 19 19 19 19 19 18 18 18 17 18 18 17 15 15 15 15 15 15 14 14 13 13 13 12 12 12
19 19 19 19 19 19 19 19 19 19 18 18 19 19 19 19 19 19 20 20 20 19 18 18 18 18 18 17 17 16 16 15 15 14 14 14 14 14 13 13 12 12 12
19 19 19 19 19 19 19 19 19 19 19 19 19 19 19 20 19 19 19 19 19 19 18 18 18 18 17 17 17 16 15 15 15 15 14 14 13 14 14 14 12 12 12
20 20 19 19 19 19 19 19 19 19 19 19 19 19 20 19 19 19 19 19 18 18 18 18 18 18 17 17 17 16 16 15 15 15 15 14 14 13 13 14 13 12 12
20 20 19 19 19 19 19 19 19 19 19 19 18 19 19 19 19 19 19 18 18 18 18 18 17 17 16 17 16 16 16 15 15 14 14 14 15 14 14 13 13 12 12
20 20 20 19 19 19 19 19 19 19 19 18 18 17 14 17 18 18 18 18 18 18 17 17 17 17 16 16 16 15 15 14 14 13 13 13 13 13 14 14 13 13 12
20 20 20 20 19 19 19 19 19 18 18 18 18 17 15 13 13 17 17 17 17 16 16 16 16 16 16 15 15 14 14 14 13 12 12 12 12 12 13 13 13 13 13
20 20 20 19 19 19 18 18 18 18 18 17 16 16 16 15 14 13 15 15 15 15 15 15 15 15 14 14 14 14 13 13 13 11 11 12 12 12 12 12 12 12 12
18 19 19 19 19 19 19 19 18 17 16 16 15 14 14 14 14 12 12 13 14 14 14 14 14 13 13 13 13 13 12 12 12 10 10 10 10 10 11 11 11 12 11
17 16 18 19 18 18 18 18 16 15 15 15 14 14 13 13 12 11 10 11 11 12 12 12 12 12 12 11 11 11 11 11 11 9 9 9 9 9 9 10 10 10 10
17 16 16 19 19 19 18 17 16 15 14 13 13 13 12 12 12 11 11 10 10 12 11 10 10 10 10 10 10 10 10 10 10 10 8 7 7 8 8 9 9 9 10
18 16 15 15 15 15 14 14 14 14 13 12 12 12 12 11 11 11 10 10 11 10 10 9 8 9 9 9 9 9 9 9 9 9 9 6 6 7 8 9 9 9 9
16 15 16 16 15 14 13 12 13 12 12 11 11 11 10 10 11 11 10 9 10 11 11 7 7 7 7 7 7 7 7 7 6 7 6 5 6 7 7 8 8 9 9
16 16 15 15 16 13 12 12 11 11 10 11 10 10 9 10 10 10 9 9 9 10 10 8 6 6 6 6 6 6 6 5 4 4 4 4 5 5 6 7 7 8 8
13 13 13 13 13 13 12 10 10 10 10 9 9 9 9 8 9 8 8 9 8 9 9 6 6 5 5 5 5 5 4 4 4 3 4 4 4 5 6 7 6 7 7
13 13 12 12 11 11 10 10 9 8 8 8 8 8 8 8 8 8 7 8 8 8 7 6 4 4 4 3 4 3 3 3 2 2 2 3 3 3 4 5 5 6 6
12 11 11 11 10 9 8 8 7 7 7 7 7 7 7 7 7 7 7 6 6 6 6 6 4 3 3 3 2 2 3 2 2 2 2 2 2 2 2 3 4 4 5
11 10 10 9 8 8 7 6 6 6 5 6 6 6 6 6 6 6 6 6 5 5 5 5 4 3 3 2 2 2 1 1 1 2 2 2 2 2 1 1 2 3 3
9 9 8 7 7 6 6 5 5 4 4 4 5 5 5 5 5 4 4 4 4 4 4 4 3 2 2 1 2 1 1 1 1 1 1 1 1 2 1 1 1 1 2
8 7 7 6 6 5 5 5 5 4 3 3 3 3 3 3 3 3 3 3 3 3 3 3 3 3 2 2 2 1 0 -0 -0 -0 0 1 1 1 1 0 0 0 0
7 6 6 5 5 4 4 4 3 3 4 3 2 2 2 2 2 2 1 2 1 2 2 2 3 3 2 2 1 0 0 0 -0 -1 -1 -0 -1 -0 -0 -0 -0 -1 -0
6 5 5 4 4 4 3 3 2 2 2 2 2 2 1 1 1 1 1 1 1 1 1 1 1 1 1 1 0 0 -0 -1 -1 -1 -1 -1 -1 -1 -1 -0 -1 -1 -1
5 5 4 3 3 3 3 2 2 2 2 1 1 1 1 1 1 0 0 0 -0 -0 -0 -0 -0 -0 -0 -0 -1 -1 -1 -2 -2 -2 -2 -2 -2 -1 -1 -1 -1 -2 -1
5 4 3 3 3 3 2 2 1 1 0 1 1 0 0 0 -0 -1 -0 -0 -1 -1 -1 -1 -1 -1 -1 -2 -2 -2 -2 -2 -2 -3 -2 -2 -3 -2 -2 -2 -2 -2 -2

GFSMA_925_temp_078.txt.gz
Temp
18 18 18 18 18 18 18 18 18 18 18 18 18 18 18 18 18 18 18 18 18 18 18 18 17 17 16 16 15 15 15 15 15 15 15 14 14 14 13 13 13 13 13
18 18 18 18 18 18 18 18 18 18 18 18 18 18 18 18 18 18 19 19 19 19 18 18 17 17 17 17 16 15 15 15 15 15 15 15 15 14 14 13 13 13 13
19 19 18 18 18 18 18 18 18 18 18 18 18 18 18 18 19 19 19 19 19 19 19 18 18 17 17 18 17 16 15 15 15 15 16 15 15 15 14 14 13 12 12
19 19 19 19 19 18 18 18 18 18 18 18 18 18 18 19 19 19 19 19 19 19 19 18 18 17 17 17 17 16 16 15 15 15 15 14 13 15 15 14 14 12 12
19 19 19 19 18 18 18 18 18 18 18 18 18 18 19 19 19 19 19 19 19 18 18 18 18 17 17 18 17 17 16 16 15 15 15 15 14 13 13 15 14 13 12
19 19 19 19 18 18 18 18 18 18 18 19 19 19 19 19 19 19 19 18 18 18 18 18 18 17 17 17 17 16 16 15 15 15 15 15 15 14 14 13 14 14 12
19 19 19 19 18 18 19 19 18 18 18 19 19 19 19 19 19 19 18 18 18 18 17 18 17 17 17 17 16 16 16 15 14 14 14 15 14 14 14 14 13 13 13
20 20 19 19 19 18 18 18 18 18 19 19 18 17 14 16 18 18 18 18 17 17 17 18 17 16 16 16 16 15 15 15 14 14 13 13 13 13 13 13 13 13 13
19 20 20 18 18 18 18 17 18 18 18 18 18 17 14 13 13 16 17 16 16 16 16 16 16 16 16 15 15 15 14 14 14 12 12 12 12 12 12 12 13 13 13
17 16 18 19 17 17 18 18 18 18 18 18 17 16 16 15 14 12 15 15 15 15 15 15 15 15 15 14 14 14 13 13 12 12 12 11 11 11 11 12 12 12 12
18 17 17 16 18 17 17 18 18 17 16 17 16 14 14 14 13 12 11 12 14 14 14 14 13 13 14 13 13 12 12 12 12 11 11 10 10 10 10 10 11 11 11
18 18 17 16 15 15 15 17 17 17 16 16 15 14 13 13 12 11 10 10 10 12 13 13 12 12 12 12 11 11 11 11 11 11 10 9 8 8 9 9 10 10 10
18 17 16 16 16 16 16 15 15 15 14 14 13 13 12 12 11 11 10 10 9 12 12 11 11 11 10 10 10 10 10 10 10 9 9 9 8 7 8 9 9 9 10
17 17 17 16 16 16 15 15 14 14 13 13 13 12 12 12 11 10 10 10 10 10 10 11 10 9 9 9 8 9 9 9 9 9 6 8 8 7 8 9 9 9 10
18 17 17 16 15 14 14 15 14 14 13 12 12 11 10 10 10 10 10 10 9 10 10 8 9 8 7 7 7 7 7 7 7 7 5 6 6 6 7 8 8 8 9
15 15 13 13 13 13 13 13 13 12 12 11 10 10 9 9 9 9 9 9 9 8 9 9 8 8 6 6 6 6 6 6 6 5 4 4 5 5 5 6 6 7 9
14 14 13 13 12 13 12 11 11 11 10 10 9 9 9 8 8 8 8 8 8 8 8 7 6 5 5 5 5 5 5 5 5 4 4 4 4 4 4 6 6 7 7
13 13 13 13 12 11 11 11 10 9 9 9 8 8 8 7 7 7 7 7 7 7 7 6 5 5 4 4 4 4 4 4 3 3 3 3 3 3 3 5 5 5 6
13 12 12 12 11 11 10 9 9 8 8 7 7 7 7 7 7 7 7 7 6 6 6 6 5 4 4 3 3 3 3 3 2 2 2 2 2 2 3 3 4 4 4
11 11 10 10 9 9 8 8 7 7 6 5 5 5 5 6 6 6 6 6 6 5 5 5 4 3 3 3 2 2 2 2 2 2 2 2 2 2 1 1 3 3 4
10 9 9 8 8 7 7 6 6 5 5 4 4 4 5 5 5 5 5 4 4 4 4 4 3 2 2 1 1 2 1 1 1 1 1 1 2 2 1 1 2 2 2
9 8 8 8 7 7 6 5 5 4 4 5 3 3 3 3 3 3 3 4 3 3 3 3 3 3 2 2 2 2 1 -0 0 0 0 1 1 1 1 1 1 1 1
8 7 7 6 6 5 5 4 4 4 3 4 3 2 2 2 2 2 2 2 2 2 2 2 2 2 2 3 2 1 0 0 0 -0 -0 -0 -0 0 0 -0 -0 -0 -0
7 7 6 5 5 5 4 4 3 3 2 3 3 2 2 2 1 1 1 1 1 1 1 1 1 2 2 1 1 1 1 -0 -1 -1 -1 -1 -1 -1 -1 -1 -1 -1 -1
6 6 5 5 4 4 4 3 2 2 2 2 2 1 1 1 1 0 0 0 -0 -0 -0 -0 0 -0 0 -0 -0 0 -0 -1 -2 -2 -2 -2 -2 -1 -1 -1 -1 -2 -1
6 5 4 4 4 4 3 2 2 2 1 1 1 1 1 1 1 -0 -0 -0 -1 -1 -1 -1 -1 -0 -1 -2 -1 -1 -1 -2 -2 -3 -2 -2 -2 -2 -2 -2 -2 -2 -1

GFSMA_925_temp_081.txt.gz
Temp
18 18 18 18 18 18 18 18 18 18 18 18 18 18 18 18 18 18 18 18 18 18 18 18 17 17 17 17 16 15 15 15 15 15 15 15 15 15 14 14 13 13 13
18 18 18 18 18 18 18 18 18 17 18 18 18 18 18 18 18 18 18 19 19 18 18 18 18 17 17 17 16 16 16 15 15 15 15 15 15 15 15 14 14 13 13
18 18 18 18 18 18 18 17 17 17 18 18 18 18 18 18 18 19 19 19 19 19 19 19 18 18 17 17 17 17 16 16 16 15 15 15 16 15 15 15 14 13 13
18 18 18 18 18 18 17 17 17 17 18 18 18 18 18 18 19 19 19 19 19 19 19 19 18 18 17 17 17 17 17 16 15 16 15 14 14 14 15 15 14 14 13
18 18 18 18 18 18 18 18 18 18 18 18 18 18 18 19 19 19 19 19 18 18 18 18 18 18 17 17 17 16 16 16 15 16 15 15 15 14 14 13 14 14 14
19 19 19 19 18 18 18 18 18 18 18 18 18 18 19 19 19 19 18 18 18 18 18 17 18 18 17 17 17 16 16 16 15 15 15 15 15 15 14 14 13 14 14
18 19 19 19 18 18 18 18 18 18 18 18 18 18 19 19 19 18 18 18 18 18 18 17 17 17 17 17 16 16 15 15 15 15 15 14 14 14 14 13 14 14 13
18 17 18 19 19 18 18 18 18 17 18 18 18 17 18 18 17 18 18 17 17 17 17 17 17 17 17 16 16 16 15 14 14 14 14 14 13 13 13 13 13 13 14
17 16 16 16 17 17 17 18 18 17 18 18 18 18 17 17 15 16 16 16 16 16 16 16 16 15 15 15 15 15 15 15 13 13 12 12 12 12 12 12 12 13 13
16 16 15 15 15 15 15 15 16 18 18 18 16 16 17 16 17 17 15 14 15 15 15 15 15 15 15 14 14 14 13 14 12 12 12 11 11 11 11 11 12 12 12
16 16 16 16 15 15 14 14 16 16 17 17 15 15 14 14 13 13 15 14 13 14 14 14 14 13 13 13 13 12 12 11 11 11 11 10 10 10 10 10 10 11 11
16 15 16 17 16 16 16 14 15 16 15 15 15 15 14 13 13 12 12 13 12 12 12 13 13 12 12 12 11 12 11 11 10 10 9 9 9 9 9 9 10 10 11
16 15 17 16 16 17 16 15 15 14 15 14 14 14 14 13 12 11 11 11 11 11 11 12 12 12 11 10 10 10 10 10 9 9 9 8 9 8 8 9 9 9 10
18 18 17 16 16 16 14 15 15 15 14 14 14 14 13 12 11 11 10 11 11 11 11 11 11 10 10 10 9 8 8 8 9 8 8 8 8 8 8 9 9 9 9
16 16 15 15 15 15 14 13 13 14 14 14 13 12 12 11 11 10 10 10 11 11 11 10 9 9 8 8 8 7 7 7 7 8 8 7 7 6 6 8 8 8 9
16 15 15 15 14 13 13 13 13 12 12 12 12 11 11 10 10 9 9 9 9 9 9 9 9 8 8 7 7 6 6 6 6 6 5 5 5 5 6 6 7 7 8
14 14 13 13 13 13 12 12 12 12 11 11 10 10 9 9 9 9 8 8 8 8 8 7 8 7 6 6 6 5 5 5 5 4 4 4 4 4 4 5 6 7 7
13 13 13 12 12 12 12 11 11 10 10 9 9 8 8 8 8 8 7 7 7 7 7 7 6 6 5 5 4 4 4 4 4 3 3 3 3 3 4 3 6 6 6
12 11 11 11 11 10 10 10 9 9 8 8 8 7 7 7 7 7 7 7 7 6 6 6 5 5 4 4 3 3 3 3 3 2 2 2 2 3 3 2 4 5 5
11 11 10 10 10 10 9 9 8 8 7 7 6 6 6 6 6 6 6 6 6 5 5 5 5 4 4 3 3 2 2 2 2 2 2 2 2 2 1 1 2 3 4
10 10 10 9 9 8 8 8 7 7 6 6 5 5 5 5 5 5 5 5 5 4 4 4 3 3 3 2 2 2 2 2 1 2 1 2 2 2 1 1 2 2 2
9 9 9 9 8 8 7 7 6 6 5 5 4 4 4 4 4 4 3 3 4 3 3 3 3 3 3 2 2 2 1 0 2 1 1 1 1 1 1 1 1 1 1
8 8 8 8 7 6 6 6 5 5 5 4 4 4 3 3 3 2 2 2 2 2 2 2 2 2 2 3 2 1 1 1 0 0 0 -0 0 0 0 0 0 -0 -0
7 7 7 7 6 6 5 5 4 3 3 3 3 3 3 2 2 2 1 1 1 1 1 2 2 2 2 2 2 2 1 0 -1 -0 -0 -1 -1 -1 -0 -0 -0 -1 -1
7 7 7 6 6 5 5 4 3 2 2 2 2 2 2 2 1 1 1 1 0 0 0 0 1 1 1 1 1 1 -0 -1 -2 -2 -1 -1 -1 -1 -1 -1 -1 -2 -1
7 6 5 5 5 4 4 3 2 2 2 2 1 1 1 1 1 0 1 0 -0 -0 -1 -1 -1 -1 -1 -1 -1 -0 -0 -1 -2 -2 -2 -2 -2 -1 -2 -2 -1 -1 -1

GFSMA_925_temp_084.txt.gz
Temp
18 18 18 18 18 18 18 18 19 19 19 19 19 19 19 19 19 19 19 19 18 18 18 18 18 17 17 17 17 16 16 16 15 15 15 15 15 15 15 15 14 14 14
18 17 18 18 18 18 18 18 19 19 19 19 19 19 19 19 19 19 19 19 19 19 18 18 18 17 17 17 16 16 16 16 16 15 15 15 15 15 15 15 14 14 14
18 18 18 18 18 18 18 18 18 18 18 18 19 19 19 19 19 19 19 19 19 19 19 19 19 18 18 18 17 17 16 16 16 16 15 15 15 15 15 14 14 14 14
17 18 18 18 18 18 17 18 18 18 18 19 19 19 19 19 19 20 20 19 19 19 19 18 18 18 18 17 18 17 16 16 17 16 15 15 15 14 14 14 14 14 14
17 18 18 19 18 18 17 18 18 18 19 19 19 19 19 19 19 20 20 20 19 18 18 18 18 18 18 18 17 17 16 16 16 16 16 16 15 15 14 14 14 14 14
17 17 18 19 18 18 18 18 18 18 19 19 19 19 20 20 20 20 20 19 19 18 18 17 17 17 17 17 17 17 16 16 16 16 15 15 15 15 15 14 14 13 13
17 17 18 18 18 18 18 18 18 18 18 18 18 19 20 20 20 20 19 19 18 18 17 17 17 17 17 17 17 16 16 15 15 15 15 14 14 14 14 13 13 14 14
17 17 17 18 18 17 18 18 18 18 19 18 19 19 21 21 19 19 19 18 18 17 17 16 16 16 16 16 15 15 15 15 14 14 14 13 13 13 13 13 13 13 14
16 16 16 15 16 16 16 17 18 18 18 17 18 20 20 20 20 19 18 17 17 17 16 15 15 14 14 14 14 14 15 14 13 13 13 12 12 12 12 12 12 12 12
16 16 16 16 16 15 15 15 16 15 17 18 17 18 18 19 19 19 17 16 16 16 16 15 14 13 14 13 14 14 14 14 13 12 12 11 11 11 11 11 11 12 12
16 16 16 16 16 15 15 15 15 14 15 15 16 17 17 16 15 16 18 18 15 15 15 14 14 13 12 12 12 12 12 12 11 11 11 11 10 10 10 10 11 11 11
15 15 16 16 15 15 15 15 16 14 14 15 15 15 14 16 16 15 15 17 16 15 13 13 13 12 11 11 11 11 11 11 11 11 10 10 9 10 9 9 10 10 11
15 16 16 15 15 15 15 16 16 16 15 14 14 14 14 14 14 14 14 15 14 14 14 13 12 11 10 10 10 10 10 10 10 9 9 9 9 9 9 9 9 9 10
16 16 16 15 15 14 16 16 16 15 14 14 13 13 12 12 12 12 13 14 14 13 13 13 11 10 9 8 9 9 9 9 8 8 8 8 9 9 8 8 9 9 9
15 14 14 14 14 15 15 14 14 14 14 13 13 13 12 12 11 10 11 11 12 13 14 13 12 8 8 7 8 7 7 7 7 7 7 7 7 6 7 7 7 8 9
14 14 14 14 14 14 13 13 13 12 13 12 13 12 11 10 10 9 9 10 10 12 12 11 10 8 8 7 7 7 6 6 6 6 6 6 5 5 6 6 6 7 8
14 13 13 13 13 13 13 13 13 13 12 12 11 10 10 10 9 9 9 8 8 9 10 10 8 8 8 7 6 5 5 5 5 5 5 4 4 4 5 5 5 6 7
12 12 13 13 12 12 12 12 12 12 11 10 10 10 9 8 9 9 9 8 8 8 8 8 7 7 6 5 5 5 4 4 4 4 3 3 3 4 4 4 3 5 6
12 11 11 11 11 12 11 11 11 11 10 9 9 8 8 8 8 7 7 7 7 7 7 7 7 5 5 5 4 4 3 3 3 3 3 3 3 3 3 3 3 4 5
11 10 10 10 10 10 10 10 10 9 9 8 8 8 7 7 7 7 7 7 6 6 6 6 6 4 4 4 3 3 2 2 3 2 2 2 2 3 2 2 2 3 4
10 10 10 10 10 10 9 9 9 8 7 6 7 6 6 5 6 6 5 5 5 5 4 4 4 3 3 3 2 3 2 2 2 2 1 2 1 1 1 2 2 2 2
9 9 9 9 8 8 9 9 8 6 6 6 6 5 4 5 5 5 5 5 4 4 3 3 3 3 3 3 3 2 2 1 2 1 1 2 1 1 0 0 1 1 1
8 8 7 7 7 7 8 7 7 5 5 5 4 4 3 3 3 3 3 3 3 3 3 3 3 3 3 3 3 1 1 1 2 0 0 1 0 0 -0 0 1 0 0
6 7 6 6 6 6 7 6 5 4 4 4 4 4 4 3 3 3 2 2 1 1 2 2 2 2 2 2 2 2 1 1 -0 -0 1 1 -1 0 -1 -1 0 -0 -0
5 5 6 6 5 5 5 4 4 3 2 3 3 3 2 2 3 2 2 1 1 0 1 1 1 1 2 2 1 0 0 1 1 0 -1 -1 -1 -0 -1 -1 -1 -1 -1
5 5 5 5 5 5 5 4 3 3 2 1 2 2 2 2 2 2 1 1 1 1 -0 -1 -1 -0 -0 -0 0 -0 -0 -0 1 0 -1 -1 -1 -1 -0 -2 -2 -2 -2

GFSMA_925_temp_087.txt.gz
Temp
18 19 20 20 20 20 20 20 20 20 20 20 20 21 21 21 21 21 20 19 19 18 18 18 18 17 17 17 17 17 17 16 16 16 15 15 15 15 15 15 14 14 14
19 19 20 19 20 20 19 20 20 20 21 21 20 20 21 20 20 20 20 20 19 19 19 18 18 18 17 17 17 17 16 17 16 16 16 15 15 15 15 15 15 15 14
19 19 19 19 19 19 20 20 20 20 20 21 20 21 20 21 20 20 20 20 20 19 19 19 19 18 18 18 17 17 17 17 16 16 16 15 14 14 15 15 15 14 14
19 19 19 19 19 19 19 19 19 19 20 20 20 21 20 20 21 21 21 21 20 20 19 19 19 18 18 18 18 17 17 17 17 16 16 16 15 15 14 14 14 14 14
19 19 19 19 19 19 19 19 19 20 20 20 20 21 21 21 21 21 21 21 21 20 19 19 18 18 18 18 18 18 17 17 17 16 16 16 16 15 15 14 14 14 14
18 18 19 19 20 19 19 19 19 19 20 20 20 20 20 20 20 21 21 21 20 19 19 18 18 18 18 17 17 17 17 17 16 16 16 15 15 15 14 15 14 14 14
18 18 18 19 19 19 19 19 19 19 19 20 20 20 20 21 21 21 21 20 20 19 18 18 17 17 18 17 16 16 16 16 16 16 15 15 15 14 14 13 13 13 14
17 17 18 18 19 19 19 19 19 19 19 19 19 20 20 20 21 20 20 20 19 19 18 17 17 16 16 16 16 15 15 15 15 15 14 14 13 13 13 13 13 13 13
18 17 17 17 18 18 17 17 18 19 19 19 19 20 20 20 21 20 20 19 18 18 18 17 16 15 15 15 14 14 14 14 14 13 13 13 12 12 12 12 12 12 12
17 17 17 16 16 16 16 16 16 16 17 17 17 18 19 19 20 20 18 18 17 17 17 17 16 15 14 13 14 13 14 14 13 13 13 12 11 11 11 11 11 11 11
16 16 16 15 15 15 15 15 15 16 15 15 16 15 15 16 16 17 18 19 16 16 16 16 15 15 13 13 13 12 13 13 12 12 12 11 10 10 10 10 11 11 11
16 16 15 15 15 16 16 15 15 15 15 15 14 14 15 14 14 14 14 16 17 17 16 14 14 13 13 11 11 11 11 11 11 11 10 10 10 10 9 10 10 10 10
18 15 15 15 15 15 16 16 15 14 14 14 14 13 14 13 14 15 16 16 15 15 15 14 13 12 11 11 10 10 10 10 10 10 9 9 9 9 9 8 9 10 10
18 16 15 14 14 15 16 15 14 14 14 14 13 13 13 14 14 14 14 14 14 14 14 14 12 11 11 10 9 8 9 9 8 8 8 8 9 9 9 8 8 9 9
15 15 15 15 16 15 14 15 14 14 14 14 14 13 13 13 13 13 12 13 13 13 13 14 13 10 9 8 8 7 8 8 8 8 7 7 7 8 8 7 7 8 8
15 15 15 14 14 14 14 14 13 13 13 12 12 13 13 13 12 12 11 11 11 12 12 13 11 9 8 7 7 7 7 7 6 6 6 6 6 6 6 6 6 7 6
14 14 14 14 14 14 14 13 13 12 12 12 12 13 12 11 11 10 10 10 10 10 11 11 10 9 9 7 6 6 6 6 6 5 5 5 5 5 5 5 6 5 5
13 13 13 13 13 13 13 12 12 12 12 12 12 12 11 10 10 10 10 9 9 9 9 10 8 8 8 6 6 5 5 5 5 5 5 4 4 4 4 4 4 4 6
12 12 12 11 11 11 11 11 11 11 11 12 11 11 10 10 9 9 9 9 8 8 8 8 7 6 5 5 4 4 4 4 4 4 4 3 3 3 3 3 3 3 4
10 10 11 11 11 10 10 10 11 10 10 10 10 10 9 9 9 9 8 8 8 8 7 6 7 5 5 4 4 4 3 3 3 3 3 3 2 2 2 3 3 3 3
10 10 9 9 10 10 10 10 9 9 9 9 9 9 8 8 7 8 8 7 7 6 6 6 5 4 4 3 3 3 3 3 2 2 2 2 2 2 2 2 2 3 2
9 9 9 9 8 8 9 9 9 9 8 7 7 7 6 6 6 6 6 6 5 5 5 4 4 4 4 4 4 3 2 1 1 2 2 2 2 2 1 1 1 2 2
9 8 8 8 8 8 9 9 8 8 7 7 7 6 5 5 4 4 4 5 5 4 4 4 3 3 3 4 3 2 2 2 2 2 1 2 2 1 1 1 1 1 1
8 8 8 8 8 7 8 8 7 6 6 6 5 5 4 4 4 3 3 3 3 3 3 3 3 3 2 3 3 3 2 1 1 1 1 1 1 0 0 -0 0 -0 0
7 7 7 7 7 7 7 6 6 5 5 5 4 4 4 3 3 3 3 2 2 2 2 2 2 2 2 2 2 2 1 1 2 1 -0 0 0 -0 -1 -1 -1 -1 -0
6 6 6 6 6 6 6 5 5 4 3 3 3 3 2 3 2 3 2 2 2 2 1 0 1 1 1 1 1 1 1 1 2 1 -0 -0 -0 -0 -1 -1 -1 -1 -1

GFSMA_925_temp_090.txt.gz
Temp
18 18 18 17 17 18 18 19 19 20 20 20 20 20 21 20 20 20 20 20 19 19 18 18 18 17 17 17 17 17 17 17 16 16 15 15 15 15 15 15 15 15 15
19 19 18 18 18 19 19 20 20 20 20 20 20 20 20 20 20 20 20 20 19 19 19 19 18 18 18 17 17 17 17 17 16 16 16 15 15 15 15 15 15 15 15
19 19 19 20 19 19 19 19 20 20 20 20 20 20 20 20 20 20 20 20 20 19 19 19 19 18 18 18 18 17 17 17 17 16 16 16 15 15 14 14 14 14 14
19 19 19 19 19 19 19 19 20 20 20 20 20 20 20 20 20 20 21 20 20 20 19 19 18 18 18 18 18 17 17 17 17 17 16 16 15 15 15 14 14 14 14
19 19 19 19 19 19 19 19 19 19 19 19 20 20 20 20 20 20 20 21 20 20 19 19 18 18 18 17 18 18 17 17 17 16 16 16 16 15 15 15 14 14 14
19 19 19 19 19 19 19 19 19 19 19 19 20 20 20 20 20 20 21 21 20 20 19 18 18 17 17 17 17 17 17 17 16 16 16 16 16 15 15 14 14 14 14
19 18 18 19 19 19 19 19 19 19 19 19 20 20 20 20 20 20 20 20 20 19 19 17 17 17 17 16 17 17 16 16 16 16 16 15 15 15 14 13 13 13 13
18 18 18 18 19 19 19 19 19 19 19 19 19 19 17 19 20 20 20 20 19 18 18 17 17 16 16 16 16 16 15 15 15 15 15 14 14 14 13 12 12 12 12
18 18 18 18 18 18 18 18 18 18 18 19 19 18 16 16 18 20 20 19 19 18 18 17 16 15 15 15 15 15 14 14 14 13 13 13 12 12 12 12 12 12 12
17 18 18 18 18 18 18 17 16 16 16 17 17 18 16 17 17 16 18 18 18 18 17 17 16 15 15 14 13 13 13 14 14 13 13 12 12 11 11 11 11 12 12
17 17 17 18 18 18 17 16 16 16 16 15 16 15 15 15 15 15 15 16 17 17 17 16 16 14 14 13 12 12 13 13 12 12 12 11 11 10 10 10 11 11 11
16 16 17 17 17 17 16 16 16 16 16 15 14 15 14 13 13 13 13 13 14 17 16 15 15 14 13 12 12 12 11 11 11 11 11 11 10 10 10 9 10 10 10
14 15 17 16 16 16 15 15 15 14 16 16 15 15 13 13 14 14 14 13 14 15 15 15 14 13 12 11 11 11 11 10 10 10 10 10 10 10 10 10 9 9 10
15 16 15 15 16 17 16 14 14 14 14 15 14 14 13 13 13 13 14 14 12 13 14 14 13 12 11 11 10 9 9 9 9 9 9 9 9 9 9 9 9 8 8
14 15 15 16 17 16 15 14 14 14 15 14 14 14 13 14 13 13 14 14 14 11 11 13 11 10 10 10 9 8 8 8 8 8 8 8 8 8 8 7 7 7 8
16 16 18 17 16 16 14 13 14 14 14 13 13 13 13 13 13 13 13 13 13 12 10 12 10 9 9 9 7 7 7 7 7 7 8 7 7 7 7 6 6 6 6
14 14 15 15 15 14 14 14 14 14 13 13 13 13 13 13 13 12 12 12 12 11 10 10 10 8 8 8 7 6 7 7 6 6 6 6 6 6 5 5 5 5 5
13 14 14 14 14 14 14 14 14 13 13 13 12 12 12 12 12 12 11 11 10 10 10 9 9 9 7 6 6 6 6 6 5 5 5 5 5 5 4 4 4 4 5
13 12 12 12 13 13 13 13 13 13 13 12 12 12 12 11 11 10 10 10 9 9 9 9 7 8 7 6 5 5 5 5 5 4 4 4 4 4 3 3 3 3 4
11 11 11 11 11 11 11 12 12 11 11 11 11 11 11 11 11 10 10 9 9 8 8 8 7 6 6 5 4 4 4 4 4 4 3 3 3 3 3 3 3 3 3
10 10 10 10 11 11 11 11 10 11 10 10 10 10 10 9 9 9 9 8 8 8 7 7 6 5 5 4 4 4 4 3 3 3 3 3 3 3 2 2 2 2 3
9 9 10 9 10 10 10 9 9 9 9 9 9 9 8 8 8 8 8 8 7 7 6 6 5 5 4 4 4 4 3 2 2 3 2 3 2 2 2 1 2 2 2
8 9 9 9 9 9 9 9 8 8 8 8 8 8 7 7 7 7 7 6 6 6 5 5 4 4 4 4 4 3 3 2 2 3 2 2 2 2 1 1 1 1 1
7 8 8 8 8 8 8 8 8 8 8 8 7 7 7 6 6 5 5 5 5 5 4 4 4 4 3 3 4 4 4 2 1 2 1 1 1 1 1 1 0 0 0
5 6 7 7 7 8 8 7 7 6 7 7 6 6 6 5 5 3 3 3 3 3 3 3 3 3 3 3 3 3 2 1 0 1 1 1 0 0 -0 -0 -0 -0 -0
4 4 5 6 6 6 7 7 6 6 6 5 5 5 5 4 4 3 3 3 2 2 2 2 2 2 2 2 1 2 2 2 2 -0 0 0 -0 0 -1 -1 -1 -1 -1

GFSMA_925_temp_093.txt.gz
Temp
17 17 17 17 17 17 17 18 19 19 19 19 19 20 20 20 20 20 20 20 19 19 19 18 18 18 17 17 17 17 17 16 16 16 16 15 15 15 15 15 15 15 15
17 17 17 17 17 17 18 19 19 19 19 19 20 20 20 20 20 20 20 20 19 19 19 19 18 18 18 17 16 16 17 17 16 16 16 16 16 15 15 15 14 15 14
18 18 18 17 18 18 19 19 19 19 20 20 20 20 20 20 20 20 20 20 19 19 19 19 19 18 18 18 18 16 17 17 17 16 16 16 15 15 15 14 14 14 14
18 18 18 18 18 19 18 19 19 20 20 20 20 20 20 20 20 20 20 20 20 20 20 19 18 18 18 18 18 17 16 17 17 16 16 16 15 15 15 15 14 14 14
19 18 19 19 19 19 19 19 19 19 20 20 20 20 20 20 20 20 20 20 20 20 19 18 18 18 18 17 17 17 17 17 17 16 16 16 16 15 15 14 15 14 14
19 18 19 19 19 19 19 19 19 19 19 19 19 19 20 20 20 20 20 20 20 20 19 18 18 18 17 17 17 17 17 17 16 16 16 16 15 15 14 14 14 14 14
19 19 19 19 19 19 19 19 19 19 19 19 19 19 20 20 20 20 20 20 19 19 19 18 18 17 17 16 16 16 16 16 16 16 15 15 15 14 13 13 13 13 13
18 19 18 18 19 19 19 19 19 19 19 19 19 18 16 18 20 20 20 19 19 19 18 18 17 17 16 15 15 15 15 15 14 14 14 14 14 13 12 12 12 12 12
18 18 18 18 18 19 19 19 19 18 19 19 19 18 15 16 16 19 19 19 19 18 18 17 17 16 16 15 15 15 14 14 14 13 13 13 13 12 12 12 12 12 12
17 18 18 19 18 18 18 18 18 18 18 17 17 17 16 15 15 15 17 17 18 18 18 17 16 16 15 15 14 14 14 13 14 13 13 13 12 12 12 11 11 12 11
18 19 18 18 19 19 19 19 18 16 18 16 16 16 16 15 15 13 14 15 17 17 17 16 16 15 14 14 14 13 13 13 13 13 13 12 11 11 11 11 11 11 11
15 16 16 18 18 18 18 19 17 17 18 18 16 17 15 14 13 13 12 13 13 15 16 15 15 15 14 13 13 12 12 12 11 12 12 11 11 11 10 10 10 10 11
15 15 15 16 16 16 16 18 16 15 15 15 15 15 15 15 15 13 13 12 12 14 14 14 14 14 13 13 12 11 11 11 11 11 11 10 11 10 10 10 9 9 9
14 15 15 14 15 15 16 15 15 15 15 14 15 14 14 14 14 13 13 12 11 12 13 13 12 12 12 12 11 10 10 10 9 10 10 9 9 9 9 9 9 8 8
13 14 14 14 15 15 15 15 14 14 14 14 14 14 13 14 14 13 13 13 13 11 11 12 11 10 11 11 10 10 9 9 9 9 9 9 9 8 8 8 7 7 7
14 14 14 15 16 16 15 15 14 15 13 13 13 13 13 14 14 13 13 13 14 14 11 12 10 9 9 9 10 10 9 8 7 7 7 7 7 7 7 7 6 6 6
13 13 13 14 15 14 14 14 14 13 14 13 13 13 13 13 13 13 13 12 13 13 11 9 9 9 8 8 7 6 6 7 7 7 6 6 6 7 6 5 5 5 5
12 12 13 13 14 14 14 14 14 13 13 13 13 13 13 13 13 13 12 12 12 12 12 9 9 8 7 7 6 6 6 6 6 6 6 5 6 6 4 4 4 4 4
11 12 12 12 12 13 13 13 14 13 13 13 13 13 13 12 12 12 12 12 11 11 10 10 8 8 7 6 6 5 5 5 5 5 5 5 5 4 4 4 4 4 3
10 11 11 11 11 11 12 12 12 13 12 12 13 12 12 11 11 11 11 11 10 10 9 9 8 7 7 6 5 5 4 4 4 4 4 4 4 4 3 3 3 3 3
9 9 10 10 10 10 11 11 11 11 11 11 11 10 11 11 11 11 11 10 10 9 8 8 7 6 5 5 4 5 4 4 4 3 3 3 3 3 3 2 2 2 3
7 8 8 9 9 9 10 10 10 10 10 10 10 10 10 10 10 10 10 10 9 9 8 7 6 5 5 6 5 5 4 3 2 4 3 3 3 3 2 2 2 2 2
5 6 7 8 8 8 9 9 9 9 9 9 9 9 9 9 9 9 8 8 8 8 8 8 7 6 5 5 5 4 3 3 3 3 2 2 2 2 2 1 1 1 1
4 4 5 6 7 8 8 8 8 8 8 8 8 8 8 8 7 7 7 6 6 6 6 6 6 5 4 5 4 5 4 3 2 2 2 2 2 1 1 1 1 1 1
4 4 4 5 6 6 7 7 7 7 7 7 7 7 7 7 7 6 6 5 5 5 4 4 4 4 4 4 4 3 2 1 0 1 1 1 1 1 0 0 0 -0 -0
4 4 4 4 5 5 6 6 6 6 6 6 6 6 6 6 6 5 4 4 3 3 3 3 3 2 2 3 3 3 3 2 3 1 1 1 0 0 -1 -1 -1 -1 -1

GFSMA_925_temp_096.txt.gz
Temp
17 17 18 18 18 17 17 17 18 18 19 19 19 19 19 20 20 20 20 19 19 19 19 18 18 17 18 18 17 16 16 16 16 16 16 16 15 15 15 15 15 15 14
16 16 17 17 17 17 16 17 18 19 19 19 19 20 20 20 20 20 20 19 19 19 19 18 18 18 17 17 16 16 16 17 16 16 16 16 15 15 15 14 14 14 14
17 17 17 17 17 17 17 17 18 18 19 19 19 19 20 20 20 20 20 20 19 19 19 19 18 18 18 17 17 16 16 17 16 16 16 16 15 15 14 15 15 14 14
17 17 16 17 17 17 17 17 18 18 18 19 19 20 20 20 20 20 19 20 19 19 19 19 18 18 18 17 17 16 16 16 17 16 16 16 16 15 15 15 14 14 14
18 17 17 17 18 17 17 17 18 18 18 19 19 20 20 20 20 20 20 20 19 19 19 19 18 18 17 17 17 16 16 16 17 16 16 16 15 15 15 15 15 14 14
18 18 18 18 18 18 17 18 18 18 19 19 19 19 19 19 20 20 20 20 20 20 19 19 18 18 17 17 17 16 16 16 16 16 16 15 15 15 14 14 14 14 13
18 17 18 18 18 18 18 18 19 19 19 19 19 19 19 19 19 20 20 20 20 20 19 19 18 17 17 17 16 16 16 15 16 16 15 15 14 14 13 13 13 13 12
18 18 18 18 18 18 18 19 19 18 19 19 18 17 16 18 19 19 19 20 20 19 18 18 18 18 17 16 16 16 16 15 15 15 15 14 14 13 13 13 12 12 12
17 18 18 18 18 19 19 18 18 18 18 18 18 18 15 15 16 18 19 19 19 18 18 18 17 17 16 16 15 15 15 14 14 14 13 13 13 13 13 12 12 12 12
17 18 18 18 18 18 18 18 18 18 18 17 16 17 18 17 14 15 16 16 17 17 17 17 17 16 16 15 15 15 14 13 14 14 13 13 12 12 12 11 11 12 11
15 16 16 17 18 17 17 18 18 17 18 17 17 15 15 14 15 14 14 14 15 14 15 16 16 16 15 15 14 14 13 13 13 13 14 13 12 11 11 11 11 11 11
14 15 15 15 15 16 16 17 18 18 17 18 17 18 17 15 13 13 12 12 14 15 14 14 15 15 15 14 13 13 13 13 12 13 13 12 11 11 11 11 10 10 10
14 14 14 14 15 15 15 15 16 17 17 16 16 15 15 16 16 15 15 13 12 12 13 13 14 14 14 14 13 13 12 12 11 12 12 11 11 11 10 10 9 9 9
14 14 13 13 14 14 14 14 15 16 16 16 15 14 15 15 15 16 15 14 11 11 11 12 12 12 12 13 12 12 11 11 11 11 10 10 10 10 10 9 8 9 8
13 13 13 14 14 14 14 14 14 15 15 14 14 14 14 15 15 14 13 14 14 11 11 11 11 11 11 11 11 11 10 10 9 9 10 9 9 9 9 8 8 8 8
13 13 13 13 13 13 13 13 13 14 14 14 13 13 14 14 14 13 13 12 13 13 11 11 10 10 10 10 10 10 9 9 9 8 8 8 8 8 8 7 7 7 7
11 12 12 13 13 13 14 14 14 14 14 14 13 13 13 13 13 13 12 13 13 13 11 9 10 9 9 9 9 9 8 8 7 7 7 6 6 7 6 6 6 6 6
11 11 12 12 12 13 13 14 13 13 13 13 13 13 13 13 13 13 12 12 12 12 12 9 8 7 8 7 8 8 7 6 7 7 7 7 6 5 5 5 5 5 5
10 10 11 11 11 12 12 13 13 13 13 13 13 13 13 13 12 12 12 12 12 11 11 11 8 7 7 7 6 6 6 5 6 6 6 6 5 4 4 4 4 4 4
8 8 9 9 10 10 11 11 12 12 13 13 13 13 13 12 12 12 11 11 11 11 10 10 8 7 6 6 6 5 5 5 5 5 4 4 4 4 4 3 3 3 4
7 7 8 8 8 9 10 10 11 11 11 11 12 12 12 12 12 11 12 10 10 10 9 8 7 6 5 4 4 5 5 4 4 4 4 4 4 3 3 3 3 3 3
5 5 6 6 7 8 8 8 9 9 10 10 10 10 10 11 11 10 10 11 11 10 8 8 6 6 5 6 7 6 4 3 2 4 3 3 3 3 3 3 2 2 2
4 4 4 5 5 6 7 7 8 8 8 9 9 9 9 9 9 9 9 10 10 10 10 9 7 8 6 7 7 5 4 3 4 4 3 3 2 2 2 2 2 1 1
3 3 4 4 4 5 6 6 6 7 7 7 8 8 8 9 9 8 9 8 8 8 8 8 8 8 8 7 7 6 6 4 3 3 3 2 2 2 2 2 1 1 1
3 3 3 3 3 3 4 5 5 6 6 7 7 7 7 8 8 7 7 8 7 7 7 7 7 7 6 6 5 4 3 2 0 1 1 2 1 1 1 1 1 1 0
2 2 2 2 3 3 3 4 4 4 5 5 6 6 6 6 7 7 6 6 5 6 6 5 5 5 5 4 4 4 4 2 1 0 2 1 1 1 -0 -0 0 -0 -1

GFSMA_925_temp_099.txt.gz
Temp
18 18 18 18 18 18 18 18 17 18 18 19 19 19 19 19 19 19 19 19 19 19 18 17 17 17 17 17 16 16 16 16 16 16 16 16 15 15 15 15 15 14 14
18 18 17 16 18 18 18 17 17 17 18 19 19 19 19 19 19 19 19 19 19 19 18 18 18 17 16 16 16 16 16 16 16 16 16 16 15 15 15 15 14 14 14
18 18 18 16 16 17 17 17 16 17 17 18 19 19 19 19 19 19 19 19 19 19 19 18 18 18 17 16 16 16 16 16 16 16 16 15 15 15 15 15 14 14 14
17 17 17 17 16 16 17 17 17 17 17 18 18 19 19 19 19 19 19 19 19 19 19 19 18 18 18 17 17 16 16 16 16 16 16 16 16 15 15 15 14 14 14
17 17 17 17 17 16 16 17 17 17 17 17 18 18 19 19 19 19 19 19 19 19 19 19 18 18 18 17 17 16 16 16 16 16 16 16 16 15 15 15 14 14 14
17 17 17 18 18 18 16 17 16 17 17 17 18 19 19 19 19 19 19 19 19 19 19 19 18 18 18 17 17 16 16 16 16 16 16 16 15 15 15 14 14 13 13
16 15 15 16 17 17 17 16 17 16 17 17 17 18 18 18 19 19 19 19 19 19 20 19 19 18 17 17 16 16 16 16 16 16 15 15 15 14 14 13 13 13 13
16 16 16 16 17 17 16 17 17 16 17 17 17 16 15 17 18 19 19 19 19 19 19 19 18 18 17 17 17 16 16 16 15 15 15 15 14 14 13 13 12 12 12
15 16 16 15 15 16 17 18 17 16 17 17 18 17 14 15 15 18 19 18 19 19 19 18 18 17 17 17 17 16 16 16 15 14 14 13 13 12 12 12 12 12 12
15 15 15 15 15 17 17 17 17 18 17 16 16 18 17 17 15 15 16 17 18 17 17 17 17 16 16 16 16 16 15 15 15 14 14 13 13 12 12 12 11 11 12
16 15 14 14 15 17 17 17 17 17 17 17 17 16 15 15 15 14 14 13 14 16 16 16 16 16 16 16 16 15 15 14 14 14 14 13 13 12 11 11 11 11 11
14 14 15 14 15 16 16 16 17 16 15 15 16 16 16 15 14 13 13 13 14 15 16 15 15 15 15 16 15 14 14 14 13 13 13 13 12 11 12 11 11 10 10
14 14 15 14 14 14 14 14 14 15 14 14 15 15 15 15 16 15 15 14 12 12 13 14 14 14 14 14 13 13 13 13 12 12 12 12 11 11 10 11 10 9 9
14 14 14 14 14 14 14 14 14 14 14 14 14 15 15 15 16 15 15 14 11 10 11 11 13 13 13 12 12 12 12 12 12 11 11 11 11 10 11 10 10 9 8
13 13 13 13 13 14 14 13 14 14 14 15 13 14 14 15 15 14 13 14 15 14 11 10 11 11 11 11 11 11 12 12 11 11 10 10 10 10 9 9 9 8 8
12 12 12 12 13 13 13 13 13 13 13 13 13 13 14 13 13 14 13 13 13 14 13 9 9 9 10 10 10 10 10 10 10 10 9 9 10 9 8 8 7 7 7
10 10 11 12 12 13 13 13 13 13 13 13 13 13 13 13 13 13 13 13 12 12 10 8 9 9 9 9 10 9 9 9 9 8 8 7 7 7 7 7 7 7 7
9 9 10 10 11 12 12 13 13 13 13 13 13 13 13 13 13 13 12 12 12 12 11 8 7 8 8 8 9 9 8 8 8 8 7 7 7 7 7 5 6 5 5
8 8 9 9 10 10 11 11 12 12 13 13 13 13 13 13 12 12 13 12 12 12 12 11 7 7 7 8 7 7 7 7 7 7 6 7 7 6 5 4 5 4 4
7 7 7 7 8 9 9 9 10 10 11 12 12 13 13 12 12 12 12 12 12 11 11 9 8 7 7 6 7 6 6 6 6 6 6 6 5 4 4 4 4 4 4
5 5 6 6 7 7 7 8 8 8 9 9 10 11 11 12 12 12 12 11 11 10 9 8 7 6 5 5 5 5 5 5 5 5 5 4 4 4 4 4 4 3 3
4 5 5 4 4 5 6 6 6 7 7 8 8 9 10 10 11 11 11 12 11 10 9 8 6 7 5 5 5 5 5 4 3 4 4 3 3 3 4 3 3 3 2
3 3 3 3 4 4 4 5 6 6 6 7 7 7 8 9 9 9 10 10 10 10 10 9 7 7 6 7 7 5 4 4 4 5 3 3 3 3 3 3 2 2 2
2 2 2 2 3 3 3 3 4 5 5 6 6 7 7 7 8 8 8 8 8 8 8 8 9 10 10 9 9 8 7 6 4 4 3 2 3 2 2 2 2 1 1
2 2 2 2 2 2 2 2 3 4 4 5 6 6 6 6 7 7 7 7 8 7 8 8 8 8 8 7 8 6 5 3 1 2 2 3 1 1 1 1 1 1 1
1 2 1 1 1 1 1 2 2 3 3 4 4 5 5 5 6 6 6 6 6 7 7 7 7 6 6 7 7 7 6 3 2 1 2 2 1 2 -0 0 0 1 0

GFSMA_925_temp_102.txt.gz
Temp
20 18 18 18 18 18 18 17 17 17 18 18 18 18 18 19 19 19 19 19 18 18 17 16 16 17 17 17 17 16 16 16 16 16 16 16 16 15 15 15 15 14 14
19 18 18 18 18 18 18 17 17 17 17 18 18 18 18 19 19 19 19 19 19 19 18 17 16 16 16 16 16 16 16 16 16 16 16 16 16 15 15 15 15 14 14
18 18 18 17 17 18 17 17 17 17 17 17 18 18 18 18 19 19 19 19 19 19 18 18 18 17 16 16 16 16 16 16 16 16 16 16 15 15 15 15 15 14 14
17 17 17 17 17 17 17 16 17 17 17 17 17 18 18 18 19 19 19 19 19 19 19 18 18 18 18 17 17 17 16 16 16 16 16 16 15 15 15 15 15 14 14
17 16 17 17 17 17 16 16 16 17 17 17 16 17 18 18 18 19 19 19 19 19 19 19 18 18 18 17 17 16 16 16 16 16 16 16 16 15 15 15 14 14 14
15 15 16 16 17 17 16 16 15 16 16 16 16 17 17 18 18 19 19 19 19 19 19 19 19 18 18 18 17 17 16 16 17 16 16 16 16 15 15 14 14 14 13
15 15 15 15 16 15 16 15 16 16 17 17 15 16 17 17 18 19 19 19 19 19 19 19 19 18 18 18 17 17 17 16 16 16 16 15 15 15 14 13 13 13 12
16 15 15 15 16 16 16 16 16 15 16 16 16 15 15 17 18 18 19 18 19 19 19 19 19 19 18 18 18 17 16 16 16 16 15 15 14 14 13 13 13 12 12
16 16 16 16 16 16 17 17 17 15 15 16 16 17 14 14 15 17 18 19 19 19 19 19 19 18 18 17 17 17 16 16 16 15 15 14 13 13 12 12 12 12 12
16 15 15 16 15 15 15 15 16 15 15 15 14 16 18 17 14 15 15 16 18 18 19 19 19 18 17 17 17 16 17 16 15 15 14 14 13 13 12 12 12 12 12
15 14 15 15 14 14 14 14 14 15 15 16 16 16 15 16 15 14 14 14 16 17 17 18 18 17 17 16 16 16 16 16 15 14 14 14 14 13 12 11 11 11 11
15 15 15 15 14 14 14 14 14 14 14 14 15 16 16 16 14 14 12 13 13 16 17 16 16 16 16 16 15 15 15 15 14 14 14 14 14 13 12 11 11 10 11
14 14 14 14 14 14 14 14 14 14 14 14 14 15 15 16 16 15 14 13 13 15 15 16 16 16 15 15 15 14 14 14 13 13 13 13 12 11 12 11 10 11 10
13 13 13 14 14 14 14 14 14 14 14 14 14 14 14 14 14 14 15 14 13 11 12 14 14 14 15 14 14 13 13 13 13 13 12 12 12 12 11 10 10 10 10
11 12 12 13 13 13 13 14 13 13 14 13 13 13 13 13 13 13 14 14 14 14 14 12 13 13 13 13 12 12 12 12 11 11 11 11 11 11 10 9 10 10 9
10 10 10 10 12 12 13 13 13 13 13 13 14 13 13 13 13 14 13 13 13 14 14 14 11 12 12 11 11 11 10 10 10 10 10 10 10 9 9 10 10 9 8
9 9 9 9 10 10 11 12 13 13 13 13 13 13 13 14 13 13 13 13 13 13 13 8 9 9 9 10 10 9 10 9 9 9 9 9 9 9 9 8 8 8 7
8 8 9 8 9 9 9 10 11 11 13 13 13 13 13 13 13 13 13 12 12 12 11 8 8 8 9 9 10 10 9 9 8 9 8 8 8 7 7 6 7 7 6
6 6 7 7 7 8 8 9 8 9 10 11 12 12 12 13 12 12 12 12 12 12 11 10 7 8 8 8 8 8 8 7 8 7 8 7 7 6 6 5 5 5 5
5 5 5 5 6 6 6 7 7 8 8 9 9 10 11 11 12 12 12 12 12 11 11 10 8 7 7 7 7 6 6 6 6 6 6 6 6 6 5 5 4 4 4
4 5 5 5 5 5 5 5 5 5 6 7 8 9 9 10 10 11 12 12 12 11 11 10 7 6 6 5 6 6 5 5 6 6 5 5 6 5 4 4 4 3 4
3 3 4 3 4 4 4 4 4 4 5 5 6 7 7 8 9 9 10 10 11 11 10 10 8 7 6 6 6 5 5 5 3 5 5 5 5 4 4 3 3 3 3
2 2 2 2 3 3 3 2 3 3 3 4 5 6 6 7 7 8 8 9 9 10 10 10 9 9 7 7 7 5 5 5 5 6 4 4 4 3 3 3 3 3 3
2 2 1 1 1 2 2 2 2 2 2 2 3 4 5 6 7 7 7 7 8 8 9 9 9 9 9 8 8 8 7 5 4 4 3 2 2 2 2 2 2 2 2
1 1 1 1 1 1 1 1 1 1 2 2 3 3 3 4 5 6 6 6 6 7 8 8 8 8 8 8 7 7 5 3 1 1 2 4 1 1 1 2 2 1 1
-0 -0 0 0 0 1 1 -0 0 0 0 1 2 3 3 3 3 4 5 5 5 6 7 7 7 7 7 7 8 8 8 3 1 0 2 3 1 2 -0 0 1 1 -0

GFSMA_925_temp_105.txt.gz
Temp
19 19 19 18 17 18 17 18 18 17 17 17 17 17 17 18 18 18 18 18 18 18 17 17 16 16 16 16 16 16 16 16 16 16 16 16 16 16 15 15 15 15 14
19 19 19 17 17 18 18 18 17 17 17 17 17 17 17 18 18 18 18 19 19 18 18 17 16 16 16 16 16 16 16 16 16 16 16 16 16 16 16 15 15 14 14
19 19 19 18 17 17 17 17 17 17 16 17 17 17 18 18 18 18 18 18 19 19 18 18 18 17 16 16 16 16 17 16 16 16 16 16 16 16 15 15 15 14 14
18 18 18 17 17 17 17 17 17 16 16 17 17 17 17 17 17 18 18 18 19 19 19 19 18 18 17 17 17 17 17 17 16 16 16 16 16 15 15 15 15 15 15
17 17 17 17 16 16 16 16 17 16 16 16 17 17 17 17 17 18 18 18 19 19 19 19 19 18 18 18 17 17 17 17 17 17 16 16 16 15 15 15 15 15 14
16 16 16 15 15 15 16 15 15 16 15 15 16 16 16 17 17 18 18 18 18 19 19 19 19 18 18 18 18 17 17 17 17 17 16 16 16 15 15 15 15 14 14
16 14 15 15 15 15 15 15 15 15 15 15 15 16 16 17 17 17 18 18 18 19 19 19 19 19 18 18 18 18 17 17 17 17 16 16 15 15 15 14 14 14 13
16 14 14 14 14 14 14 15 14 15 14 15 15 14 16 18 18 18 18 18 18 19 19 19 19 19 19 18 18 18 17 17 16 16 16 16 15 14 13 13 13 13 12
15 15 14 14 14 15 15 16 15 15 15 15 16 15 15 17 18 18 18 18 19 19 19 19 19 18 19 18 18 18 17 17 16 15 15 15 14 14 13 13 12 12 12
15 15 15 14 14 15 15 15 15 15 14 15 14 15 16 15 17 18 16 17 16 17 19 19 18 19 19 18 18 17 17 17 16 16 15 15 14 14 13 13 12 12 13
15 15 15 15 14 14 14 15 15 15 14 14 14 15 14 15 15 16 18 16 16 17 16 18 18 18 17 17 17 16 16 16 16 16 15 15 14 14 13 13 12 12 11
14 14 14 14 14 14 14 14 14 14 14 14 14 14 15 15 16 16 15 16 15 17 16 17 17 17 16 17 17 16 16 16 15 15 15 15 14 14 14 13 12 11 11
13 13 13 13 13 13 14 14 14 14 14 13 13 13 14 15 16 16 16 17 15 15 16 16 17 16 16 16 16 15 16 16 15 14 14 14 14 14 13 12 11 11 10
10 11 12 12 13 13 13 13 13 13 13 13 13 13 13 13 14 15 16 15 16 13 13 15 17 17 16 17 16 15 15 14 14 14 13 14 13 13 12 11 10 10 10
9 8 10 11 11 12 12 13 13 14 13 13 13 13 13 13 13 13 14 14 15 15 15 15 14 15 16 15 15 14 13 13 13 13 13 13 13 12 12 11 11 10 10
8 8 9 9 9 10 11 11 12 13 13 13 13 13 13 13 13 13 13 13 13 13 14 15 15 15 15 14 13 12 12 12 12 11 11 12 12 11 11 11 10 9 9
7 7 6 8 8 8 9 9 10 10 11 12 13 13 13 13 13 13 13 13 13 13 13 14 13 14 12 12 10 11 11 10 10 10 11 11 11 11 10 10 9 8 9
7 7 7 7 6 7 7 7 7 8 9 9 10 11 13 13 13 13 13 13 13 13 13 13 10 10 10 10 10 10 9 10 9 10 10 10 10 9 9 8 7 8 8
6 6 7 6 6 6 6 6 7 7 7 7 7 8 9 10 11 12 12 12 12 12 12 12 8 8 7 8 8 9 9 9 9 9 9 9 8 8 7 7 6 6 6
5 5 5 5 5 5 5 4 4 4 5 6 7 7 8 8 8 9 10 12 12 12 11 10 8 8 8 7 7 7 7 8 8 8 8 7 7 7 6 6 5 5 5
3 3 3 4 4 4 2 3 3 3 3 3 4 5 6 7 7 8 8 9 10 11 11 10 8 7 7 6 7 6 6 6 6 7 6 6 5 5 5 5 5 4 4
2 2 2 2 3 3 3 2 2 2 2 2 2 3 3 5 6 7 8 8 7 8 10 10 9 8 8 8 7 6 6 4 4 5 6 5 5 5 5 5 5 4 4
2 2 2 2 2 2 2 1 1 2 2 2 2 2 2 3 3 4 6 6 8 9 8 9 10 9 9 8 8 6 6 6 7 6 5 4 5 4 5 5 4 4 4
0 0 0 1 1 1 1 0 1 1 0 1 1 2 2 2 2 3 4 4 5 6 8 9 8 9 10 10 9 8 7 6 5 5 5 3 3 3 4 4 3 3 3
-1 -1 -0 -0 -0 0 0 -0 -0 -0 -0 -0 0 1 1 3 3 3 3 4 4 4 6 7 8 8 9 9 9 6 5 4 2 2 3 5 2 2 3 3 3 2 2
-2 -2 -1 -1 -1 -1 -0 -1 -1 -0 -1 -1 -1 -0 0 1 2 2 2 3 3 4 4 5 6 7 8 8 8 7 5 5 2 0 2 4 0 2 -0 1 1 1 1

GFSMA_925_temp_108.txt.gz
Temp
19 19 19 19 19 18 18 18 19 19 18 18 18 19 19 19 19 19 19 18 18 18 17 17 16 16 16 16 16 16 16 16 16 16 16 16 16 16 16 15 15 15 15
18 18 18 18 19 18 18 18 18 17 18 19 19 19 19 19 19 19 19 19 18 18 18 18 17 17 16 16 16 16 17 16 16 16 16 16 16 16 16 15 15 15 15
18 18 18 18 18 18 18 18 17 17 17 18 18 19 19 19 19 19 19 18 18 18 18 18 18 17 17 17 17 16 17 17 17 16 16 16 16 16 16 15 15 15 14
18 18 18 18 18 18 18 17 17 16 16 16 17 17 17 18 18 19 19 18 18 18 18 18 18 18 17 16 17 17 17 17 17 17 17 16 16 16 16 15 15 15 15
17 17 18 18 18 17 17 17 17 16 16 16 15 16 17 18 19 18 19 19 18 18 18 18 19 19 18 18 17 17 17 17 17 17 17 16 16 16 15 15 15 15 14
16 17 17 17 17 16 16 16 16 16 16 16 15 15 16 17 18 19 19 19 19 18 18 18 18 19 19 18 18 17 17 17 16 17 17 16 16 16 15 15 15 14 14
17 16 16 16 15 15 15 15 15 15 15 15 15 15 15 16 16 17 18 19 19 19 19 18 18 18 18 19 18 18 18 17 16 17 16 16 16 16 15 14 14 14 14
15 15 16 16 15 15 15 15 15 15 15 16 16 17 17 17 16 17 17 17 18 20 18 18 18 18 18 18 19 18 18 18 17 16 16 16 16 15 15 14 13 13 13
15 15 15 15 15 15 15 15 16 16 17 17 15 17 16 17 20 19 18 19 19 18 18 18 18 18 18 18 18 19 18 18 17 16 16 15 16 15 14 14 13 13 12
15 15 14 15 15 15 15 15 15 16 16 16 15 14 16 16 16 19 20 19 20 20 19 18 18 18 18 18 19 19 18 18 17 16 16 16 15 15 14 14 13 13 12
14 15 15 14 15 15 15 15 15 15 15 15 15 14 14 14 15 15 15 17 16 17 17 17 18 16 17 18 18 18 17 18 17 17 16 16 16 15 15 14 13 13 12
14 14 14 14 14 14 14 15 15 14 14 14 14 14 15 15 14 15 15 17 17 19 18 17 16 16 16 18 18 17 17 16 17 16 16 16 16 15 15 14 13 13 12
10 11 12 12 13 13 14 14 14 14 14 14 14 14 14 14 15 15 16 16 16 18 18 16 16 16 17 17 17 16 16 15 15 16 15 16 16 15 15 14 14 13 12
8 9 10 11 11 11 12 12 13 13 14 14 14 14 14 14 14 15 15 15 15 17 18 17 15 17 17 17 16 15 16 15 15 15 15 15 15 15 15 14 13 12 12
8 9 10 10 9 9 10 10 11 12 13 13 13 13 14 13 13 13 14 14 14 15 17 18 15 16 17 16 16 15 15 15 14 14 14 15 14 14 14 14 12 12 11
8 8 9 9 9 8 8 9 10 10 10 11 11 12 13 13 13 13 13 13 13 14 14 16 15 15 16 15 15 15 15 14 14 14 14 14 13 13 13 13 12 11 11
6 6 7 7 7 7 8 8 8 8 8 9 10 10 11 11 13 13 13 13 13 13 13 14 15 15 14 14 14 15 14 14 13 13 12 12 12 13 12 12 11 11 10
5 5 5 6 6 6 6 6 6 6 6 6 7 8 8 8 10 11 13 13 13 13 13 13 14 13 13 13 13 13 11 11 11 11 11 11 11 11 11 11 10 10 10
4 4 5 5 5 5 5 5 5 6 5 6 6 6 6 7 7 8 9 9 11 12 12 13 13 11 11 10 9 9 9 9 10 10 10 10 10 11 10 9 9 9 8
3 3 3 4 4 4 4 4 4 5 5 5 5 5 6 6 6 6 6 7 8 9 11 12 11 9 8 8 8 8 7 8 9 9 10 10 10 10 9 8 8 8 7
2 2 2 3 3 3 3 2 3 4 4 4 5 4 4 4 4 4 5 6 7 7 8 10 9 8 7 7 7 7 7 7 7 9 9 9 8 8 7 7 7 7 6
1 2 2 2 2 2 1 1 2 2 3 3 4 4 4 3 4 3 4 4 4 5 7 7 9 9 8 8 7 7 7 5 4 7 7 6 7 6 6 6 6 5 6
1 1 1 2 2 2 1 1 1 2 2 2 2 2 3 3 3 4 3 3 4 4 5 6 7 8 9 9 8 7 7 7 8 7 6 5 6 6 6 6 5 5 5
0 0 0 0 1 1 0 0 0 1 1 1 2 2 2 2 3 3 3 3 3 4 4 5 6 6 7 9 9 8 8 8 7 7 6 6 4 5 5 5 5 5 5
-1 -1 -1 -1 -1 -0 -0 -1 -1 1 1 1 1 1 1 2 2 1 1 2 2 3 3 3 4 4 5 6 8 8 7 5 2 3 5 6 2 3 3 4 4 5 4
-2 -1 -1 -1 -1 -1 -1 -1 -1 0 1 1 2 2 1 1 -0 -0 0 1 1 1 2 2 3 4 4 5 7 7 7 6 6 2 3 5 1 3 1 2 3 3 3

GFSMA_925_temp_111.txt.gz
Temp
20 20 21 21 19 19 18 18 18 19 20 20 20 21 21 21 21 21 20 20 19 18 18 17 17 16 16 16 16 16 16 16 16 16 16 16 16 16 16 16 15 15 15
19 19 19 19 19 18 18 19 18 18 19 20 20 20 20 21 21 21 20 20 19 19 18 18 17 17 16 16 16 16 16 17 16 16 16 16 16 16 16 15 15 15 15
18 18 18 18 19 18 18 18 18 18 18 18 18 19 20 20 20 20 20 20 19 19 18 18 18 18 17 17 17 16 17 17 17 16 16 16 16 16 16 16 15 15 15
18 18 18 18 19 19 18 18 17 18 18 17 16 18 18 19 20 20 20 20 19 19 19 19 19 18 18 17 17 17 17 17 17 17 16 16 16 16 16 15 15 15 15
18 18 17 17 18 18 18 18 18 17 17 16 17 17 18 18 18 19 20 20 20 19 19 19 19 19 19 18 17 17 17 17 17 17 17 16 16 16 16 15 15 15 15
17 17 17 17 16 17 17 17 17 17 17 17 16 16 16 17 17 18 18 19 20 20 19 19 19 19 19 19 18 18 17 17 17 17 17 17 17 16 16 16 15 15 14
17 16 18 17 17 16 16 16 17 16 16 16 16 15 16 16 16 17 18 19 19 20 20 19 19 18 19 19 19 19 18 18 17 17 17 17 17 16 16 15 15 14 13
16 15 16 16 16 16 15 15 15 15 15 16 15 15 16 16 16 17 16 17 18 19 19 19 19 19 19 19 19 19 19 18 18 17 17 17 17 16 15 15 14 14 13
16 16 16 16 16 16 15 15 15 15 15 16 16 17 17 17 19 19 17 17 17 17 18 18 18 19 19 19 18 18 19 19 19 18 17 17 16 15 15 15 14 14 13
16 16 15 16 16 15 15 15 15 16 16 16 16 16 17 17 18 18 20 19 18 18 18 18 19 18 18 18 18 18 19 19 18 18 17 17 16 16 16 15 15 14 13
15 15 15 15 15 15 15 15 15 15 15 15 16 16 16 16 16 15 16 18 18 18 19 20 20 19 18 18 18 17 18 18 18 18 18 16 16 16 16 15 15 14 13
13 13 13 13 14 14 14 14 15 15 15 15 15 15 15 14 14 14 14 16 17 18 18 18 18 18 18 18 17 17 17 18 18 18 18 18 16 16 16 15 15 14 14
10 10 11 11 12 12 13 13 13 14 14 14 14 14 14 14 14 14 14 15 15 17 18 18 18 18 17 17 17 17 17 17 17 18 17 15 16 16 16 16 15 14 14
8 8 9 9 9 10 11 11 11 11 12 13 13 14 14 14 14 14 14 14 14 15 16 17 17 18 17 16 16 16 16 17 16 17 16 17 16 15 15 16 15 15 14
7 7 8 8 8 9 9 9 9 9 9 10 10 11 12 13 14 14 14 13 14 14 14 16 17 17 16 15 16 16 17 17 16 16 16 16 16 16 15 15 15 15 14
6 7 7 7 7 8 8 8 7 8 8 8 8 8 9 10 10 11 12 13 13 14 14 14 15 15 15 15 16 16 16 16 16 15 15 15 16 16 15 14 15 14 13
6 6 6 6 6 6 6 7 7 7 7 7 7 7 7 8 8 9 9 11 12 13 13 14 14 15 14 14 15 15 15 14 15 15 15 15 16 15 14 14 14 13 13
5 5 5 6 6 6 6 6 6 6 6 6 6 6 6 7 7 7 7 7 8 9 11 13 14 13 12 13 14 14 14 14 14 15 15 15 15 13 13 13 13 13 12
5 5 5 5 5 5 5 5 5 5 6 6 6 5 6 6 6 5 5 6 7 7 8 8 12 12 12 12 12 12 12 13 13 14 13 13 13 12 11 12 12 12 11
4 4 4 4 4 4 5 3 4 4 4 5 5 5 5 5 4 4 4 5 5 6 7 7 8 10 10 10 10 10 10 10 10 10 10 10 11 11 11 11 11 10 9
3 3 3 3 3 3 4 2 2 3 3 4 4 4 4 4 4 4 3 4 4 4 5 6 7 8 8 7 8 9 8 8 8 8 9 10 10 10 10 10 10 9 9
3 3 3 3 3 3 3 2 1 1 2 3 3 3 3 3 4 3 4 4 3 3 4 5 5 7 8 8 8 8 7 6 5 7 8 8 9 9 9 9 9 9 9
2 2 2 1 1 2 2 1 1 1 2 2 2 2 2 3 3 3 3 3 3 4 4 4 4 5 6 7 7 8 7 7 8 8 7 7 7 7 8 8 8 8 8
1 1 1 1 1 1 1 0 0 0 1 1 2 2 2 2 2 1 1 1 1 2 3 3 3 3 4 4 4 5 7 7 7 7 7 7 6 7 7 7 7 7 7
-0 -0 0 -0 -0 0 0 -0 -0 0 1 1 2 2 2 2 2 1 0 0 1 0 0 1 1 2 3 3 4 4 5 6 5 5 6 7 5 5 5 6 6 6 6
-1 -0 -1 -0 0 0 1 0 -0 0 1 1 2 2 2 2 1 0 0 0 -0 -0 -0 -0 0 0 1 2 3 4 4 5 6 3 5 5 3 4 2 3 5 5 5

GFSMA_925_temp_114.txt.gz
Temp
21 21 21 20 20 19 19 18 18 18 18 18 19 20 20 20 20 20 20 20 20 19 19 17 17 16 16 16 16 16 16 16 16 16 16 16 16 16 16 16 16 15 15
20 20 20 20 19 19 18 18 18 18 18 19 19 20 20 21 21 20 20 20 20 19 19 19 17 17 16 16 16 16 16 16 16 16 16 16 16 16 16 16 16 16 15
19 19 19 19 19 19 19 19 18 18 18 18 19 19 20 20 20 20 20 20 20 19 19 19 18 18 17 17 17 16 16 17 17 16 16 16 16 16 16 16 16 15 15
19 19 18 18 18 18 18 18 18 18 17 18 18 18 19 19 20 20 20 20 20 20 19 19 19 19 18 18 17 17 17 17 17 17 16 16 16 16 16 15 15 15 15
18 18 18 18 18 17 17 17 18 18 18 18 17 17 17 18 18 19 20 20 20 20 19 19 19 19 19 18 18 17 17 17 17 17 17 17 16 16 16 16 15 15 15
17 17 18 17 17 18 17 17 17 18 18 17 17 17 17 17 17 18 19 19 19 20 19 19 19 19 19 19 19 18 17 17 17 17 17 17 17 16 16 16 16 15 15
17 17 17 17 18 18 18 19 17 16 17 17 16 16 17 17 16 17 17 17 18 19 19 19 19 19 19 19 19 19 19 18 18 18 17 17 17 17 17 16 16 15 15
17 17 17 17 17 17 16 16 16 16 16 16 16 15 15 16 16 17 16 17 17 18 19 19 20 19 19 19 19 19 19 19 19 18 18 18 17 17 17 15 16 15 14
17 17 17 16 16 16 16 16 16 16 15 15 16 16 15 15 16 17 16 16 16 17 18 19 19 19 19 19 19 19 19 19 19 19 18 18 17 17 17 16 15 15 15
17 16 15 16 16 17 16 16 16 16 17 14 15 15 16 16 15 15 18 18 17 16 17 17 17 18 19 19 19 19 19 19 19 20 18 18 18 17 17 16 16 15 15
13 14 15 15 15 15 15 15 15 15 15 16 15 16 15 15 15 14 15 16 18 17 17 17 17 17 17 18 18 19 19 18 18 19 19 18 18 17 16 16 16 15 15
9 12 13 13 13 13 13 14 14 14 14 14 15 15 15 14 14 14 14 15 15 16 17 17 18 18 18 18 18 18 18 18 18 18 18 18 18 18 16 16 16 16 15
7 8 9 11 11 11 11 12 12 12 12 12 13 13 14 14 14 14 14 15 15 15 15 16 17 17 18 19 18 18 18 18 19 17 17 18 18 18 16 16 16 16 15
5 7 8 9 9 9 9 10 10 10 9 9 10 10 11 12 13 13 14 14 14 14 15 15 16 17 17 18 18 18 18 18 18 18 17 17 17 17 17 17 17 17 17
6 7 8 8 8 8 8 9 9 8 9 8 8 8 8 9 10 9 10 11 13 14 14 15 15 16 16 17 16 16 16 16 18 17 16 17 17 17 18 18 18 16 18
6 7 7 7 7 7 7 7 7 7 7 7 7 7 7 7 8 8 8 8 9 9 13 14 15 15 15 16 15 15 15 15 16 16 15 16 15 16 17 17 16 16 16
5 5 6 6 6 6 6 6 6 6 6 6 6 6 6 6 7 6 6 6 7 7 9 10 11 12 13 14 14 14 14 14 15 14 14 14 16 16 16 16 15 15 15
5 5 5 5 5 5 5 5 5 5 5 5 5 5 5 5 5 5 5 5 6 6 7 8 8 9 10 12 13 13 14 13 13 14 14 14 14 15 15 15 14 14 14
4 4 4 4 4 4 4 4 4 3 4 4 5 4 4 4 4 4 4 4 4 4 5 6 7 7 8 9 10 11 11 12 12 13 13 13 13 13 13 13 13 13 13
3 3 3 3 3 3 3 3 2 2 2 3 3 4 4 3 3 3 3 3 3 3 4 4 5 7 7 8 8 9 10 11 11 11 11 11 11 11 11 11 12 12 12
3 2 2 2 2 2 3 2 2 1 1 2 2 3 2 2 3 3 3 4 3 3 3 3 4 5 6 6 7 8 8 8 9 9 10 10 10 10 11 11 11 11 11
2 1 1 1 1 1 1 2 1 1 0 1 2 2 2 2 2 2 2 2 2 2 3 3 3 3 4 4 5 5 6 7 5 10 8 9 8 9 10 10 11 11 11
1 1 0 0 0 0 1 1 1 0 0 0 1 1 2 2 2 2 1 0 0 1 2 2 2 2 2 3 3 3 3 4 6 8 7 7 8 8 9 9 10 10 10
-0 -0 -0 -0 -0 -0 0 0 0 -0 -0 0 1 1 2 2 2 2 1 0 -0 -0 -0 0 0 0 1 1 1 2 3 3 4 5 6 6 8 7 8 9 9 9 9
-1 -1 -1 -0 -0 -0 0 0 0 -0 -0 0 1 1 2 2 2 1 1 0 -0 0 0 -0 -0 -0 0 0 0 1 2 2 3 4 6 6 6 6 6 7 7 8 9
-1 -1 -0 -0 0 0 1 1 1 0 -0 -0 -0 -0 0 1 2 1 1 0 -1 -0 -0 -0 -0 -0 -1 -1 -0 1 1 2 3 3 5 5 5 5 4 5 6 6 7

GFSMA_925_temp_117.txt.gz
Temp
19 20 21 20 20 20 20 19 18 18 18 18 18 18 18 19 20 20 19 20 20 20 19 17 17 16 16 16 16 16 16 16 16 16 16 16 16 16 16 16 16 15 15
20 19 20 20 20 20 19 19 19 18 18 18 18 18 18 19 20 20 20 20 20 20 19 19 17 17 16 16 16 16 16 16 16 16 16 16 16 16 16 16 16 15 15
18 19 19 20 20 19 19 19 19 18 18 18 18 18 18 19 19 20 20 20 20 20 20 19 19 18 17 17 17 16 16 17 17 17 16 16 16 16 16 16 15 15 15
18 18 19 19 20 19 18 18 18 18 18 18 18 18 19 19 19 20 20 20 20 20 19 19 19 19 18 17 17 17 17 17 17 17 16 16 16 16 16 16 15 15 15
18 18 18 19 19 19 19 18 18 18 18 17 17 16 16 16 18 17 19 19 19 19 20 19 19 19 19 18 17 17 17 17 17 17 17 17 17 16 16 16 16 15 15
17 17 17 18 18 18 18 18 18 17 17 16 16 16 16 16 16 17 18 19 19 19 19 19 19 19 19 19 18 18 17 17 17 17 17 17 17 17 16 16 16 16 15
16 16 18 17 16 17 17 17 18 17 17 17 16 16 17 17 16 17 17 18 18 18 19 19 19 19 19 19 19 19 18 18 17 17 17 17 17 17 17 16 16 16 16
16 15 16 15 15 16 16 17 17 17 16 17 16 16 15 15 16 16 17 17 17 18 18 18 18 19 19 19 19 19 19 19 18 17 17 17 18 18 17 17 17 16 16
14 15 16 16 16 16 16 17 17 17 16 16 16 16 14 15 15 16 17 17 17 17 17 17 18 18 18 18 19 19 19 19 19 18 17 17 17 18 17 17 16 16 16
13 13 14 16 17 16 16 17 16 16 16 15 15 16 17 16 14 15 16 16 16 16 16 16 17 17 17 18 18 19 19 19 19 19 19 17 17 18 17 17 17 16 16
12 12 12 13 14 14 15 14 15 14 14 14 14 14 15 15 15 14 15 15 16 17 17 17 17 17 18 18 18 18 18 18 19 19 19 18 17 17 17 17 17 17 16
7 9 11 10 10 11 13 12 12 13 13 13 13 13 14 14 14 13 14 15 15 16 16 16 17 16 17 17 18 18 18 18 18 18 19 18 18 17 18 17 17 17 16
4 7 7 7 11 7 10 11 11 11 11 11 11 11 12 12 12 13 14 14 14 15 15 15 16 16 16 16 17 17 18 18 18 18 18 17 17 17 17 17 17 17 16
4 5 5 5 5 6 8 9 9 9 9 9 9 8 8 8 9 9 10 10 13 14 15 15 15 15 16 16 16 17 17 18 18 18 18 18 17 16 17 17 17 17 16
5 5 5 5 6 7 7 8 7 7 8 7 7 7 8 7 7 7 7 7 9 11 13 14 14 14 14 15 16 16 17 17 17 17 17 17 16 17 17 17 17 17 17
6 6 6 6 6 6 6 6 6 6 6 6 6 6 6 6 7 6 5 6 7 7 9 10 10 10 11 11 12 14 15 16 16 15 15 15 15 15 16 17 17 17 16
5 4 5 5 5 5 5 5 5 5 5 5 5 5 5 5 5 5 5 5 5 6 7 7 7 8 8 9 10 11 13 14 15 15 15 15 14 16 16 16 16 16 16
4 4 4 4 4 4 4 4 4 4 4 4 4 4 4 4 3 3 3 3 4 4 4 5 6 6 6 7 8 9 10 12 13 13 14 14 14 14 16 13 15 15 15
3 3 3 3 3 3 3 3 3 2 2 2 3 3 3 3 3 3 3 2 2 3 3 3 4 4 5 7 7 8 9 9 10 10 11 12 13 14 14 14 13 14 13
2 2 2 2 1 2 2 2 2 1 1 1 2 2 2 2 2 2 3 3 3 2 2 2 3 3 4 5 6 6 6 6 7 8 9 10 10 11 11 11 12 13 12
2 1 1 1 1 1 1 2 1 1 0 1 1 1 1 2 2 2 2 1 1 1 1 2 2 3 3 3 3 3 3 4 5 8 8 9 9 9 10 11 11 12 12
1 0 0 -0 -0 -0 0 1 1 1 0 0 0 1 1 1 2 2 1 1 0 1 1 1 1 1 1 1 1 1 2 3 4 6 4 5 6 8 9 10 10 10 10
-0 -0 -0 -0 -0 -0 0 0 1 0 -0 -0 -0 0 1 1 2 1 1 1 0 0 0 -0 -0 -1 -1 -0 -0 -0 0 1 2 3 3 4 5 6 7 8 9 9 10
-0 -0 -0 -0 -0 0 0 0 1 0 0 -0 -0 -0 0 0 1 1 1 1 0 0 -0 -0 -0 -0 -0 -0 -0 -0 -0 -0 1 1 3 4 5 6 7 8 8 8 9
-0 -0 -0 -0 0 0 0 0 1 1 0 -0 -0 -0 -0 -0 0 1 1 1 0 0 0 0 -0 -0 -1 -1 -1 -1 -1 -1 0 1 2 3 4 5 6 7 8 8 8
-1 -1 -0 -0 -0 -0 -0 0 0 -0 -0 -0 -0 -1 -1 -0 -0 0 1 0 0 -0 -0 -0 -0 -0 -1 -1 -1 -1 -1 -1 -1 1 3 1 3 4 4 6 7 8 7

GFSMA_925_temp_123.txt.gz
Temp
17 18 18 17 18 19 19 19 19 19 19 19 19 18 18 18 18 18 19 19 19 18 18 18 17 16 16 16 16 15 15 16 15 16 16 16 16 16 16 16 16 15 15
17 17 17 17 17 18 18 19 19 20 19 19 18 18 18 17 18 18 18 19 19 18 18 18 17 17 16 16 16 16 16 15 15 15 16 16 16 16 16 16 15 15 15
16 16 16 16 16 17 17 18 18 19 19 18 18 19 18 17 17 17 17 17 18 18 18 18 18 17 17 17 17 16 16 16 16 15 15 15 16 16 16 16 15 15 15
15 15 16 16 16 16 16 15 17 17 17 17 17 17 16 16 17 17 16 17 18 18 18 18 18 18 17 17 17 17 17 16 16 16 16 16 16 16 16 16 16 16 15
14 14 13 13 14 15 15 14 15 16 16 17 17 17 16 16 16 16 15 16 15 15 17 17 18 18 18 18 17 17 17 17 17 17 17 17 17 16 16 16 16 16 15
13 13 14 14 14 14 13 14 14 15 15 17 17 16 16 16 16 16 16 16 16 15 14 15 15 16 17 17 18 18 18 17 17 17 17 17 17 17 16 16 16 16 16
12 12 11 11 12 13 13 13 14 14 15 15 15 15 15 15 16 16 16 16 15 14 15 15 14 15 15 15 17 17 18 18 18 17 17 17 17 17 17 16 16 16 16
8 9 9 10 11 12 13 13 13 13 14 15 16 14 14 14 14 15 16 16 16 15 15 16 15 15 14 15 16 17 18 18 18 18 18 17 17 17 17 16 16 16 16
8 9 8 9 9 11 12 13 13 13 14 14 15 15 14 14 13 14 15 14 15 15 16 16 16 15 14 14 14 15 17 18 18 18 18 18 17 17 17 16 16 17 16
6 8 7 8 7 9 11 12 13 13 13 14 14 14 14 15 14 14 14 15 14 15 16 16 16 15 15 15 15 15 15 15 17 18 17 17 17 17 16 17 17 17 17
6 6 6 7 6 6 8 10 11 12 13 13 13 14 14 13 14 14 14 14 14 15 15 16 16 15 15 14 14 15 15 15 16 17 17 17 17 17 17 17 17 17 17
6 6 5 5 5 5 6 7 8 11 10 11 11 11 14 14 13 13 14 13 13 15 16 16 15 15 14 14 13 13 13 14 15 16 16 16 16 17 17 17 17 17 17
4 4 4 5 4 5 5 6 6 7 8 9 9 9 9 8 10 11 12 12 13 14 14 15 15 13 12 12 11 12 13 13 13 14 13 15 15 16 16 16 16 17 16
4 4 4 3 4 3 5 6 6 5 5 5 7 7 6 7 7 8 8 9 10 11 13 12 10 10 10 10 10 11 12 12 12 13 14 14 14 14 15 16 16 16 16
4 4 4 4 4 3 3 4 4 4 5 5 4 5 5 6 5 6 7 8 8 10 10 10 10 8 9 9 8 8 9 10 11 11 12 13 13 14 14 15 15 16 16
3 4 4 3 3 3 4 4 4 4 4 4 4 4 4 4 5 5 5 6 6 7 8 8 8 7 7 7 7 8 9 9 9 9 10 11 12 13 13 14 15 15 16
3 2 2 3 3 3 3 3 3 2 3 3 3 3 3 3 3 4 4 4 4 4 4 5 5 5 4 4 5 5 6 6 6 7 9 9 10 12 12 12 13 14 14
2 2 1 1 1 1 1 1 1 2 2 1 1 2 2 2 2 2 2 3 2 3 2 2 2 2 2 3 2 3 3 4 5 6 7 8 8 9 10 11 12 13 13
2 2 1 1 1 1 1 1 1 0 1 1 1 1 1 1 1 2 2 2 1 2 1 1 1 1 1 1 1 1 1 2 3 5 6 5 7 7 8 8 9 10 11
1 1 1 1 1 1 0 1 0 0 0 0 0 0 1 1 1 2 1 1 1 1 0 0 -0 0 0 0 -0 -1 -1 -0 1 4 3 4 5 6 7 7 7 8 9
1 -0 -0 -0 0 0 0 1 0 0 -0 -0 -0 0 0 0 1 1 1 1 1 0 0 -0 -1 -1 -1 -1 -1 -1 -1 -1 -1 1 1 1 2 4 5 6 6 6 7
1 0 0 -0 -0 -0 -0 1 1 0 0 -0 -0 -0 -0 -0 0 1 1 1 1 0 0 -0 -1 -1 -1 -1 -1 -1 -1 -2 -1 -0 -1 -1 -0 0 2 3 3 4 5
0 -0 -0 -0 -0 -0 -0 0 1 0 0 -0 -1 -1 -1 -0 -0 -0 0 0 0 0 0 0 -0 -1 -1 -1 -1 -1 -2 -2 -2 -2 -2 -1 -0 0 1 2 3 4 4
-0 -0 -1 -1 -1 -1 -1 0 -0 -1 -1 -1 -1 -1 -1 -1 -1 -0 0 -0 0 0 0 0 -0 -0 -1 -1 -1 -1 -2 -2 -2 -2 -2 -2 -0 -1 -1 2 3 3 3
-1 -1 -1 -1 -1 -1 -1 -1 -1 -1 -2 -2 -2 -2 -2 -2 -2 -1 -1 -1 -1 -1 -0 -0 -1 -1 -1 -1 -1 -2 -2 -3 -3 -2 -2 -3 -2 -2 -1 1 2 3 3
-1 -1 -1 -2 -2 -2 -2 -2 -2 -2 -2 -2 -2 -2 -2 -2 -2 -1 -1 -1 -2 -1 -1 -1 -1 -1 -1 -1 -1 -2 -2 -4 -4 -3 -2 -3 -3 -3 -3 -1 -0 1 0

GFSMA_925_temp_126.txt.gz
Temp
16 16 16 17 17 17 16 16 16 18 18 19 19 19 18 18 18 18 18 18 18 18 18 17 18 17 16 16 16 16 15 15 15 15 16 16 16 16 15 15 15 15 15
15 15 15 16 16 16 17 16 16 16 16 18 18 18 19 18 18 17 17 17 17 17 18 18 17 17 17 17 16 16 16 15 15 15 15 15 15 16 16 15 15 15 15
14 14 14 14 15 15 14 14 15 15 15 16 16 18 18 18 18 18 18 17 17 17 17 17 18 17 17 17 17 16 16 16 16 16 15 15 15 15 15 15 15 15 15
13 13 13 13 14 14 14 13 14 14 15 15 16 16 17 17 17 17 17 17 17 17 17 17 17 18 17 17 17 17 17 17 17 16 16 16 16 15 15 15 15 15 15
13 13 13 12 13 13 13 13 12 13 14 15 15 15 15 16 15 16 16 16 16 16 16 17 17 17 17 17 16 17 17 17 17 17 17 16 16 16 16 16 15 15 15
11 11 10 9 9 10 11 12 12 13 13 14 14 15 16 17 17 16 15 15 16 16 16 17 17 17 16 16 16 16 16 16 17 17 17 17 17 16 16 16 16 16 15
8 9 10 10 10 9 9 11 12 12 13 14 14 14 15 16 15 15 15 15 15 16 15 16 16 16 17 16 16 15 15 15 16 16 16 16 17 17 17 16 16 16 16
8 8 8 7 8 8 10 10 11 12 12 14 13 14 14 14 14 14 15 15 15 15 15 15 15 15 16 16 15 15 14 15 15 15 16 16 16 16 17 17 16 16 16
6 7 7 7 6 7 8 8 10 12 13 13 14 13 13 14 13 14 14 14 15 14 15 15 15 15 15 14 14 14 15 14 14 14 14 15 15 16 16 16 16 16 16
6 5 6 7 6 6 7 7 8 10 12 12 13 14 14 15 14 14 14 14 14 14 14 15 15 15 15 15 14 14 14 14 14 14 13 14 15 15 16 16 16 16 17
5 5 5 6 7 7 5 6 6 8 9 11 12 13 13 13 13 13 14 13 13 14 15 15 15 16 15 14 14 13 13 13 13 13 13 14 15 15 16 16 16 16 16
5 4 5 5 5 6 5 5 5 5 6 8 9 10 11 10 9 10 12 14 15 14 15 14 15 14 13 13 13 12 12 12 13 13 14 13 14 14 15 15 16 16 16
4 5 5 5 5 4 4 4 5 4 5 5 6 6 7 8 8 9 10 10 13 13 13 11 11 11 10 10 10 10 10 10 11 12 12 12 13 14 15 15 15 15 15
4 4 4 4 4 4 4 4 4 4 4 4 5 5 5 4 4 5 6 7 10 10 11 10 7 8 8 8 8 9 9 9 9 9 10 12 13 13 14 14 15 15 15
4 4 4 4 4 4 4 3 3 3 4 4 4 4 4 4 4 4 5 5 6 9 10 8 8 6 6 6 6 7 7 8 9 8 8 10 10 11 12 12 14 14 15
3 3 3 3 3 3 3 3 3 3 3 3 3 3 3 3 3 3 4 4 4 5 7 5 5 4 4 4 4 5 5 6 6 7 8 9 9 9 10 11 12 13 13
2 2 2 2 2 1 1 1 2 2 2 2 2 3 3 3 3 3 3 3 3 3 4 4 4 4 4 3 3 4 4 4 5 6 7 7 6 7 8 9 10 12 12
2 1 1 1 1 1 1 1 1 1 1 1 1 1 1 2 2 2 2 2 2 2 1 1 1 2 2 1 2 2 2 2 4 5 6 4 4 5 7 7 7 8 9
2 1 1 1 1 1 0 0 0 1 0 0 0 1 1 1 1 1 1 1 1 1 1 0 -0 1 1 0 1 1 1 1 2 3 2 3 4 5 6 7 6 7 7
1 1 1 1 1 0 0 0 0 0 0 0 0 0 0 0 0 1 1 1 1 1 0 -0 -0 -0 -0 -0 -0 -1 -1 -1 1 1 1 2 3 3 4 4 6 5 6
1 1 1 0 0 0 0 0 0 0 -0 -0 -0 -0 -0 -0 -0 0 0 1 1 0 0 -0 -1 -1 -1 -1 -1 -1 -2 -2 -1 0 -0 0 1 1 2 2 3 4 4
1 0 0 0 0 0 -0 0 1 0 -0 -1 -1 -1 -1 -1 -0 -0 -0 0 1 0 -0 -1 -1 -2 -1 -1 -1 -1 -2 -2 -3 -1 -2 -2 -1 -0 0 1 1 3 3
0 0 -0 -0 -0 -0 -1 0 -0 -0 -1 -1 -1 -1 -1 -1 -1 -1 -0 -0 -0 0 0 -0 -1 -1 -1 -1 -1 -1 -1 -2 -2 -1 -2 -2 -1 -1 -0 1 2 1 3
0 -0 -0 -1 -1 -1 -1 -1 -1 -1 -1 -1 -2 -2 -2 -2 -2 -1 -1 -1 -1 -1 -1 -1 -1 -1 -1 -1 -1 -1 -2 -2 -2 -1 -2 -3 -1 -2 -1 1 1 1 0
-0 -0 -1 -1 -1 -1 -1 -2 -1 -2 -2 -2 -2 -2 -2 -2 -2 -1 -1 -1 -1 -1 -1 -1 -1 -1 -1 -1 -1 -1 -2 -3 -4 -3 -3 -3 -2 -3 -3 -1 -1 0 1
-0 -1 -1 -2 -2 -2 -2 -2 -2 -2 -2 -2 -2 -2 -2 -3 -2 -2 -1 -2 -2 -2 -2 -2 -2 -2 -2 -1 -1 -2 -2 -4 -5 -4 -2 -3 -3 -4 -5 -2 -1 -1 -1